[[{"header":{"parameterUnit":"m.s-1","parameterCategory":1,"la1":30.6,"la2":29.2853,"lo1":-89.7004,"lo2":-87.6739,"dy":0.0162,"dx":0.0183,"nx":112,"ny":82,"refTime":"2024-03-21T18:00:00:Z","depth":0,"parameterNumber":2,"parameterNumberName":"U-component_of_WINDS"},"data":[0.0,0.0,0.0,0.0,0.0,0.0,0.0,0.0,0.0,0.0,0.0,0.0,0.0,0.0,0.0,0.0,0.0,0.0,0.0,0.0,0.0,0.0,0.0,0.0,0.0,0.0,0.0,0.0,0.0,0.0,0.0,0.0,0.0,0.0,0.0,0.0,0.0,0.0,0.0,0.0,0.0,0.0,0.0,0.0,0.0,0.0,0.0,0.0,0.0,0.0,0.0,0.0,0.0,0.0,0.0,0.0,0.0,0.0,0.0,0.0,0.0,0.0,0.0,0.0,0.0,0.0,0.0,0.0,0.0,0.0,0.0,0.0,0.0,0.0,0.0,0.0,0.0,0.0,0.0,0.0,0.0,0.0,0.0,0.0,0.0,0.0,0.0,0.0,0.0,0.0,4.341,4.5011,4.587,4.5988,4.5245,4.5089,4.4308,4.2708,0.0,0.0,0.0,0.0,0.0,0.0,0.0,0.0,0.0,0.0,0.0,0.0,0.0,0.0,0.0,0.0,0.0,0.0,0.0,0.0,0.0,0.0,0.0,0.0,0.0,0.0,0.0,0.0,0.0,0.0,0.0,0.0,0.0,0.0,0.0,0.0,0.0,0.0,0.0,0.0,0.0,0.0,0.0,0.0,0.0,0.0,0.0,0.0,0.0,0.0,0.0,0.0,0.0,0.0,0.0,0.0,0.0,0.0,0.0,0.0,0.0,0.0,0.0,0.0,0.0,0.0,0.0,0.0,0.0,0.0,0.0,0.0,0.0,0.0,0.0,0.0,0.0,0.0,0.0,0.0,0.0,0.0,0.0,0.0,0.0,0.0,0.0,0.0,0.0,0.0,0.0,0.0,0.0,0.0,0.0,0.0,0.0,0.0,0.0,0.0,0.0,0.0,0.0,0.0,4.4972,4.5988,4.6222,4.6261,4.6105,4.5441,4.4582,4.3568,0.0,0.0,0.0,0.0,0.0,0.0,0.0,0.0,0.0,0.0,0.0,0.0,0.0,0.0,0.0,0.0,0.0,0.0,0.0,0.0,0.0,0.0,0.0,0.0,0.0,0.0,0.0,0.0,0.0,0.0,0.0,0.0,0.0,0.0,0.0,0.0,0.0,0.0,0.0,0.0,0.0,0.0,0.0,0.0,0.0,0.0,0.0,0.0,0.0,0.0,0.0,0.0,0.0,0.0,0.0,0.0,0.0,0.0,0.0,0.0,0.0,0.0,0.0,0.0,0.0,0.0,0.0,0.0,0.0,0.0,0.0,0.0,0.0,0.0,0.0,0.0,0.0,0.0,0.0,0.0,0.0,0.0,0.0,0.0,0.0,0.0,0.0,0.0,0.0,0.0,0.0,0.0,0.0,0.0,0.0,0.0,0.0,0.0,0.0,0.0,0.0,0.0,0.0,4.5323,4.6572,4.6963,4.7387,4.7461,4.6994,4.6597,4.5774,4.4448,4.3589,0.0,0.0,0.0,0.0,0.0,0.0,0.0,0.0,0.0,0.0,0.0,0.0,0.0,0.0,0.0,0.0,0.0,0.0,0.0,0.0,0.0,0.0,0.0,0.0,0.0,0.0,0.0,0.0,0.0,0.0,0.0,0.0,0.0,0.0,0.0,0.0,0.0,0.0,0.0,0.0,0.0,0.0,0.0,0.0,0.0,0.0,0.0,0.0,0.0,0.0,0.0,0.0,0.0,0.0,0.0,0.0,0.0,0.0,0.0,0.0,0.0,0.0,0.0,0.0,0.0,0.0,0.0,0.0,0.0,0.0,0.0,0.0,0.0,0.0,0.0,0.0,0.0,0.0,0.0,0.0,0.0,0.0,0.0,0.0,0.0,0.0,0.0,0.0,0.0,0.0,0.0,0.0,0.0,0.0,0.0,0.0,0.0,0.0,0.0,0.0,0.0,0.0,4.6765,4.7661,4.7856,4.8431,4.854,4.7878,4.7635,4.6848,4.5287,4.4274,0.0,0.0,0.0,0.0,0.0,0.0,0.0,0.0,0.0,0.0,0.0,0.0,0.0,0.0,0.0,0.0,0.0,0.0,0.0,0.0,0.0,0.0,0.0,0.0,0.0,0.0,0.0,0.0,0.0,0.0,0.0,0.0,0.0,0.0,0.0,0.0,0.0,0.0,0.0,0.0,0.0,0.0,0.0,0.0,0.0,0.0,0.0,0.0,0.0,0.0,0.0,0.0,0.0,0.0,0.0,0.0,0.0,0.0,0.0,0.0,0.0,0.0,0.0,0.0,0.0,0.0,0.0,0.0,0.0,0.0,0.0,0.0,0.0,0.0,0.0,0.0,0.0,0.0,0.0,0.0,0.0,0.0,0.0,0.0,0.0,0.0,0.0,0.0,0.0,0.0,0.0,0.0,0.0,0.0,0.0,0.0,0.0,0.0,0.0,0.0,0.0,0.0,4.7461,4.7805,4.8624,4.8769,4.876,4.8721,4.798,4.7082,4.6182,4.4585,0.0,0.0,0.0,0.0,0.0,0.0,0.0,0.0,0.0,0.0,0.0,0.0,0.0,0.0,0.0,0.0,0.0,0.0,0.0,0.0,0.0,0.0,0.0,0.0,0.0,0.0,0.0,0.0,0.0,0.0,0.0,0.0,0.0,0.0,0.0,0.0,0.0,0.0,0.0,0.0,0.0,0.0,0.0,0.0,0.0,0.0,0.0,0.0,0.0,0.0,0.0,0.0,0.0,0.0,0.0,0.0,0.0,0.0,0.0,0.0,0.0,0.0,0.0,0.0,0.0,0.0,0.0,0.0,0.0,0.0,0.0,0.0,0.0,0.0,0.0,0.0,0.0,0.0,0.0,0.0,0.0,0.0,0.0,0.0,0.0,0.0,0.0,0.0,0.0,0.0,0.0,0.0,0.0,0.0,0.0,0.0,0.0,0.0,0.0,0.0,0.0,0.0,4.8465,4.9237,0.0,5.0043,5.015,4.9641,4.8814,4.7951,4.7052,0.0,0.0,0.0,0.0,0.0,0.0,0.0,0.0,0.0,0.0,0.0,0.0,0.0,0.0,0.0,0.0,0.0,0.0,0.0,0.0,0.0,0.0,0.0,0.0,0.0,0.0,0.0,0.0,0.0,0.0,0.0,0.0,0.0,0.0,0.0,0.0,0.0,0.0,0.0,0.0,0.0,0.0,0.0,0.0,0.0,0.0,0.0,0.0,0.0,0.0,0.0,0.0,0.0,0.0,0.0,0.0,0.0,0.0,0.0,0.0,0.0,0.0,0.0,0.0,0.0,0.0,0.0,0.0,0.0,0.0,0.0,0.0,0.0,0.0,0.0,0.0,0.0,0.0,0.0,0.0,0.0,0.0,0.0,0.0,0.0,0.0,0.0,0.0,0.0,0.0,0.0,0.0,0.0,0.0,0.0,0.0,0.0,0.0,0.0,0.0,0.0,0.0,4.8189,4.9348,5.0198,0.0,5.0963,5.1068,5.052,4.9691,4.8827,4.797,0.0,0.0,0.0,0.0,0.0,0.0,0.0,0.0,0.0,0.0,0.0,0.0,0.0,0.0,0.0,0.0,0.0,0.0,0.0,0.0,0.0,0.0,0.0,0.0,0.0,0.0,0.0,0.0,0.0,0.0,0.0,0.0,0.0,0.0,0.0,0.0,0.0,0.0,0.0,0.0,0.0,0.0,0.0,0.0,0.0,0.0,0.0,0.0,0.0,0.0,0.0,0.0,0.0,0.0,0.0,0.0,0.0,0.0,0.0,0.0,0.0,0.0,0.0,0.0,0.0,0.0,0.0,0.0,0.0,0.0,0.0,0.0,0.0,0.0,0.0,0.0,0.0,0.0,0.0,0.0,0.0,0.0,0.0,0.0,0.0,0.0,0.0,0.0,0.0,0.0,0.0,0.0,0.0,0.0,0.0,0.0,0.0,0.0,0.0,0.0,0.0,0.0,4.9893,5.0111,5.0412,5.1234,5.1332,5.1319,5.1319,5.0501,4.9683,0.0,0.0,0.0,0.0,0.0,0.0,0.0,0.0,0.0,0.0,0.0,0.0,0.0,0.0,0.0,0.0,0.0,0.0,0.0,0.0,0.0,0.0,0.0,0.0,0.0,0.0,0.0,0.0,0.0,0.0,0.0,0.0,0.0,0.0,0.0,0.0,0.0,0.0,0.0,0.0,0.0,0.0,0.0,0.0,0.0,0.0,0.0,0.0,0.0,0.0,0.0,0.0,0.0,0.0,0.0,0.0,0.0,0.0,0.0,0.0,0.0,0.0,0.0,0.0,0.0,0.0,0.0,0.0,0.0,0.0,0.0,0.0,0.0,0.0,0.0,0.0,0.0,0.0,0.0,0.0,0.0,0.0,0.0,0.0,0.0,0.0,0.0,0.0,0.0,0.0,0.0,0.0,0.0,0.0,0.0,0.0,0.0,0.0,0.0,0.0,0.0,0.0,0.0,4.9952,5.1145,5.1951,5.2186,5.2764,5.2877,5.2254,5.1436,5.0307,4.8905,0.0,0.0,0.0,0.0,0.0,0.0,0.0,0.0,0.0,0.0,0.0,0.0,0.0,0.0,0.0,0.0,0.0,0.0,0.0,0.0,0.0,0.0,0.0,0.0,0.0,0.0,0.0,0.0,0.0,0.0,0.0,0.0,0.0,0.0,0.0,0.0,0.0,0.0,0.0,0.0,0.0,0.0,0.0,0.0,0.0,0.0,0.0,0.0,0.0,0.0,0.0,0.0,0.0,0.0,0.0,0.0,0.0,0.0,0.0,0.0,0.0,0.0,0.0,0.0,0.0,0.0,0.0,0.0,0.0,0.0,0.0,0.0,0.0,0.0,0.0,0.0,0.0,0.0,0.0,0.0,0.0,0.0,0.0,0.0,0.0,0.0,0.0,0.0,0.0,0.0,0.0,0.0,0.0,0.0,0.0,0.0,0.0,0.0,0.0,0.0,0.0,0.0,5.0985,5.2261,5.311,5.311,5.3578,5.3695,5.3149,5.2332,5.1241,4.9878,0.0,0.0,0.0,0.0,0.0,0.0,0.0,0.0,0.0,0.0,0.0,0.0,0.0,0.0,0.0,0.0,0.0,0.0,0.0,0.0,0.0,0.0,0.0,0.0,0.0,0.0,0.0,0.0,0.0,0.0,0.0,0.0,0.0,0.0,0.0,0.0,0.0,0.0,0.0,0.0,0.0,0.0,0.0,0.0,0.0,0.0,0.0,0.0,0.0,0.0,0.0,0.0,0.0,0.0,0.0,0.0,0.0,0.0,0.0,0.0,0.0,0.0,0.0,0.0,0.0,0.0,0.0,0.0,0.0,0.0,0.0,0.0,0.0,0.0,0.0,0.0,0.0,0.0,0.0,0.0,0.0,0.0,0.0,0.0,0.0,0.0,0.0,0.0,0.0,0.0,0.0,0.0,0.0,0.0,0.0,0.0,0.0,0.0,0.0,0.0,0.0,0.0,5.2604,5.3461,5.4007,5.4007,5.4084,5.4123,5.4046,5.3305,5.241,5.1358,0.0,0.0,0.0,0.0,0.0,0.0,0.0,0.0,0.0,0.0,0.0,0.0,0.0,0.0,0.0,0.0,0.0,0.0,0.0,0.0,0.0,0.0,0.0,0.0,0.0,0.0,0.0,0.0,0.0,0.0,0.0,0.0,0.0,0.0,0.0,0.0,0.0,0.0,0.0,0.0,0.0,0.0,0.0,0.0,0.0,0.0,0.0,0.0,0.0,0.0,0.0,0.0,0.0,0.0,0.0,0.0,0.0,0.0,0.0,0.0,4.1384,0.0,0.0,0.0,0.0,0.0,0.0,0.0,0.0,0.0,0.0,0.0,0.0,0.0,0.0,0.0,0.0,0.0,0.0,0.0,0.0,0.0,0.0,0.0,0.0,0.0,0.0,0.0,0.0,0.0,0.0,0.0,0.0,0.0,0.0,0.0,0.0,0.0,0.0,0.0,0.0,0.0,5.3422,5.4396,5.4902,5.4902,5.5528,5.5685,5.4981,5.4746,5.3695,5.1436,5.0307,0.0,0.0,0.0,0.0,0.0,0.0,0.0,0.0,0.0,0.0,0.0,0.0,0.0,0.0,0.0,0.0,0.0,0.0,0.0,0.0,0.0,0.0,0.0,0.0,0.0,0.0,0.0,0.0,0.0,0.0,0.0,0.0,0.0,0.0,0.0,0.0,0.0,0.0,0.0,0.0,0.0,0.0,0.0,0.0,0.0,0.0,0.0,0.0,0.0,0.0,0.0,0.0,0.0,0.0,0.0,0.0,0.0,0.0,0.0,0.0,4.3213,0.0,0.0,0.0,0.0,0.0,0.0,0.0,0.0,0.0,0.0,0.0,0.0,0.0,0.0,0.0,0.0,0.0,0.0,0.0,0.0,0.0,0.0,0.0,0.0,0.0,0.0,0.0,0.0,0.0,0.0,0.0,0.0,0.0,0.0,0.0,0.0,0.0,0.0,0.0,0.0,5.4983,5.5879,5.6541,5.6969,5.7439,5.7362,5.6464,5.6035,5.4905,5.2683,5.1358,0.0,0.0,0.0,0.0,0.0,0.0,0.0,0.0,0.0,0.0,0.0,0.0,0.0,0.0,0.0,0.0,0.0,0.0,0.0,0.0,0.0,0.0,0.0,0.0,0.0,0.0,0.0,0.0,0.0,0.0,0.0,0.0,0.0,0.0,0.0,0.0,0.0,0.0,0.0,0.0,0.0,0.0,0.0,0.0,0.0,0.0,0.0,0.0,0.0,0.0,0.0,0.0,0.0,4.7292,4.7733,4.7885,4.8628,4.9404,5.0064,4.8066,4.6984,4.6684,4.6537,0.0,0.0,0.0,0.0,0.0,0.0,0.0,0.0,0.0,0.0,0.0,0.0,0.0,0.0,0.0,0.0,0.0,0.0,0.0,0.0,0.0,0.0,0.0,0.0,4.9438,4.9282,4.8737,0.0,0.0,0.0,0.0,0.0,0.0,0.0,0.0,0.0,0.0,0.0,5.6817,5.7518,5.8219,5.8921,5.8999,5.8726,5.7985,5.7168,5.6037,5.4436,5.2566,5.0851,0.0,0.0,0.0,0.0,0.0,0.0,0.0,0.0,0.0,0.0,0.0,0.0,0.0,0.0,0.0,0.0,0.0,0.0,0.0,0.0,0.0,0.0,0.0,0.0,0.0,0.0,0.0,0.0,0.0,0.0,0.0,0.0,3.3071,3.4768,0.0,0.0,0.0,0.0,0.0,0.0,0.0,0.0,0.0,0.0,0.0,0.0,0.0,4.6889,4.7584,4.8476,4.9291,5.0024,5.0147,5.0568,5.1253,5.1419,5.1982,5.2796,5.2459,0.0,5.0158,4.9459,0.0,0.0,0.0,0.0,0.0,0.0,0.0,0.0,0.0,0.0,0.0,0.0,0.0,0.0,0.0,0.0,0.0,0.0,0.0,0.0,0.0,0.0,5.0939,5.1795,5.199,5.2186,0.0,5.1211,5.0151,5.1786,5.2098,0.0,0.0,0.0,0.0,0.0,0.0,0.0,5.8453,5.8765,5.8882,5.8999,5.8999,5.896,5.8843,5.8024,5.7167,5.6233,5.3814,5.1981,5.1007,4.7892,0.0,0.0,0.0,0.0,0.0,0.0,0.0,0.0,0.0,0.0,0.0,0.0,0.0,0.0,0.0,0.0,0.0,0.0,0.0,0.0,0.0,0.0,0.0,0.0,0.0,0.0,0.0,0.0,0.0,3.3676,3.4955,3.7158,3.7461,3.8141,0.0,0.0,0.0,0.0,0.0,0.0,0.0,0.0,0.0,4.7706,4.9007,5.012,5.0969,5.1818,5.2667,5.3515,5.3515,5.3705,5.4049,5.4075,5.4549,5.5363,5.5409,5.5287,5.489,5.2689,5.1794,5.1759,0.0,0.0,0.0,0.0,5.0983,5.0618,5.0632,5.031,4.9912,4.9934,0.0,0.0,0.0,0.0,0.0,0.0,0.0,0.0,0.0,0.0,5.3497,5.3888,5.4355,5.494,5.5757,5.5076,5.408,0.0,5.3653,5.4276,5.5132,0.0,0.0,0.0,0.0,5.829,5.9536,5.9704,5.9909,6.0341,6.0431,6.0245,5.9777,5.8921,5.7869,5.6584,5.4983,5.3227,5.1397,4.9878,4.8164,0.0,0.0,0.0,0.0,0.0,0.0,0.0,0.0,0.0,0.0,0.0,0.0,0.0,0.0,0.0,0.0,0.0,0.0,0.0,0.0,0.0,0.0,0.0,0.0,0.0,0.0,0.0,0.0,3.5912,3.6995,3.9166,3.9794,4.0618,0.0,0.0,0.0,0.0,0.0,0.0,4.8075,4.8923,4.973,5.0619,5.209,5.3287,5.4138,5.5041,5.5895,5.6668,5.6898,5.7014,5.7014,5.7014,5.7363,5.7981,5.8017,5.838,5.8696,5.5603,5.4335,5.4339,5.4197,5.4138,5.4141,5.4151,5.375,5.3232,5.3232,5.2827,5.2318,5.2348,5.2372,5.2394,5.2461,0.0,0.0,0.0,0.0,5.4772,5.4772,5.5409,5.6046,5.6046,5.6551,5.7175,5.7797,5.807,5.7607,0.0,5.564,5.6264,5.6925,0.0,0.0,0.0,0.0,5.9963,6.1014,6.1229,6.1476,6.2064,6.201,6.1635,6.0973,5.9968,5.8726,5.7246,5.6113,5.4553,5.2371,5.167,5.0112,4.7541,0.0,0.0,0.0,0.0,0.0,0.0,0.0,0.0,0.0,0.0,0.0,0.0,0.0,0.0,0.0,0.0,0.0,0.0,0.0,0.0,0.0,0.0,0.0,0.0,0.0,0.0,0.0,0.0,0.0,4.0117,4.1655,0.0,0.0,0.0,0.0,4.765,4.8537,4.973,5.1379,5.2294,5.3137,5.4028,5.4923,5.5837,5.6723,5.7631,5.8508,5.9316,6.0168,6.0553,6.0553,6.0553,6.0553,6.0594,6.0594,6.0633,6.0491,5.794,5.6903,5.6831,5.6152,5.5864,5.5868,5.5876,5.5855,5.5818,5.5818,5.5848,5.5846,5.5848,5.5904,5.5927,5.5968,5.6032,0.0,0.0,5.6724,5.7426,5.7426,5.8006,5.8626,5.8626,5.8664,5.8703,5.8742,5.9404,5.9696,0.0,5.8678,5.8717,5.8756,0.0,5.9417,6.1093,6.1366,6.1949,6.3585,6.382,6.382,6.3861,6.3185,6.2733,6.2694,6.1163,5.9855,5.8921,5.7324,5.5997,5.5059,5.2605,5.1202,5.1046,4.7853,0.0,0.0,0.0,0.0,0.0,0.0,0.0,0.0,0.0,0.0,0.0,0.0,0.0,0.0,0.0,0.0,0.0,0.0,0.0,0.0,0.0,0.0,0.0,0.0,0.0,0.0,0.0,0.0,4.3367,4.449,0.0,4.7182,4.8343,4.9403,5.0281,5.1622,5.2711,5.3326,5.4706,5.5815,5.6655,5.7523,5.8648,6.0032,6.0402,6.099,6.18,6.2199,6.264,6.3175,6.3222,6.3551,6.4092,6.4092,6.4092,6.398,6.2515,6.0977,5.9515,5.93,5.9227,5.9218,5.9235,5.9265,5.9298,5.9298,5.9309,5.9211,5.8699,5.8594,5.8523,5.7978,5.8201,5.8699,5.8738,5.9378,6.0058,6.0058,6.0679,6.1301,6.1301,6.173,6.2159,6.2159,6.2392,6.2516,6.2229,6.1727,6.1339,6.1339,6.1805,6.239,6.3014,6.3091,6.3325,6.3909,6.4004,6.4017,6.4017,6.3736,6.3374,6.2847,6.1728,6.0731,5.9893,5.8219,5.6894,5.6075,5.4592,5.3032,5.1319,5.0112,4.8946,0.0,0.0,0.0,0.0,0.0,0.0,0.0,0.0,0.0,0.0,0.0,0.0,0.0,0.0,0.0,0.0,0.0,0.0,0.0,0.0,0.0,0.0,0.0,0.0,0.0,4.2753,4.4287,4.5927,4.7111,4.8449,5.0174,5.1088,5.2058,5.3251,5.466,5.5593,5.5905,5.7516,5.8662,5.9191,6.037,6.1535,6.2643,6.3242,6.3792,6.4371,6.4732,6.5177,6.575,6.58,6.6144,6.6708,6.6708,6.6721,6.6705,6.6125,6.4919,6.3306,6.2213,6.1794,6.1829,6.1844,6.1891,6.1945,6.1964,6.1971,6.1899,6.1351,6.1197,6.1154,6.0569,6.0793,6.1293,6.1332,6.1791,6.225,6.225,6.2689,6.3129,6.3129,6.3597,6.3987,6.3987,6.4218,6.4411,6.4411,6.3711,6.3129,6.3129,6.3636,6.4102,6.4372,6.4411,6.4527,6.4801,6.4821,6.4834,6.4834,6.4596,6.4237,6.3672,6.2602,6.1571,6.0773,5.9383,5.8063,5.6934,5.6075,5.4709,5.2643,5.1748,5.0621,4.9226,0.0,0.0,0.0,0.0,0.0,0.0,0.0,0.0,0.0,0.0,0.0,0.0,0.0,0.0,0.0,0.0,0.0,0.0,0.0,0.0,0.0,0.0,0.0,4.4217,4.4893,4.608,4.7755,4.9401,5.1085,5.2772,5.3722,5.4909,5.6556,5.7508,5.8345,5.914,6.0787,6.1707,6.1707,6.3461,6.4377,6.4415,6.6088,6.6925,6.6963,6.7817,6.8243,6.8319,6.8319,6.8363,6.8433,6.8433,6.8475,6.8542,6.8503,6.8465,6.8167,6.4849,6.3569,6.3578,6.3632,6.3692,6.3753,6.3811,6.3869,6.3833,6.3833,6.3823,6.382,6.3781,6.3851,6.3923,6.3923,6.3998,6.4073,6.4073,6.4105,6.4137,6.4137,6.4139,6.4178,6.4178,6.4758,6.5337,6.5337,6.4683,6.4141,6.4102,6.4063,6.4335,6.5106,6.5221,0.0,6.639,6.6507,6.6507,6.6507,6.5804,6.5321,6.5282,6.3823,6.2495,6.1601,6.0773,5.9582,5.7869,5.6973,5.6114,5.5213,5.2682,5.1017,5.0215,0.0,0.0,0.0,0.0,0.0,0.0,0.0,0.0,0.0,0.0,0.0,0.0,0.0,0.0,0.0,0.0,0.0,0.0,0.0,0.0,0.0,4.5744,4.6783,4.6717,4.7925,4.9472,5.1232,5.2384,5.3722,5.5406,5.6323,5.7275,5.8341,5.9759,6.0676,6.0901,6.2551,6.3736,6.4344,6.5432,6.6323,6.69,6.7382,6.7925,6.8571,6.8863,6.9621,7.0812,7.0858,7.1241,7.1839,7.1839,7.1887,7.1849,7.0654,7.0186,7.0014,6.7876,6.7067,6.711,6.7126,6.7203,6.7299,6.7316,6.7348,6.7307,6.665,6.6466,6.6322,6.5702,6.601,6.6552,6.6552,6.7015,6.7516,6.7516,6.7525,6.7534,6.7534,6.7601,6.7624,6.7624,6.7842,6.802,6.802,6.7864,6.7284,6.6042,6.5809,6.5887,6.6118,6.6157,0.0,6.6468,6.6507,6.6507,6.6507,6.6285,6.5913,6.5358,6.4871,6.4007,6.2534,6.1649,6.0689,5.9621,5.8141,5.6698,5.5213,5.3851,5.3074,0.0,0.0,0.0,0.0,0.0,0.0,0.0,0.0,0.0,0.0,0.0,0.0,0.0,0.0,0.0,0.0,0.0,0.0,0.0,0.0,0.0,0.0,4.846,4.9824,5.065,5.1037,5.1847,5.3601,5.4864,5.6287,5.8004,5.896,5.995,6.1134,6.2433,6.335,6.3729,6.5035,6.6143,6.698,6.7817,6.8661,6.9472,6.985,7.0308,7.0805,7.0816,7.1375,7.2293,7.2334,7.2642,7.3176,7.3176,7.3188,7.3188,7.2224,7.188,0.0,0.0,0.0,0.0,0.0,6.8544,6.8613,6.8639,6.8687,6.866,6.8157,6.8018,6.7962,6.7421,6.7676,6.8088,6.8088,6.8474,6.8859,6.8859,6.8876,6.8892,6.8892,6.8913,6.8974,6.8974,6.8994,6.9013,6.9013,6.9013,0.0,6.7718,6.7583,6.7594,6.7594,6.7594,6.7594,6.7594,6.7594,6.7439,6.7091,6.7052,6.6712,6.5879,6.5507,0.0,0.0,0.0,6.1537,6.036,5.8999,0.0,0.0,0.0,5.5489,5.5489,0.0,0.0,0.0,5.1818,5.1711,0.0,0.0,0.0,0.0,0.0,0.0,0.0,0.0,0.0,0.0,0.0,0.0,0.0,0.0,0.0,0.0,5.1585,5.3274,5.5016,5.4199,5.4005,5.5586,5.7076,5.8706,6.0609,6.1526,6.2671,6.4321,6.5196,6.6036,6.6922,0.0,0.0,0.0,0.0,7.1068,7.1841,7.2601,7.3059,7.3136,7.3136,7.3174,7.3289,7.3289,7.3293,7.3363,7.3363,7.3404,7.3487,7.3411,7.338,7.3018,7.0092,6.8968,6.8975,6.9037,6.9066,6.9082,6.914,0.0,0.0,6.9145,6.9184,6.9189,6.912,6.9084,6.9084,6.9084,6.9079,6.9076,6.9076,6.9113,6.9186,6.9186,6.919,6.9193,6.9193,6.9197,6.9202,6.9202,6.9202,6.9216,6.9259,6.9187,6.9101,6.9107,6.9107,6.9107,6.9107,6.9107,6.8799,6.8026,0.0,0.0,6.6703,6.5918,6.5409,6.533,6.3727,6.2083,6.0516,5.9621,5.9116,5.8999,5.8258,5.7869,5.783,5.7129,5.6787,5.6725,5.5161,5.4434,0.0,0.0,0.0,0.0,0.0,0.0,0.0,0.0,0.0,0.0,0.0,0.0,0.0,0.0,0.0,5.1657,5.3325,5.5,5.6687,5.784,5.8661,5.9109,5.9432,6.0578,6.2993,6.3941,6.4855,6.5887,6.6721,6.7592,6.8514,6.9353,7.0268,7.1187,7.2066,7.2597,7.2754,7.2907,7.3323,7.3968,0.0,0.0,7.5013,7.5013,7.5021,7.5034,7.5034,7.5085,7.5084,7.4407,7.3806,7.3248,7.271,7.2507,7.2507,7.2521,7.2569,7.2626,7.2639,7.2685,7.2632,7.1989,7.1781,7.1644,7.1004,7.083,0.0,7.083,7.0835,7.0805,7.0805,7.0813,7.0821,7.0821,7.0893,7.0927,7.0927,7.0959,7.0988,7.0988,7.0988,7.099,7.1,6.9916,6.9028,6.9101,6.9107,6.9107,6.9107,6.9107,6.903,6.8876,6.8218,6.7715,6.7559,6.6749,6.5992,6.533,6.3714,6.2355,6.1373,6.0517,5.9738,5.8999,5.8843,5.8765,5.8765,5.8609,5.8533,5.8498,5.7511,5.706,0.0,0.0,0.0,0.0,0.0,0.0,0.0,0.0,0.0,0.0,0.0,4.7582,4.8451,0.0,5.2684,5.3514,5.5754,5.7691,5.8525,6.0458,6.1485,6.0782,6.1783,6.3053,6.4383,6.5601,6.6899,6.8197,6.8654,6.9475,7.078,7.1279,7.1911,7.276,7.3637,7.4285,7.47,7.517,7.5612,7.5993,7.6085,7.6337,7.6766,7.6766,7.6766,7.6766,7.6766,7.6788,7.6755,7.5914,7.5172,7.4497,7.465,7.4205,7.3507,7.3507,7.3532,7.3567,7.3567,7.3579,7.3565,7.3173,7.3114,7.31,7.2669,7.2584,7.2607,7.2607,7.2607,7.2607,7.2607,7.2297,7.1952,7.1952,7.1625,7.1337,7.1337,7.1397,7.1415,7.1415,7.1415,7.1423,7.145,7.0777,7.0236,7.0346,7.0356,7.0365,7.035,7.0354,7.0197,6.9731,6.9306,6.8725,6.787,6.7032,6.6196,6.536,6.4567,6.3712,6.2871,6.2418,6.1997,6.1568,6.1568,6.1568,6.1568,6.1568,6.1568,6.1529,6.1152,6.0272,0.0,0.0,0.0,0.0,0.0,0.0,0.0,4.4578,4.5526,4.6375,4.8395,5.0138,5.064,5.302,5.5083,5.5765,5.8134,6.0121,6.0761,6.2572,6.3508,6.2601,6.409,6.5445,6.5965,6.7262,6.8749,7.0512,7.0626,7.132,7.2817,7.3045,7.3549,7.4362,7.5238,7.5999,7.6641,7.7413,7.7794,7.7799,7.7902,7.7948,7.7952,7.7971,7.8018,7.8018,7.8018,7.8018,7.7946,7.7367,7.6731,7.6175,7.6277,7.5553,7.4409,7.4115,7.4007,7.4007,7.4007,7.4015,7.4031,7.3891,7.3896,7.3988,7.3807,7.3817,7.3863,7.3863,7.3872,7.388,7.388,7.338,7.2839,7.2839,7.2336,7.1758,7.1604,7.1565,7.1488,7.1333,7.1294,7.1308,7.1353,7.1361,7.1435,7.1575,7.1596,7.1618,7.1581,7.1594,7.1328,7.0626,7.0393,6.9616,6.7948,6.7201,6.6482,6.5593,6.5451,6.5056,6.4367,6.4197,6.4094,6.41,6.41,6.41,6.41,6.41,6.41,6.41,6.4451,6.3331,4.1066,4.1207,4.1631,4.2687,4.3502,4.4339,0.0,4.6647,4.8067,4.8968,4.9969,5.139,5.3642,5.4483,5.579,5.8778,5.9609,6.0951,6.3936,6.4581,6.5229,6.657,6.6266,6.6877,6.9128,6.9512,7.0346,7.202,7.2134,7.259,7.3626,7.4352,7.5189,7.6108,7.6983,7.744,7.7554,7.7645,7.7726,7.7726,7.7794,7.7803,7.7846,7.7939,7.8018,7.8018,7.8018,7.8018,7.798,7.7912,7.786,7.7833,7.7841,7.7832,7.7673,7.6254,7.5707,7.5707,7.5707,7.5714,7.5613,7.4903,7.4665,7.4576,7.3909,7.375,7.3805,7.3805,7.384,7.388,7.388,7.3842,7.3764,7.3764,7.3687,7.3419,7.2607,7.2452,7.2223,7.1449,7.1294,7.1297,7.1302,7.1302,7.1342,7.1485,7.1575,7.1605,7.1611,7.1611,7.1561,7.1444,7.0743,6.9616,6.7948,6.7721,6.731,6.6526,6.5757,6.5283,6.5261,6.4525,6.4112,6.41,6.41,6.41,6.41,6.41,6.41,6.4139,6.5696,6.5426,4.3531,4.3849,4.4114,4.5058,4.5933,4.6832,4.771,4.8818,4.9885,5.0776,5.2027,5.3275,5.4362,5.6207,5.8094,5.9547,6.1035,6.2672,6.4614,6.576,6.6973,6.8645,6.8949,6.9252,6.982,7.0773,7.1834,7.2999,7.3568,7.4232,7.5074,7.5947,7.6574,7.6956,7.7792,7.8209,7.8209,7.877,7.9029,7.9034,7.9139,7.9194,7.9194,7.9338,7.9419,7.9436,7.9436,7.9173,7.8753,7.8753,7.847,7.8047,7.8061,7.8169,7.8096,7.7047,7.6705,7.6669,7.6169,7.6015,7.5941,7.5624,7.5513,7.5516,7.5203,7.5144,7.5208,7.5249,7.5279,7.5306,7.5344,7.4963,7.4612,7.4612,7.4228,7.3806,7.3458,7.338,7.3109,7.2223,7.2065,7.1913,7.1371,7.1294,7.131,7.1394,7.1448,7.1501,7.1596,7.1583,7.1607,7.1598,7.0821,7.0005,6.9306,6.8839,6.8418,6.8085,6.7254,6.6784,6.6868,6.6073,6.5592,6.5618,6.6125,6.6359,6.6359,6.6868,6.7142,6.7142,6.7882,6.7804,4.5366,4.5882,4.6306,4.7231,4.8101,4.9001,4.9954,5.0808,5.1638,5.2415,5.3783,5.4953,5.5408,5.774,5.9745,6.0339,6.2305,6.4202,6.5362,6.6951,6.8565,7.0047,7.1128,7.1673,7.1294,7.217,7.3151,7.4202,7.4884,7.5572,7.6405,7.7282,7.7737,7.7737,7.8533,7.895,7.895,7.987,8.0287,8.0292,8.0668,8.0725,8.0497,8.0379,8.0373,8.0468,8.0468,8.0139,7.9636,7.9636,7.925,7.8676,7.8749,7.875,7.8713,7.8001,7.7696,7.752,7.6866,7.6535,7.6361,7.6361,7.6247,7.6062,7.6062,7.6111,7.6179,7.6231,7.6273,7.6313,7.6362,7.5922,7.5466,7.5466,7.5005,7.4502,7.4267,7.4228,7.3996,7.3109,7.2955,7.2684,7.1797,7.1642,7.1565,7.1333,7.1329,7.1425,7.1513,7.1587,7.1583,7.1596,7.1054,7.0549,7.0314,6.977,6.934,6.9107,6.8517,6.8161,6.8233,6.7688,6.7371,6.7398,6.8032,6.8347,6.8347,6.8973,6.9286,6.9325,6.9559,6.9793,4.6446,4.7095,4.7963,4.889,4.979,5.0687,5.1606,5.2502,5.3332,5.415,5.5005,5.6052,5.7704,5.8809,6.0043,6.1662,6.3408,6.5129,6.6789,6.8544,6.9978,7.0853,7.248,7.3861,7.4662,7.4013,7.424,7.5913,7.6064,7.6443,7.732,7.8116,7.8571,7.8571,7.9405,7.9865,7.9865,8.0661,8.1084,8.1084,8.1995,8.2011,8.1256,8.0535,8.0265,8.0401,8.0401,8.0421,8.0472,8.0472,8.043,8.0434,8.0434,8.0456,8.0423,7.9619,7.8927,7.8345,7.8345,7.7866,7.7253,7.7253,7.6672,7.6018,7.6018,7.6037,7.6101,7.6104,7.6202,7.6301,7.6304,7.6314,7.6362,7.6362,7.6326,7.6091,7.5231,7.5076,7.4844,7.4035,7.3844,7.3574,7.2723,7.2568,7.2258,7.1449,7.1297,7.1318,7.1412,7.1506,7.1583,7.1596,7.1561,7.1211,7.0352,7.0275,6.9925,6.9146,6.9071,6.9051,6.9052,6.9089,6.9125,6.9119,6.9192,6.9247,6.9247,6.9286,6.9286,6.9325,7.0183,7.0962,4.8737,4.9502,5.0294,5.0646,5.1417,5.2338,5.3281,5.4174,5.5043,5.5873,5.6695,5.7591,5.8685,6.0069,6.1394,6.2589,6.4213,6.5726,6.6921,6.8502,7.0075,7.1483,7.2679,7.3947,7.5351,7.5332,7.5723,7.686,7.7472,7.7889,7.8192,7.8988,7.9714,8.0244,8.0547,8.0964,8.1533,8.1836,8.195,8.1955,8.2298,8.2315,8.2087,8.1858,8.1481,8.105,8.1163,8.0912,8.0454,8.0483,8.0506,8.0506,8.0506,8.0529,8.0519,8.0213,8.0022,7.9723,7.8723,7.8246,7.8054,7.8077,7.7557,7.6865,7.6865,7.646,7.6027,7.608,7.6131,7.6189,7.6279,7.6319,7.6347,7.6392,7.6403,7.6326,7.6014,7.5972,7.5701,7.4847,7.469,7.4422,7.361,7.3458,7.338,7.3071,7.2098,7.1355,7.1412,7.1504,7.1609,7.1588,7.1581,7.1483,7.1172,7.1172,7.1056,7.0782,7.0236,6.9904,6.9946,6.9414,6.9138,6.9194,6.9791,7.0122,7.0144,7.0689,7.0961,7.0962,7.1857,7.2403,5.0409,5.1189,5.1848,5.1901,5.2866,5.3944,5.459,5.5428,5.6319,5.7145,5.7746,5.8455,5.9548,6.0867,6.2098,6.3025,6.4807,6.63,6.6925,6.8924,7.0754,7.1858,7.3285,7.474,7.6104,7.6614,7.7074,7.7647,7.822,7.8772,7.9378,7.999,8.0699,8.1533,8.1571,8.1836,8.2372,8.2676,8.2973,8.3277,8.2979,8.2866,8.2895,8.2597,8.2239,8.1813,8.1885,8.1504,8.0821,8.0884,8.074,8.0506,8.0506,8.0506,8.0506,8.0506,8.0548,8.0429,7.9506,7.9022,7.8852,7.8915,7.8381,7.7715,7.7715,7.7134,7.6487,7.6503,7.6304,7.6118,7.6208,7.6266,7.6313,7.6356,7.6386,7.6403,7.6403,7.6403,7.6246,7.5662,7.5544,7.5311,7.446,7.4074,7.388,7.388,7.2985,7.2205,7.1913,7.1952,7.1892,7.1639,7.1609,7.16,7.16,7.16,7.16,7.16,7.1054,7.0794,7.0821,7.0329,7.0047,7.0094,7.0666,7.1158,7.1491,7.2007,7.2403,7.2753,7.3297,7.3726,5.1454,5.208,5.274,5.28,5.4088,5.5384,5.5596,5.6295,5.7183,5.8004,5.8155,5.868,6.0337,6.128,6.2111,6.3008,6.5191,6.6816,6.6816,6.9724,7.1896,7.1896,7.4179,7.6088,7.6885,7.7704,7.8226,7.8302,7.8421,7.9218,8.0812,8.1033,8.1554,8.2426,8.2431,8.2475,8.2513,8.3277,8.4073,8.4895,8.4073,8.3661,8.3623,8.2865,8.2542,8.257,8.2575,8.2203,8.1635,8.164,8.1251,8.0616,8.0582,8.0582,8.0549,8.0511,8.0506,8.052,8.0573,8.023,7.9762,7.9766,7.9215,7.8561,7.8561,7.7984,7.7365,7.7326,7.6765,7.6167,7.6094,7.6195,7.6291,7.6301,7.635,7.6397,7.64,7.6403,7.6403,7.6403,7.6403,7.613,7.5309,7.4538,7.4035,7.4035,7.4035,7.3707,7.2871,7.2768,7.2471,7.1787,7.1722,7.1714,7.1716,7.1716,7.1716,7.1716,7.1716,7.1716,7.1716,7.1793,7.1814,7.1816,7.1889,7.2315,7.3175,7.3166,7.3608,7.4388,7.4466,7.4895,5.2303,5.3306,5.4388,5.4412,5.528,5.6322,5.7033,5.7422,5.7917,5.8821,5.899,5.9515,6.1205,6.1661,6.2261,6.3764,6.5571,6.6816,6.6816,6.9649,7.1758,7.1758,7.3971,7.5837,7.662,7.7485,7.8506,7.9747,8.0015,8.0284,8.0743,8.1382,8.2161,8.296,8.3087,8.3474,8.4123,8.4438,8.4668,8.4895,8.4668,8.4554,8.4554,8.437,8.3932,8.3327,8.3416,8.2993,8.2297,8.2495,8.2466,8.2229,8.1695,8.1461,8.1385,8.0735,8.0506,8.0511,8.0538,8.0517,8.0532,8.0594,8.0099,7.9477,7.9477,7.8865,7.8061,7.748,7.7149,7.687,7.6272,7.6121,7.6179,7.6279,7.6313,7.6341,7.6392,7.6403,7.6403,7.6403,7.6403,7.6326,7.613,7.5897,7.5743,7.5743,7.5743,7.5246,7.3787,7.3601,7.354,7.3404,7.3417,7.346,7.3538,7.354,7.354,7.354,7.354,7.354,7.354,7.3551,7.3571,7.3562,7.3583,7.374,7.4066,7.4074,7.4169,7.4427,7.5051,7.548,5.3566,5.4309,5.5085,5.5456,5.6246,5.7061,5.7667,5.8137,5.8644,5.9197,5.929,5.9703,6.1017,6.1548,6.2224,6.3576,6.5496,6.6816,6.6816,6.9616,7.1708,7.1708,7.4191,7.6112,7.6594,7.7727,7.8972,8.0293,8.0547,8.092,8.1668,8.2218,8.2896,8.3726,8.3837,8.4167,8.4675,8.4778,8.4843,8.4895,8.4895,8.4895,8.4895,8.4895,8.463,8.4186,8.4254,8.3817,8.308,8.3246,8.3122,8.2871,8.2434,8.2297,8.2225,8.1385,8.1079,8.1003,8.0621,8.0607,8.0749,8.0839,8.0619,8.0272,8.0346,7.9746,7.8977,7.8515,7.7865,7.7184,7.6727,7.6377,7.6125,7.6231,7.6279,7.6319,7.6389,7.6403,7.6403,7.6403,7.6403,7.6403,7.6403,7.6403,7.6403,7.6403,7.6403,7.6052,7.5121,7.4707,7.4338,7.4046,7.4056,7.4146,7.4196,7.42,7.42,7.42,7.42,7.42,7.42,7.42,7.4211,7.4195,7.4213,7.4439,7.4874,7.4891,7.5113,7.5496,7.6003,7.6244,5.4825,5.5159,5.5498,5.6283,5.7129,5.7782,5.7909,5.8571,5.9196,5.9253,5.9281,5.9553,6.0449,6.1243,6.2074,6.297,6.5196,6.6816,6.6816,6.9616,7.1708,7.1708,7.4599,7.6632,7.6675,7.8253,7.9642,8.0481,8.0693,8.1432,8.29,8.3194,8.3683,8.4462,8.4462,8.4524,8.4689,8.4707,8.4766,8.4872,8.4883,8.4895,8.4895,8.4895,8.4895,8.4895,8.4895,8.4541,8.3959,8.3975,8.3649,8.3189,8.3089,8.3126,8.3076,8.2264,8.1877,8.1686,8.0926,8.0638,8.0609,8.0745,8.0843,8.09,8.1053,8.0542,7.9935,7.9815,7.8746,7.7596,7.7365,7.6762,7.6251,7.6204,7.6238,7.6307,7.6377,7.6397,7.6403,7.6403,7.6403,7.6403,7.6403,7.6403,7.6403,7.6403,7.6403,7.6403,7.6403,7.5788,7.5105,7.4423,7.4395,7.4447,7.4537,7.4546,7.4511,7.4511,7.4511,7.4511,7.4511,7.4511,7.4511,7.4511,7.4545,7.4917,7.5663,7.5741,7.6167,7.69,7.69,7.6917,5.4973,5.6018,5.7095,5.7244,5.7923,5.8527,5.8676,5.8865,5.909,5.9191,5.9276,5.9553,6.0449,6.1243,6.2074,6.297,6.5196,6.6816,6.6816,6.9616,7.1708,7.1708,7.4642,7.6675,7.6713,7.8822,8.0518,8.1332,8.202,8.2515,8.2822,8.353,8.4046,8.4349,8.4312,8.4381,8.4524,8.4627,8.4725,8.4748,8.4843,8.4895,8.4895,8.4895,8.4895,8.4895,8.4895,0.0,8.4708,8.4777,8.4785,8.4756,8.4121,8.3961,8.3988,8.3109,8.2378,8.1762,8.1614,8.1127,8.0509,8.0609,8.0754,8.0892,8.0943,8.0922,8.0708,8.0012,7.9588,7.905,7.7673,7.7184,7.6943,7.629,7.6165,7.6234,7.6304,7.6365,7.6403,7.6403,7.6403,7.6403,7.6403,7.6403,7.6403,7.6403,7.6403,7.6403,7.6403,7.6296,7.6167,7.6068,7.6126,7.6182,7.6276,7.6274,7.6255,7.6255,7.6255,7.6255,7.6255,7.6255,7.6255,7.6255,7.6264,7.6365,7.656,7.6605,7.671,7.6905,7.6905,7.6908,5.5424,5.6278,5.7095,5.7913,5.8396,5.8756,5.8864,5.8947,5.9029,5.9167,5.9262,5.944,5.9853,6.0942,6.1923,6.2374,6.4895,6.6816,6.6816,6.9616,7.1708,7.1708,7.4642,7.6632,7.6632,7.8935,8.0743,8.1557,8.2333,8.3008,8.3465,8.3885,8.4143,8.4208,8.4208,8.4279,8.4375,8.4481,8.458,8.4713,8.4772,8.4831,8.4895,8.4895,8.4895,8.4895,8.4895,8.4895,8.4901,8.492,8.5016,8.5062,8.4789,8.4757,8.4792,8.3968,8.3415,8.3028,8.2574,8.1881,8.1165,8.1212,8.105,8.0864,8.0876,8.0987,8.1016,8.0592,8.0165,7.9627,7.8823,7.825,7.7733,7.6959,7.6519,7.6269,7.6341,7.638,7.6403,7.6403,7.6403,7.6403,7.6403,7.6403,7.6403,7.6403,7.6403,7.6403,7.6403,7.6403,7.6424,7.648,7.6578,7.6635,7.6691,7.6697,7.6682,7.6682,7.6682,7.6682,7.6682,7.6682,7.6682,7.6682,7.6682,7.6734,7.6756,7.6756,7.6781,7.6864,7.7291,7.7536,5.5647,5.6167,5.6612,5.7875,5.821,5.8193,5.8317,5.841,5.8528,5.8615,5.8873,5.9023,5.9023,6.0417,6.1586,6.1773,6.4444,6.6585,6.6778,6.9616,7.1708,7.1708,7.4599,7.6632,7.6632,7.9085,8.0925,8.1557,8.2527,8.339,8.4079,8.4117,8.4117,8.4117,8.4117,8.4163,8.4273,8.4298,8.4425,8.4591,8.4689,8.4766,8.4854,8.4883,8.4895,8.4895,8.4895,8.4895,8.4895,8.4895,8.4932,8.5017,8.5133,8.5288,8.5332,8.4784,8.4441,8.4217,8.3529,8.2727,8.2034,8.1843,8.1309,8.0779,8.0834,8.0959,8.1069,8.1089,8.0592,8.005,7.9858,7.9285,7.8576,7.7837,7.7227,7.6839,7.6906,7.6933,7.6942,7.6942,7.6942,7.6942,7.6942,7.6942,7.6942,7.6942,7.6942,7.6942,7.6942,7.6942,7.696,7.7041,7.6764,7.663,7.6674,7.669,7.6682,7.6682,7.6682,7.6682,7.6682,7.6682,7.6682,7.6682,7.6682,7.6799,7.6995,7.6995,7.7093,7.7362,7.8025,7.8352,5.5089,5.5684,5.6357,5.6464,5.6506,5.6506,5.6553,5.6679,5.6823,5.6832,5.758,5.823,5.823,5.9586,6.0938,6.1698,6.3946,6.5899,6.6703,6.9616,7.1708,7.1708,7.4642,7.6675,7.6675,7.9604,8.1519,8.1594,8.3096,8.4035,8.4117,8.4117,8.4117,8.4117,8.4117,8.4123,8.413,8.4253,8.4324,8.4356,8.4598,8.4719,8.4737,8.4843,8.4895,8.4895,8.4895,8.4895,0.0,8.4895,8.4932,8.5017,8.5133,8.5288,8.5408,8.5395,8.4938,8.4293,8.4217,8.3606,8.2765,8.2034,8.1264,8.0645,8.0779,8.0868,8.0955,8.1073,8.1054,8.0785,8.0012,7.9742,7.9492,7.8685,7.8497,7.8502,7.8651,7.8714,7.8757,7.8757,7.8757,7.8757,7.8757,7.8757,7.8757,7.8757,7.8757,7.8757,7.8757,7.8757,7.876,7.8766,7.7476,7.6615,7.662,7.6671,7.6682,7.6682,7.6682,7.6682,7.6682,7.6682,7.6682,7.6682,7.6682,7.7073,7.7891,7.7891,7.8282,7.9066,7.9143,7.9184,5.4862,5.5233,5.5647,5.6167,5.632,5.632,5.632,5.6445,5.6594,5.6594,5.7384,5.8117,5.8117,5.9469,6.0862,6.1661,6.3871,6.5786,6.6665,6.9616,7.1708,7.1708,7.4599,7.6669,7.6713,7.9679,8.2007,8.3021,8.3704,8.4298,8.4779,8.4373,8.4335,8.4817,8.4817,8.5049,8.5537,8.559,8.5656,8.5735,8.5844,8.5725,8.5437,8.5485,8.528,8.4895,8.4895,8.4895,0.0,8.4895,8.4924,8.4943,8.5028,8.5143,8.5299,8.5413,8.5265,8.5015,8.5015,8.448,8.372,8.341,8.2407,8.1244,8.0903,8.0856,8.0943,8.1069,8.1093,8.1016,8.0669,8.0204,7.9723,7.9459,7.9033,7.8723,7.8873,7.8943,7.8989,7.8989,7.8989,7.8989,7.8989,7.8989,7.8989,7.8989,7.8989,7.8989,7.8989,7.8989,7.8989,7.8989,7.8449,7.8048,7.8083,7.8154,7.8209,7.8277,7.8241,7.8241,7.8241,7.8241,7.8241,7.8241,7.8241,7.8435,7.8787,7.8787,7.8942,7.9294,7.9834,8.0067,5.4416,5.4644,5.4787,5.5424,5.5577,5.5577,5.5577,5.5705,5.5851,5.5851,5.6864,5.7746,5.7746,5.9098,6.0567,6.1623,6.3688,6.5528,6.6623,6.9616,7.1783,7.2014,7.4755,7.682,7.7351,8.0168,8.2571,8.4004,8.4117,8.4448,8.5261,8.4742,8.4824,8.5643,8.5643,8.5943,8.6476,8.6513,8.6561,8.6654,8.6694,8.6516,8.6147,8.5968,8.5631,8.5184,8.4991,8.4895,0.0,8.4895,8.4895,8.4906,8.4956,8.5078,8.5224,8.5351,8.5421,8.5506,8.5506,8.5124,8.4632,8.437,8.3338,8.2034,8.1345,8.1027,8.091,8.1061,8.1093,8.1093,8.1093,8.0631,8.0219,8.0238,7.9863,7.9488,7.9577,7.9662,7.9721,7.9721,7.9721,7.9721,7.9721,7.9721,7.9721,7.9721,7.9721,7.9721,7.9721,7.9721,7.9721,7.9721,7.9725,7.9551,7.9127,7.9148,7.9238,7.929,7.9294,7.9294,7.9294,7.9294,7.9294,7.9294,7.9294,7.9447,7.968,7.968,7.9836,8.0069,8.0688,8.0997,5.3604,5.3826,5.3826,5.3826,5.3826,5.3826,5.3826,5.3991,5.4137,5.4137,5.5599,5.6891,5.6891,5.8239,5.9853,6.151,6.32,6.4895,6.6553,6.9616,7.2014,7.2808,7.5093,7.727,7.8922,8.1319,8.3158,8.4042,8.4117,8.4448,8.5261,8.5298,8.5643,8.6476,8.6476,8.6476,8.6513,8.6513,8.6513,8.652,8.6654,8.6713,8.6689,8.614,8.5891,8.5859,8.5184,8.4895,0.0,8.4895,8.4895,8.4906,8.4956,8.5078,8.5224,8.5351,8.5421,8.5506,8.5506,8.5506,8.5354,8.4561,8.3682,8.2841,8.2183,8.144,8.0831,8.1045,8.1093,8.1093,8.1093,8.1093,8.1093,8.1093,8.1176,8.1288,8.1288,8.1365,8.1459,8.1459,8.1459,8.1459,8.1459,8.1459,8.1459,8.1459,8.1459,8.1459,8.1459,8.1459,8.1459,8.1459,8.1459,8.0817,7.924,7.9148,7.9238,7.929,7.9294,7.9294,7.9294,7.9294,7.9294,7.9294,7.9294,7.9719,8.0608,8.0608,8.1035,8.1854,8.1892,8.1892,5.2898,5.3381,5.3789,5.3789,5.3789,5.3808,5.3921,5.4004,5.4118,5.4218,5.5677,5.6891,5.6891,5.8689,6.0525,6.1623,6.3683,6.5528,6.6623,6.9616,7.2014,7.2808,7.6112,7.896,8.0656,8.2032,8.3165,8.4042,8.4598,8.5268,8.61,8.6694,8.7145,8.737,8.7377,8.764,8.8203,8.821,8.821,8.821,8.8251,8.8019,8.7592,8.7511,8.6889,8.5897,8.579,8.5425,8.4895,8.4895,8.4895,8.4901,8.4903,8.5039,8.5219,8.5257,8.5349,8.5506,8.5506,8.5506,8.5468,8.5201,8.4556,8.3744,8.303,8.1852,8.0831,8.1045,8.1093,8.1093,8.1093,8.1093,8.1093,8.1093,8.1214,8.1288,8.1288,8.14,8.1497,8.1497,8.1497,8.1497,8.1497,8.1497,8.1497,8.1497,8.1497,8.1497,8.1497,8.1497,8.1497,8.1497,8.1497,8.132,8.0907,8.0896,8.0948,8.1072,8.1079,8.1079,8.1079,8.1079,8.1079,8.1079,8.1079,8.1193,8.1504,8.1504,8.1621,8.1892,8.1892,8.1892,5.2048,5.2717,5.3343,5.3343,5.36,5.3907,5.3972,5.4092,5.4204,5.4295,5.5695,5.6891,5.6891,5.8915,6.0862,6.1661,6.3871,6.5894,6.7106,6.9804,7.2346,7.4079,7.7689,8.0468,8.1482,8.2639,8.3503,8.4079,8.4855,8.5643,8.6476,8.7339,8.7933,8.8241,8.8241,8.8503,8.8999,8.8999,8.8999,8.8999,8.8999,8.8784,8.8384,8.8269,8.75,8.6278,8.6145,8.5647,0.0,8.4895,8.4895,8.4895,8.4895,8.5005,8.5214,8.5214,8.5318,8.5506,8.5506,8.5506,8.5506,8.5506,8.4963,8.4213,8.3474,8.2113,8.0873,8.1053,8.1093,8.1093,8.1093,8.1093,8.1093,8.1093,8.1192,8.1252,8.1281,8.138,8.1585,8.1923,8.2003,8.2081,8.2429,8.2467,8.2467,8.2467,8.2467,8.2467,8.2467,8.2467,8.2467,8.2467,8.2467,8.2523,8.2616,8.2045,8.1742,8.1888,8.1892,8.1892,8.1892,8.1892,8.1892,8.1892,8.1892,8.1892,8.1892,8.1892,8.1892,8.1892,8.1892,8.1892,0.0,5.1871,5.2536,5.2577,5.3251,5.3926,5.401,5.4184,0.0,5.4312,5.5704,5.6891,5.6891,5.8952,6.0938,6.1736,6.3984,6.6194,6.7851,7.0324,7.3134,7.6219,7.9561,8.1594,8.1594,8.314,8.4117,8.4117,8.4892,8.5718,8.6476,8.737,8.8241,8.8999,8.8999,8.8999,8.8999,8.8999,8.8999,8.8999,8.8999,8.8999,8.8968,8.8494,8.7788,0.0,8.6412,8.5691,8.4895,8.4895,8.4895,8.4895,8.4895,8.5005,8.5214,8.5214,8.5318,8.5506,8.5506,8.5506,8.5506,8.5506,8.4997,8.4255,8.3594,8.2271,8.1019,8.1146,8.1131,8.1093,8.1093,8.1131,8.1208,8.1208,8.127,8.1387,8.1463,8.154,8.1842,8.2732,8.2902,8.3135,8.3944,8.4098,8.4098,8.4098,8.4098,8.4098,8.4098,8.4098,8.4098,8.4098,8.4098,8.4117,8.4205,8.2779,8.1897,8.1965,8.197,8.197,8.1892,8.1892,8.1892,8.1892,8.1892,8.1892,8.1892,8.1892,8.1892,8.1892,8.1892,8.1892,4.9567,0.0,5.1925,5.253,5.2905,5.3363,0.0,5.4273,5.4326,5.4362,5.571,5.6891,5.6891,5.9445,6.1768,6.259,6.4853,6.7068,6.8704,7.2164,7.5061,7.6444,7.9561,8.1594,8.1594,8.314,8.4117,8.4117,8.5424,8.6288,8.6476,8.7903,8.8804,8.8999,8.8999,8.8999,8.8999,8.8999,8.8999,8.8999,8.8999,8.8999,8.9006,8.9096,8.8323,8.6908,8.7023,8.6259,8.4895,8.4895,8.4895,8.4895,8.4895,8.5005,8.5214,8.5214,8.5318,8.5506,8.5506,8.5506,8.5506,8.5506,8.4953,8.4323,8.43,8.3188,8.1899,8.1992,8.1554,8.1093,8.1093,8.1554,8.202,8.202,8.2582,8.3125,8.3199,8.3273,8.3426,8.3734,8.3789,8.3866,8.406,8.4098,8.4098,8.4098,8.4098,8.4098,8.4098,8.4098,8.4098,8.4098,8.4098,8.4117,8.4205,8.3826,8.3374,8.2861,8.2827,8.2555,8.1931,8.1892,8.1892,8.1892,8.1892,8.1892,8.1892,8.1892,8.1892,8.1892,8.1892,8.1892,4.9027,5.0021,5.1146,5.1986,5.2551,5.3194,5.4103,5.4339,5.4457,5.488,5.5986,5.7117,5.7868,6.0083,6.2186,6.3383,6.5383,6.7749,7.0512,7.3859,7.6413,7.7608,8.0017,8.1745,8.2114,8.3322,8.426,8.4636,8.58,8.6664,8.7077,8.8316,8.8999,8.8999,8.8999,8.8999,8.8999,8.8999,8.8999,8.8999,8.8999,8.8999,8.9006,8.8908,8.8128,8.6908,8.6834,8.607,8.4895,8.4895,8.4895,8.4895,8.4895,8.4971,8.5105,8.5192,8.5325,8.5446,8.5491,8.5506,8.5506,8.5506,8.5201,8.4901,8.5095,8.427,8.3227,8.298,8.2597,8.2251,8.2251,8.2558,8.2905,8.2905,8.3287,8.3699,8.377,8.3828,8.4003,8.454,8.4637,8.4792,8.5178,8.5256,8.5256,8.5256,8.5256,8.5256,8.5256,8.5256,8.5256,8.5256,8.5256,8.5262,8.5325,8.5399,8.492,8.375,8.3718,8.3485,8.3058,8.3058,8.3058,8.3058,8.3058,8.2864,8.2439,8.2439,8.2244,8.1892,8.2283,8.2439,4.8977,4.9687,5.0382,5.1397,5.2239,5.3089,5.4101,5.4461,5.478,5.5447,5.6507,5.768,5.9065,6.0872,6.2675,6.4214,6.621,6.8838,7.2583,7.5173,7.7276,7.8922,8.0581,8.1926,8.2708,8.3585,8.4448,8.5223,8.6056,8.6889,8.7746,8.8541,8.8999,8.8999,8.8999,8.8999,8.8999,8.8999,8.8999,8.8999,8.8999,8.8923,8.8818,8.8381,8.7675,8.6682,8.6298,0.0,8.4895,8.4895,8.4895,8.4895,8.4895,8.4937,8.5023,8.5133,8.5288,8.5408,8.5471,8.5506,8.5506,8.5506,8.5506,8.5546,8.5751,8.5312,8.4658,8.4121,8.3793,8.3601,8.3601,8.3717,8.3789,8.3789,8.3905,8.4026,8.4187,8.4181,8.446,8.5342,8.5485,8.5717,8.6452,8.6606,8.6606,8.6606,8.6606,8.6606,8.6606,8.6606,8.6606,8.6606,8.6606,8.6636,8.6706,8.677,8.6231,8.4862,8.4682,8.4532,8.4415,8.4415,8.4415,8.4415,8.4415,8.4029,8.3293,8.3293,8.2944,8.2281,8.2983,8.3293,4.9062,4.9374,4.9815,5.137,5.1924,5.2469,5.405,5.4917,5.5447,5.556,5.7366,5.8994,5.9253,6.1811,6.4214,6.5148,6.8484,7.1676,7.3703,7.5506,7.7233,7.8885,8.0581,8.1926,8.2708,8.3585,8.4448,8.5223,8.6056,8.6889,8.7746,8.8541,8.8999,8.8999,8.8999,8.8999,8.8999,8.8999,8.8999,8.8999,8.8999,8.8654,8.7985,8.811,8.7335,8.5883,0.0,8.5647,8.4895,8.4895,8.4895,8.4895,8.4895,8.4937,8.5023,8.5133,8.5288,8.5408,8.5471,8.5506,8.5506,8.5506,8.5506,8.5546,8.5751,8.5696,8.5622,8.5697,8.4674,8.3601,8.3601,8.4132,8.4705,8.4705,8.5205,8.5754,8.5961,8.5994,8.6081,8.6347,8.6413,8.6452,8.6568,8.6606,8.6606,8.6606,8.6606,8.6606,8.6606,8.6606,8.6606,8.6606,8.6606,8.6636,8.6706,8.677,8.6718,8.6518,8.5869,8.5156,8.4415,8.4415,8.4415,8.4415,8.4415,8.4338,8.4182,8.4182,8.4143,8.4027,8.4143,8.4182,4.9033,4.9735,5.0339,5.1536,5.1864,0.0,0.0,0.0,5.586,5.6761,5.8197,5.9591,6.0496,6.2637,6.5003,6.7165,7.0212,7.2915,7.461,7.6262,7.8102,8.0199,8.1144,8.212,8.339,8.3847,8.4598,8.5875,8.6288,8.7077,8.8391,8.8804,8.8999,8.8999,8.8999,8.8999,8.8999,8.8579,8.8579,8.8999,8.8541,8.8166,8.779,8.7131,8.643,8.5694,0.0,8.523,8.4895,8.4895,8.4895,8.4895,8.4895,8.4929,8.4966,8.5149,8.5325,8.5446,8.5491,8.5506,8.5506,8.5506,8.5506,8.5546,8.5751,8.5811,8.5852,8.6039,8.5555,8.4939,8.4939,8.5247,8.5551,8.5551,8.582,8.6177,8.6346,8.638,8.6428,8.6576,8.6606,8.6606,8.6606,8.6606,8.6761,8.7222,8.7299,8.7299,8.7299,8.7299,8.7109,8.6645,8.6606,8.662,8.6655,8.6749,8.6846,8.6941,8.6622,8.6207,8.5816,8.5816,8.5816,8.5816,8.5816,8.5583,8.5117,8.5117,8.4843,8.4415,8.4881,8.5117,4.902,5.0095,5.0887,5.1705,0.0,0.0,0.0,0.0,0.0,0.0,5.9173,6.0384,6.2074,6.4064,6.6387,6.9305,7.1713,7.3784,7.5436,7.7132,7.9047,8.1332,8.1776,8.2458,8.3967,8.4117,8.4673,8.61,8.6401,8.7152,8.8654,8.8886,8.8999,8.8999,8.8811,8.8729,8.8729,8.7903,8.7903,8.8691,8.7903,8.7408,8.7189,8.6158,8.5606,8.5399,8.5049,8.4895,8.4895,8.4895,8.4895,8.4895,8.4895,8.4929,8.5004,8.5149,8.5318,8.5506,8.5506,8.5506,8.5506,8.5506,8.5506,8.5546,8.5751,8.5811,8.5852,8.6039,8.6089,8.6089,8.6089,8.6089,8.6089,8.6089,8.6089,8.6177,8.6346,8.6538,8.6737,8.6885,8.707,8.7225,8.7225,8.7225,8.7457,8.8115,8.8192,8.8192,8.8192,8.8192,8.796,8.7264,8.7225,8.7203,8.7233,8.7137,8.717,8.7287,8.7103,8.6987,8.6987,8.6987,8.6987,8.6987,8.6987,8.6673,8.6013,8.6013,8.5661,8.5037,8.57,8.6013,4.9035,5.0095,5.0887,5.1705,5.2498,0.0,5.5226,5.6244,0.0,5.8877,0.0,0.0,6.3806,6.672,6.9412,7.122,7.2984,7.468,7.6288,7.7946,7.9679,8.1407,8.2264,8.3083,8.3998,8.4117,8.4448,8.5305,8.61,8.6926,8.7821,8.8579,8.8999,8.8999,8.8278,8.7896,8.7896,8.7039,8.7039,8.7896,8.7001,8.6213,8.55,8.563,8.5273,8.4618,8.4828,8.4895,8.4895,8.4895,8.4895,8.4895,8.4895,8.4994,8.5187,8.5203,8.5318,8.5506,8.5506,8.5506,8.5506,8.5506,8.5506,8.5546,8.5751,8.5811,8.5852,8.6039,8.6089,8.6089,8.6089,8.6089,8.6089,8.6089,8.6089,8.6177,8.6346,8.6997,8.7583,8.7775,8.8466,8.9011,8.9011,8.9011,8.9011,8.9089,8.9127,8.9127,8.9127,8.9127,8.9089,8.9011,8.9011,8.9026,8.9108,8.8431,8.8066,8.8217,8.745,8.6987,8.6987,8.6987,8.6987,8.6987,8.6987,8.6987,8.6909,8.6909,8.687,8.6792,8.687,8.6909,4.9035,5.0466,5.1518,5.1814,5.3316,0.0,0.0,5.745,5.8727,5.9886,6.1848,0.0,0.0,6.8366,7.0088,7.2802,7.4197,7.5511,7.7164,7.8859,8.0324,8.1482,8.2295,8.3121,8.4035,8.4117,8.4448,8.5223,8.5568,8.6131,8.6964,8.7264,8.7459,8.7459,8.7152,8.7001,8.7001,8.6169,8.5906,8.6244,8.5906,8.5652,8.5413,8.5116,8.4832,8.4615,8.4819,8.4895,8.4895,8.4895,8.4895,8.4895,8.4895,8.5005,8.5214,8.5214,8.5318,8.5506,8.5506,8.5506,8.5506,8.5506,8.5506,8.5546,8.5751,8.5811,8.5852,8.6039,8.6089,8.6089,8.6089,8.6089,8.6089,8.6089,8.6517,8.6951,8.7118,8.7808,8.8474,8.8671,8.8973,8.9205,8.9205,8.9205,8.9359,8.9862,8.994,8.994,8.994,8.994,8.9746,8.9243,8.9205,8.9223,8.9275,8.9016,8.8916,8.9033,8.7761,8.6987,8.6987,8.6987,8.6987,8.6987,8.6987,8.6987,8.6987,8.6987,8.6987,8.6987,8.6987,8.6987,4.934,5.0879,5.2039,5.2565,0.0,0.0,5.7413,5.8502,5.9778,6.143,6.3721,6.6242,6.8742,6.9637,7.0919,7.3741,7.5098,7.6306,7.7695,7.9573,8.0962,8.1519,8.2564,8.3428,8.4035,8.4117,8.4335,8.4892,8.5155,8.553,8.6094,8.6363,8.6513,8.6513,8.6251,8.6131,8.6131,8.5305,8.493,8.493,8.4976,8.5048,8.5114,8.4689,8.456,8.4725,8.4843,8.4895,8.4895,8.4895,8.4895,8.4895,8.4895,8.5005,8.5214,8.5214,8.5318,8.5506,8.5506,8.5506,8.5506,8.5506,8.5506,8.5546,8.5751,8.5811,8.5852,8.6039,8.6282,8.6517,8.6517,8.6517,8.6517,8.6517,8.7171,8.7836,8.7966,8.8695,8.9362,8.9525,8.9785,8.9978,8.9978,8.9978,9.0172,9.0749,9.0826,9.0826,9.0826,9.0826,9.0594,9.0056,8.9978,9.0036,9.0128,8.9869,8.977,8.989,8.8577,8.7683,8.7411,8.7411,8.7295,8.7025,8.6987,8.6987,8.6987,8.6987,8.6987,8.6987,8.6987,8.6987,5.0023,5.1292,5.2302,5.3996,0.0,0.0,5.8952,5.9328,6.0271,6.3618,6.628,6.8259,6.9074,7.0581,7.2271,7.3966,7.5618,7.7013,7.7808,8.0061,8.1594,8.1594,8.3096,8.4117,8.4117,8.4117,8.4117,8.4117,8.4855,8.5298,8.5298,8.6056,8.6476,8.6476,8.5718,8.5298,8.5298,8.4486,8.4117,8.4117,8.4253,8.4311,8.4317,8.4425,8.4598,8.4725,8.4843,8.4895,8.4895,8.4895,8.4895,8.4895,8.4895,8.5005,8.5214,8.5214,8.5318,8.5506,8.5506,8.5506,8.5506,8.5506,8.5506,8.5546,8.5751,8.5811,8.5852,8.6039,8.6748,8.7406,8.7406,8.7406,8.7406,8.7406,8.806,8.8764,8.8892,8.9582,9.025,9.0373,9.1097,9.1716,9.1716,9.1716,9.1716,9.1716,9.1716,9.1716,9.1716,9.1716,9.1716,9.1716,9.1716,9.1736,9.1875,9.1112,9.0668,9.0786,9.0014,8.9157,8.8339,8.83,8.7914,8.7025,8.7025,8.7025,8.7025,8.7025,8.7025,8.6987,8.6987,8.6987,5.0023,5.1292,5.2302,5.3996,5.5652,5.7492,5.9703,6.0642,0.0,0.0,6.7551,6.9267,7.0694,7.2346,7.4004,7.5693,7.6863,7.8033,7.9467,8.0775,8.182,8.237,8.3434,8.4117,8.4117,8.4117,8.4117,8.4117,8.4335,8.4448,8.4448,8.4673,8.4824,8.4824,8.4561,8.4448,8.4448,8.4223,8.4117,8.4117,8.4253,8.4368,8.4431,8.456,8.4725,8.4843,8.4878,8.4895,8.4895,8.4895,8.4895,8.4901,8.4954,8.5045,8.5224,8.5309,8.5429,8.5506,8.5506,8.5506,8.5506,8.5506,8.5506,8.5546,8.5751,8.6237,8.6743,8.6966,8.7637,8.8291,8.8291,8.8748,8.9013,8.8444,8.894,8.9603,8.9779,9.047,9.1099,9.1297,9.1522,9.1716,9.1716,9.1716,9.1716,9.1716,9.1716,9.1716,9.1716,9.1716,9.1716,9.1716,9.1716,9.1736,9.1875,9.1655,9.1554,9.1713,9.1488,9.0672,8.9196,8.9157,8.9002,8.8771,8.8771,8.8497,8.7914,8.7914,8.7606,8.6987,8.6987,8.6987,5.0433,5.1518,5.2452,5.4822,5.6399,5.8201,6.1355,6.2975,6.4552,6.7218,6.8785,7.0212,7.1864,7.329,7.4755,7.6407,7.7357,7.849,8.0143,8.1075,8.1888,8.2708,8.3578,8.4117,8.4117,8.4117,8.4117,8.4117,8.4117,8.4117,8.4117,8.4117,8.4117,8.4117,8.4117,8.4117,8.4117,8.4117,8.4143,8.4195,8.4337,8.4431,8.4566,8.4645,8.4778,8.4895,8.4895,8.4895,8.4895,8.4895,8.4895,8.4906,8.4956,8.5078,8.5224,8.5351,8.5421,8.5506,8.5506,8.5506,8.5506,8.5506,8.5506,8.5584,8.6139,8.6659,8.7203,8.7778,8.8517,8.9171,8.9171,8.9782,9.0205,8.9363,8.9821,9.0445,9.0627,9.1048,9.1446,9.1645,9.1716,9.1716,9.1716,9.1716,9.1716,9.1716,9.1716,9.1716,9.1716,9.1716,9.1716,9.1716,9.1716,9.1736,9.1875,9.1885,9.1942,9.2099,9.2107,9.1641,9.0595,9.0206,8.9859,8.9507,8.9507,8.9274,8.8769,8.8769,8.8497,8.7994,8.7683,8.7528,5.1021,5.1889,5.2719,5.6074,5.7685,5.9487,6.3516,6.5656,6.7261,6.8854,6.9949,7.1086,7.262,7.3747,7.4905,7.6369,7.7389,7.8603,8.0255,8.115,8.1926,8.2821,8.3616,8.4117,8.4117,8.4117,8.4117,8.4117,8.4117,8.4117,8.4117,8.4117,8.4117,8.4117,8.4117,8.4117,8.4117,8.4117,8.4182,8.4317,8.4425,8.456,8.4713,8.4725,8.479,8.4895,8.4895,8.4895,8.4895,8.4895,8.4895,8.4906,8.5011,8.5084,8.523,8.5362,8.5464,8.5506,8.5506,8.5506,8.5506,8.5583,8.5621,8.5813,8.6872,8.7277,8.751,8.8547,8.9402,9.0009,9.0009,9.0629,9.1013,9.0201,9.0629,9.1258,9.136,9.1396,9.1446,9.1645,9.1716,9.1716,9.1716,9.1716,9.1716,9.1716,9.1716,9.1716,9.1716,9.1716,9.1716,9.1716,9.1719,9.1742,9.1875,9.1891,9.1948,9.2102,9.2107,9.2107,9.2107,9.1335,9.0558,8.974,8.974,8.9701,8.9623,8.9623,8.9584,8.9468,8.8769,8.8416,5.1021,5.1889,5.2736,5.6114,5.9104,6.1925,6.4752,6.6121,6.7261,6.8854,7.0394,7.1751,7.2733,7.4685,7.63,7.6638,7.7908,7.9417,8.1106,8.1482,8.2158,8.3622,8.4004,8.4117,8.4117,8.4117,8.4117,8.4117,8.4117,8.4117,8.4117,8.4117,8.4117,8.4117,8.4117,8.4117,8.4117,8.4117,8.4182,8.4317,8.4425,8.456,8.4719,8.4813,8.4866,8.4895,8.4895,8.4895,8.4895,8.4895,8.4895,8.4918,8.5094,8.5154,8.5235,8.5401,8.5486,8.5506,8.5506,8.5506,8.5621,8.6309,8.6533,8.6731,8.7787,8.8576,8.9155,8.9538,9.0244,9.0936,9.0936,9.1052,9.1167,9.0975,9.1052,9.1258,9.136,9.1396,9.1446,9.1645,9.1716,9.1716,9.1716,9.1716,9.1716,9.1716,9.1716,9.1716,9.1716,9.1716,9.1716,9.1716,9.1768,9.1796,9.1879,9.1933,9.1994,9.2104,9.2107,9.2107,9.2107,9.1915,9.1721,9.1524,9.1524,9.1216,9.0519,9.0519,9.017,8.9507,8.9313,8.9235,5.1194,5.1995,5.2997,5.7183,6.0148,6.2824,6.5726,6.6621,6.7554,6.9987,7.1146,7.2083,7.329,7.5243,7.6669,7.6675,7.8065,7.9567,8.085,8.1369,8.2083,8.3315,8.3847,8.4117,8.4117,8.4117,8.4117,8.4117,8.4117,8.4117,8.4117,8.4117,8.4117,8.4117,8.4117,8.4117,8.4117,8.4176,8.4241,8.4381,8.4518,8.4683,8.4802,8.4866,8.4895,8.4895,8.4895,8.4895,8.4895,8.4895,8.4895,8.4918,8.5122,8.5214,8.5202,8.5426,8.5506,8.5506,8.5506,8.5774,8.6189,8.6648,8.7108,8.7641,8.8682,8.9304,8.9796,9.0358,9.0859,9.1206,9.1206,9.1206,9.1206,9.1206,9.1206,9.1245,9.1345,9.1368,9.1435,9.1637,9.1687,9.1716,9.1716,9.206,9.2447,9.2837,9.2918,9.2918,9.2918,9.2918,9.2918,9.2918,9.2985,9.29,9.2538,9.2566,9.2474,9.2104,9.2107,9.2107,9.2107,9.2107,9.2107,9.2107,9.2107,9.1877,9.1413,9.1413,9.1177,9.0711,9.0325,9.0131,5.1369,5.2546,5.4017,5.8337,6.0774,6.2968,6.6167,6.6909,6.7878,7.1207,7.1791,7.2196,7.3891,7.5506,7.6632,7.6669,7.8021,7.9417,8.0293,8.0962,8.1745,8.2708,8.3428,8.3922,8.4073,8.4117,8.4117,8.4117,8.4117,8.4117,8.4117,8.4117,8.4117,8.4117,8.4117,8.4123,8.415,8.426,8.44,8.4524,8.4689,8.4796,8.4895,8.4895,8.4895,8.4895,8.4895,8.4895,8.4895,8.4895,8.4895,8.4918,8.5122,8.5214,8.5202,8.5426,8.5506,8.5506,8.5659,8.6189,8.6839,8.7144,8.776,8.86,8.9545,8.9917,9.0172,9.0953,9.1206,9.1206,9.1206,9.1206,9.1206,9.1206,9.1206,9.1232,9.1283,9.1336,9.1496,9.1735,9.1971,9.2141,9.2141,9.2721,9.3418,9.4118,9.4195,9.4195,9.4195,9.4195,9.4195,9.4195,9.4311,9.4114,9.3468,9.347,9.3265,9.2573,9.242,9.2301,9.2301,9.2185,9.2107,9.2107,9.2107,9.2107,9.2107,9.2107,9.2107,9.2068,9.1374,9.1024,5.1369,5.4291,5.693,5.8299,6.0416,6.2869,6.5549,6.664,6.797,7.1224,7.1791,7.2196,7.3891,7.5506,7.6588,7.6594,7.8021,7.9417,8.0293,8.0481,8.1113,8.2633,8.2896,8.3278,8.4042,8.4117,8.4117,8.4117,8.4117,8.4117,8.4117,8.4117,8.4117,8.4117,8.4117,8.4169,8.4286,8.4305,8.4444,8.4651,8.4813,8.4878,8.4895,8.4895,8.4895,8.4895,8.4895,8.4895,8.4895,8.4895,8.4895,8.4918,8.5122,8.5214,8.5202,8.5426,8.5506,8.5621,8.6342,8.6686,8.703,8.8486,8.9136,8.9514,9.0421,9.079,9.0892,9.1141,9.1206,9.1206,9.1206,9.1206,9.1206,9.1206,9.1206,9.1232,9.1283,9.1336,9.1651,9.2469,9.3286,9.3885,9.3885,9.3963,9.4079,9.4195,9.4195,9.4195,9.4195,9.4195,9.4195,9.4195,9.4317,9.436,9.425,9.4407,9.4477,9.4368,9.3627,9.3236,9.3236,9.2498,9.2107,9.2107,9.2107,9.2107,9.2107,9.2107,9.2107,9.2107,9.199,9.1915,5.1582,5.4718,5.756,5.8397,6.0472,6.2848,6.4893,6.6295,6.783,7.0191,7.1288,7.2312,7.3903,7.5506,7.6588,7.6588,7.8021,7.9229,7.9604,8.0099,8.0668,8.1375,8.1857,8.2264,8.2646,8.3096,8.3353,8.3353,8.381,8.4117,8.4117,8.366,8.3353,8.3353,8.3017,8.2824,8.2881,8.3061,8.3457,8.4068,8.412,8.4446,8.4895,8.4895,8.4895,8.4895,8.4895,8.4895,8.4895,8.4895,8.4895,8.4918,8.5122,8.5214,8.5202,8.5426,8.5506,8.5621,8.6495,8.7111,8.7727,8.8907,8.9751,9.0354,9.0781,9.0981,9.1114,9.1192,9.1206,9.1206,9.1206,9.1206,9.1321,9.1825,9.1941,9.2065,9.2532,9.2382,9.2404,9.3383,9.3902,9.4353,9.4853,9.493,9.5085,9.5588,9.5665,9.5665,9.5665,9.5665,9.5665,9.5665,9.5799,9.5649,9.518,9.5264,9.5181,9.4718,9.4329,9.3899,9.3433,9.3042,9.2615,9.2107,9.2107,9.2107,9.2107,9.2107,9.2107,9.2107,9.2107,9.2107,5.1832,5.4738,5.7577,5.8222,6.0412,6.2795,6.424,6.5962,6.7718,6.9349,7.0762,7.2111,7.3622,7.5229,7.6369,7.6594,7.7833,7.8853,7.9072,7.9648,8.0143,8.0368,8.0925,8.1369,8.1594,8.2151,8.2483,8.2483,8.3096,8.3472,8.3472,8.2897,8.2534,8.2534,8.2109,8.1857,8.1888,8.2115,8.2612,8.3282,8.3282,8.3731,8.4554,8.4554,8.4705,8.4895,8.4895,8.4895,8.4895,8.4895,8.4895,8.4918,8.5122,8.5214,8.5202,8.5426,8.5659,8.5965,8.6844,8.7689,8.853,8.9365,9.0202,9.0911,9.0911,9.1052,9.1206,9.1206,9.1206,9.1244,9.1479,9.1518,9.1748,9.2595,9.2792,9.2997,9.3619,9.3542,9.3573,9.4398,9.4698,9.5085,9.5704,9.582,9.6052,9.6706,9.6783,9.6783,9.6783,9.6783,9.6783,9.6783,9.6922,9.6734,9.6072,9.6156,9.5956,9.5378,9.5143,9.4715,9.4052,9.3627,9.3081,9.2459,9.2224,9.2107,9.2107,9.2107,9.2107,9.2107,9.2107,9.2107,5.2164,5.4738,5.7426,5.7463,5.9957,6.2601,6.3477,6.56,6.7846,6.9363,7.0435,7.1498,7.2902,7.4423,7.5743,7.6563,7.7395,7.8221,7.9004,7.9148,7.9454,8.0293,8.0443,8.0781,8.1519,8.1632,8.167,8.167,8.1707,8.1745,8.1745,8.1827,8.1852,8.1852,8.1944,8.2032,8.2188,8.2331,8.2405,8.2448,8.2448,8.2903,8.3661,8.3661,8.411,8.4895,8.4895,8.4895,8.4895,8.4895,8.4895,8.4918,8.5122,8.5214,8.5202,8.5426,8.6003,8.6839,8.7727,8.8568,8.9365,9.0244,9.0694,9.0911,9.0911,9.1052,9.1206,9.1206,9.1206,9.1398,9.221,9.2441,9.2638,9.3446,9.3638,9.3687,9.3935,9.4594,9.5233,9.54,9.609,9.6667,9.6706,9.6744,9.6744,9.6783,9.6783,9.6783,9.6783,9.6783,9.6783,9.6783,9.6922,9.6967,9.6928,9.7052,9.7124,9.7085,9.6305,9.5836,9.5759,9.4246,9.3394,9.3317,9.2537,9.2107,9.2107,9.2107,9.2107,9.2107,9.2107,9.2107,5.2205,5.4738,5.7388,5.7388,5.9506,6.178,6.2644,6.4353,6.6277,6.7907,6.9241,7.0491,7.1553,7.3376,7.4955,7.5754,7.6525,7.7351,7.8221,7.8334,7.8634,7.9454,7.9567,7.9679,7.998,8.0512,8.0818,8.0818,8.13,8.1633,8.1715,8.1244,8.1004,8.1077,8.0717,8.0579,8.0703,8.0753,8.104,8.1571,8.1571,8.1993,8.2865,8.3358,8.3769,8.411,8.4668,8.4895,8.4895,8.4895,8.4895,8.4918,8.5122,8.5214,8.5279,8.6037,8.6533,8.6991,8.8377,8.9065,8.9442,9.032,9.0737,9.0911,9.0911,9.1052,9.1206,9.1206,9.1595,9.2095,9.2402,9.2869,9.3484,9.433,9.4946,9.5401,9.5529,9.5833,9.6117,9.6289,9.659,9.6783,9.6783,9.6783,9.6783,9.6783,9.6783,9.6783,9.6783,9.6783,9.6783,9.6783,9.6922,9.7006,9.7006,9.713,9.7202,9.7202,9.6927,9.6461,9.5914,9.4793,9.3938,9.3394,9.2537,9.2107,9.2107,9.2107,9.2107,9.2107,9.2107,9.2107,5.2537,5.4731,5.7043,5.7312,5.9055,6.0989,6.2155,6.3705,6.5301,6.667,6.8239,6.9577,7.0412,7.2018,7.3596,7.4842,7.5721,7.6567,7.7357,7.7464,7.7764,7.859,7.8703,7.8816,7.9072,7.9648,8.0017,8.0017,8.058,8.0937,8.1022,8.0511,8.0287,8.0441,8.0002,7.9821,7.9903,7.9903,8.0168,8.0699,8.0699,8.1154,8.1988,8.2827,8.3358,8.3661,8.4522,8.4895,8.4895,8.4895,8.4895,8.4918,8.5122,8.5214,8.5317,8.6413,8.6991,8.7417,8.883,8.948,8.9824,9.0392,9.0737,9.0911,9.0911,9.1052,9.1244,9.1556,9.2056,9.2638,9.3176,9.3946,9.4711,9.5292,9.5865,9.6315,9.6376,9.6468,9.6534,9.6719,9.6768,9.6783,9.6783,9.6783,9.6783,9.6783,9.6783,9.6783,9.6783,9.6783,9.6783,9.6783,9.6922,9.7006,9.7006,9.713,9.7202,9.7202,9.7202,9.6927,9.6344,9.5489,9.4676,9.386,9.2964,9.2382,9.2107,9.2107,9.2107,9.2107,9.2107,9.2107,0.0,0.0,0.0,5.7198,5.8639,6.0306,6.1966,6.3629,6.5073,6.5907,6.7385,6.8759,6.952,7.0375,7.1697,7.3838,7.4933,7.5764,7.6431,7.6563,7.6907,7.7783,7.7858,7.8196,7.8972,7.9163,7.9242,7.9242,7.9355,7.9462,7.9468,7.9626,7.9782,7.9898,7.9903,7.9903,7.9903,7.9903,7.9903,7.9903,7.9903,8.032,8.1078,8.1955,8.2789,8.3618,8.4484,8.4895,8.4895,8.4895,8.4895,8.4924,8.5122,8.5214,8.5322,8.6419,8.7378,8.8229,8.9065,8.99,9.0583,9.0583,9.0737,9.0911,9.0911,9.1052,9.1402,9.2249,9.2556,9.2945,9.4604,9.5677,9.6283,9.6283,9.6283,9.6311,9.6376,9.6468,9.6556,9.6687,9.673,9.6783,9.6783,9.6783,9.6783,9.6783,9.6783,9.6783,9.6783,9.6783,9.6783,9.6783,9.6922,9.7006,9.7006,9.713,9.7202,9.7202,9.7202,9.7202,9.7202,9.6344,9.5528,9.4718,9.3822,9.2964,9.2107,9.2107,9.2107,9.2107,9.2107,9.2107,5.3356,0.0,0.0,0.0,0.0,0.0,6.1102,6.2307,6.3515,6.4922,6.6059,6.7225,6.8636,6.9621,7.0595,7.1735,7.3037,7.4217,7.498,7.5621,7.6342,7.7166,7.7235,7.7348,7.7568,7.7603,7.7626,7.7626,7.8226,7.8591,7.8719,7.9447,7.987,7.9903,7.9903,7.9903,7.9903,7.9903,7.9903,7.9903,7.9903,8.0017,8.0244,8.1078,8.1918,8.2789,8.3618,8.4332,8.4895,8.4895,8.4947,8.5011,8.5154,8.5267,8.5552,8.7147,8.788,8.8306,8.9747,9.0397,9.0583,9.0583,9.0737,9.0911,9.0911,9.1475,9.2172,9.2441,9.3369,9.4561,9.5672,9.6134,9.6283,9.6283,9.6283,9.6292,9.632,9.6416,9.6556,9.6687,9.673,9.6783,9.6783,9.6783,9.6783,9.6783,9.6783,9.6783,9.6783,9.6783,9.6783,9.6783,9.6922,9.7006,9.7006,9.713,9.7202,9.7202,9.7202,9.7202,9.7202,9.6344,9.5528,9.4718,9.3822,9.2964,9.2107,9.2107,9.2107,9.2107,9.2107,9.2107,0.0,0.0,0.0,5.7115,0.0,0.0,6.0652,6.1481,6.2345,6.4008,6.5036,6.5983,6.7314,6.8266,6.9001,6.9427,7.0838,7.2236,7.3317,7.4212,7.508,7.5867,7.6282,7.6621,7.6955,7.7043,7.7071,7.7071,7.7575,7.79,7.7971,7.888,7.9372,7.9372,7.9714,7.9903,7.9903,7.9903,7.9903,7.9903,7.9903,7.9903,7.9941,8.0737,8.1571,8.2448,8.3244,8.411,8.4901,8.4914,8.4939,8.5017,8.5133,8.5288,8.5637,8.7424,8.8115,8.8344,9.0015,9.0583,9.0583,9.0583,9.0737,9.0911,9.0911,9.1633,9.2556,9.2903,9.4215,9.5677,9.6172,9.6283,9.6283,9.6283,9.6283,9.6283,9.6283,9.6398,9.6505,9.6601,9.6707,9.6783,9.6783,9.6783,9.6783,9.6783,9.6783,9.6783,9.6783,9.6783,9.6783,9.6783,9.6922,9.7006,9.7006,9.713,9.7202,9.7202,9.7202,9.7202,9.7202,9.6694,9.6033,9.522,9.4366,9.3317,9.2107,9.2107,9.2107,9.2107,9.2107,9.2107,0.0,0.0,0.0,0.0,5.7388,0.0,6.0424,6.1031,6.1519,6.3027,6.4008,6.4884,6.5794,6.6594,6.7162,6.7352,6.8645,7.0132,7.1563,7.2589,7.3452,7.4169,7.4935,7.5685,7.6428,7.6679,7.6782,7.6782,7.7067,7.732,7.7396,7.8078,7.8457,7.8457,7.9297,7.9751,7.9751,7.9865,7.9903,7.9903,7.9903,7.9903,7.9903,8.0623,8.1495,8.2448,8.3168,8.3997,8.4901,8.4956,8.5017,8.5039,8.5149,8.5304,8.5614,8.7429,8.8115,8.8344,9.0015,9.0583,9.0583,9.0583,9.0737,9.0911,9.1026,9.1787,9.283,9.3715,9.5095,9.6283,9.6283,9.6283,9.6283,9.6283,9.6283,9.6283,9.6283,9.6398,9.6488,9.6488,9.6668,9.6783,9.6783,9.6783,9.6783,9.6783,9.6783,9.6783,9.6783,9.6783,9.6783,9.6783,9.6922,9.7006,9.7006,9.713,9.7202,9.7202,9.7202,9.7202,9.7202,9.7202,9.6771,9.5914,9.5026,9.3744,9.2107,9.2107,9.2107,9.2107,9.2107,9.2107,0.0,0.0,0.0,0.0,0.0,0.0,5.9704,6.0652,6.1178,6.1519,6.2269,6.3364,6.4846,6.5263,6.5836,6.7162,6.7655,6.8437,7.0066,7.1619,7.2642,7.2793,7.2944,7.3134,7.328,7.3896,7.428,7.428,7.5594,7.6671,7.7358,7.7548,7.7623,7.7623,7.8419,7.8836,7.8836,7.9562,7.9903,7.9903,7.9903,7.9903,7.9903,8.0055,8.0964,8.241,8.2562,8.3504,8.4901,8.4956,8.5062,8.5154,8.5315,8.5424,8.5711,8.7455,8.8115,8.8344,9.0015,9.0583,9.0583,9.0583,9.0737,9.1026,9.1721,9.2675,9.3792,9.5365,9.6052,9.6283,9.6283,9.6283,9.6283,9.6283,9.6283,9.6283,9.6283,9.6398,9.6488,9.6488,9.6668,9.6783,9.6783,9.6783,9.6783,9.6783,9.6783,9.6783,9.6783,9.6783,9.6783,9.6783,9.6922,9.7006,9.7006,9.713,9.7202,9.7202,9.7202,9.7202,9.7202,9.7202,9.6771,9.5914,9.4402,9.312,9.2107,9.2107,9.2107,9.2107,9.2107,9.2107,0.0,0.0,0.0,5.7604,0.0,0.0,0.0,6.0197,6.0614,6.1031,6.1443,6.2159,6.3402,6.3667,6.4046,6.5301,6.5869,6.6594,6.7845,6.9441,7.0654,7.1114,7.1493,7.191,7.2365,7.2777,7.2999,7.2999,7.4131,7.5041,7.5496,7.6292,7.6747,7.6747,7.7542,7.8192,7.8609,7.9026,7.9486,7.9903,7.9903,7.9903,7.9903,7.9903,8.0585,8.176,8.2221,8.3121,8.4391,8.4893,8.5165,8.5309,8.5372,8.5459,8.5697,8.746,8.8115,8.8344,9.0015,9.0583,9.0593,9.065,9.0778,9.1074,9.1975,9.3216,9.4638,9.5942,9.6283,9.6283,9.6283,9.6283,9.6283,9.6283,9.6283,9.6283,9.6283,9.6398,9.6488,9.6488,9.6668,9.6783,9.6783,9.6783,9.6783,9.6783,9.6783,9.6783,9.6783,9.6783,9.6783,9.6783,9.6922,9.7006,9.7006,9.713,9.7202,9.7202,9.7202,9.7202,9.7202,9.7202,9.6771,9.5914,9.4676,9.3627,9.2731,9.2301,9.2107,9.2107,9.2107,9.2107,0.0,0.0,0.0,0.0,0.0,5.8908,0.0,0.0,0.0,6.0727,6.0879,6.114,6.2004,6.2155,6.242,6.325,6.397,6.4657,6.5301,6.6552,6.7921,6.9252,6.9972,7.0654,7.1379,7.172,7.2062,7.237,7.2999,7.3444,7.3596,7.4884,7.5685,7.5875,7.6709,7.7472,7.8116,7.8457,7.895,7.9638,7.9827,7.9903,7.9903,7.9903,8.0358,8.1154,8.2053,8.2949,8.3883,8.485,8.5304,8.5398,8.5418,8.5436,8.5697,8.746,8.8115,8.8344,9.0015,9.0583,9.0604,9.0674,9.1029,9.1577,9.2334,9.3805,9.5408,9.6095,9.6283,9.6283,9.6283,9.6283,9.6283,9.6283,9.6283,9.6283,9.6283,9.6398,9.6488,9.6488,9.6668,9.6783,9.6783,9.6783,9.6783,9.6783,9.6783,9.6783,9.6783,9.6783,9.6783,9.6783,9.6908,9.6989,9.7006,9.7118,9.7188,9.7199,9.7202,9.7202,9.7202,9.7202,9.6771,9.5914,9.5259,9.4443,9.3394,9.2692,9.2262,9.2107,9.2107,9.2107,0.0,0.0,0.0,0.0,5.8616,0.0,0.0,0.0,5.9931,6.0007,0.0,6.0273,6.1102,0.0,0.0,6.2416,6.2606,6.2719,6.2795,6.2985,6.424,6.7314,6.7769,6.7845,6.7963,6.9328,7.0811,7.2294,7.2479,7.2853,7.3558,7.3785,7.424,7.5003,7.5837,7.6292,7.6368,7.7851,7.8647,7.8761,7.9524,7.9903,7.9903,7.9903,8.0358,8.1159,8.2098,8.2988,8.3889,8.4946,8.5382,8.5403,8.5456,8.5496,8.5697,8.746,8.8115,8.8344,9.0015,9.0583,9.0604,9.0674,9.1888,9.3303,9.3477,9.474,9.6172,9.6283,9.6283,9.6283,9.6283,9.6283,9.6283,9.6283,9.6283,9.6283,9.6283,9.6398,9.6488,9.6488,9.6668,9.6783,9.6783,9.6783,9.6783,9.6783,9.6783,9.6783,9.6783,9.6783,9.6783,9.6783,9.6859,9.6936,9.6999,9.7072,9.7139,9.7196,9.7202,9.7202,9.7202,9.7202,9.6771,9.5914,9.5797,9.4984,9.3394,9.3317,9.2848,9.2107,9.2107,9.2107,0.0,0.0,0.0,0.0,0.0,0.0,5.9805,0.0,5.9893,0.0,0.0,0.0,0.0,0.0,0.0,0.0,6.1667,6.1818,6.234,6.2416,6.3288,6.5684,6.595,6.6329,6.7314,6.8039,6.8949,7.0124,7.0654,7.1299,7.2128,7.307,7.3785,7.4126,7.4965,7.5647,7.6102,7.732,7.8154,7.8609,7.9486,7.9903,7.9903,7.9903,8.0125,8.0531,8.1908,8.2808,8.3396,8.4823,8.5429,8.5446,8.5491,8.5506,8.5697,8.746,8.8115,8.8344,9.0015,9.0583,9.0614,9.0788,9.1793,9.3045,9.3548,9.4561,9.5638,9.6168,9.6283,9.6283,9.6283,9.6283,9.6283,9.6283,9.6283,9.6283,9.6283,9.6358,9.6429,9.648,9.6633,9.673,9.6776,9.6783,9.6783,9.6783,9.6783,9.6783,9.6783,9.6783,9.6783,9.6783,9.6849,9.6922,9.6999,9.7066,9.713,9.7196,9.7202,9.7202,9.7202,9.7202,9.7043,9.6655,9.615,9.5564,9.4868,9.3858,9.3197,9.2848,9.2343,9.2107,6.0159,0.0,0.0,0.0,0.0,0.0,0.0,0.0,0.0,0.0,0.0,0.0,0.0,0.0,0.0,0.0,0.0,6.0989,6.1625,6.17,6.2345,6.4008,6.4197,6.4884,6.6556,6.6708,6.7162,6.8186,6.9062,6.9896,7.073,7.2128,7.3141,7.3596,7.4202,7.4927,7.5761,7.6633,7.7472,7.8268,7.9145,7.9676,7.9903,7.9935,7.9956,8.0112,8.1852,8.2733,8.3043,8.4742,8.5479,8.5506,8.5506,8.5506,8.5697,8.746,8.8115,8.8344,9.0015,9.0624,9.0702,9.0862,9.1628,9.2633,9.3446,9.4292,9.5181,9.6057,9.6283,9.6283,9.6283,9.6283,9.6283,9.6283,9.6283,9.6283,9.6283,9.6365,9.6424,9.6476,9.6605,9.6731,9.6772,9.6783,9.6783,9.6783,9.6783,9.6783,9.6783,9.6783,9.6783,9.6783,9.6831,9.6901,9.6999,9.705,9.7112,9.7196,9.7202,9.7202,9.7202,9.7202,9.7202,9.7202,9.6577,9.6147,9.5914,9.4674,9.3977,9.3744,9.2615,9.2107,0.0,0.0,0.0,6.0665,0.0,0.0,0.0,0.0,5.9893,0.0,0.0,0.0,0.0,0.0,0.0,0.0,0.0,0.0,0.0,5.9969,6.061,6.2265,6.2492,6.3136,6.4808,6.4998,6.5646,6.7314,6.8186,6.902,6.9896,7.073,7.1938,7.3558,7.3634,7.4051,7.4927,7.5723,7.6595,7.7434,7.8268,7.9064,7.9908,7.9978,7.9992,8.0122,8.2061,8.2881,8.3048,8.4779,8.5506,8.5506,8.5506,8.5506,8.5697,8.746,8.8115,8.8344,9.0015,9.0727,9.0901,9.0906,9.1628,9.2633,9.3446,9.4292,9.5181,9.6057,9.6283,9.6283,9.6283,9.6283,9.6283,9.6283,9.6283,9.6283,9.6283,9.6365,9.6424,9.6476,9.6605,9.6731,9.6772,9.6783,9.6783,9.6783,9.6783,9.6783,9.6783,9.6783,9.6783,9.6783,9.6787,9.6849,9.6996,9.7009,9.7066,9.7193,9.7202,9.7202,9.7202,9.7202,9.7202,9.7202,9.716,9.6733,9.5914,9.5836,9.5412,9.4601,9.2887,9.2107,0.0,0.0,6.1455,6.1521,0.0,0.0,0.0,0.0,0.0,0.0,0.0,0.0,0.0,0.0,0.0,0.0,0.0,0.0,0.0,5.8601,5.8676,5.9814,6.1397,6.2606,6.3174,6.3743,6.4505,6.5646,6.6476,6.7579,6.8949,6.982,7.0806,7.19,7.3027,7.3747,7.4051,7.542,7.6557,7.7396,7.8309,7.9181,7.9978,8.0093,8.018,8.0369,8.2131,8.2925,8.3104,8.4809,8.5506,8.5506,8.5506,8.5506,8.5697,8.746,8.8115,8.8344,9.0015,9.0732,9.0911,9.0911,9.1244,9.1902,9.3292,9.3907,9.4446,9.5903,9.6283,9.6283,9.6283,9.6283,9.6283,9.6283,9.6283,9.6283,9.6283,9.6311,9.6383,9.6463,9.6556,9.6621,9.6761,9.6783,9.6783,9.6783,9.6783,9.6783,9.6783,9.6783,9.6783,9.6783,9.6783,9.6827,9.6922,9.7019,9.7109,9.7196,9.7202,9.7202,9.7202,9.7202,9.7202,9.7202,9.7202,9.7043,9.6771,9.6189,9.5759,9.5451,9.4327,9.3511,6.327,6.2707,0.0,6.2376,6.2193,0.0,6.1431,0.0,0.0,0.0,0.0,0.0,0.0,0.0,0.0,0.0,0.0,0.0,0.0,5.7956,5.7615,5.8184,5.9923,6.1321,6.189,6.242,6.3178,6.4353,6.5218,6.6302,6.7706,6.8918,6.9923,7.0759,7.2424,7.3406,7.3705,7.5076,7.6372,7.7516,7.8124,7.899,8.0093,8.0205,8.0333,8.0473,8.2195,8.2979,8.3114,8.4824,8.5506,8.5506,8.5506,8.5506,8.5697,8.746,8.8497,8.9141,9.0244,9.0732,9.0911,9.0911,9.1048,9.1513,9.3172,9.3715,9.4061,9.5822,9.6283,9.6283,9.6283,9.6283,9.6283,9.6283,9.6283,9.6283,9.6283,9.6283,9.6343,9.6454,9.6488,9.6546,9.6757,9.6783,9.6783,9.6783,9.6783,9.6783,9.6783,9.6783,9.6783,9.6783,9.6783,9.6812,9.6884,9.7025,9.7121,9.7165,9.7188,9.7202,9.7202,9.7202,9.7202,9.7202,9.7202,9.7202,9.7202,9.6655,9.6344,9.6344,9.5492,9.4832]},{"header":{"parameterUnit":"m.s-1","parameterCategory":1,"la1":30.6,"la2":29.2853,"lo1":-89.7004,"lo2":-87.6739,"dy":0.0162,"dx":0.0183,"nx":112,"ny":82,"refTime":"2024-03-21T18:00:00:Z","depth":0,"parameterNumber":3,"parameterNumberName":"V-component_of_WINDS"},"data":[0.0,0.0,0.0,0.0,0.0,0.0,0.0,0.0,0.0,0.0,0.0,0.0,0.0,0.0,0.0,0.0,0.0,0.0,0.0,0.0,0.0,0.0,0.0,0.0,0.0,0.0,0.0,0.0,0.0,0.0,0.0,0.0,0.0,0.0,0.0,0.0,0.0,0.0,0.0,0.0,0.0,0.0,0.0,0.0,0.0,0.0,0.0,0.0,0.0,0.0,0.0,0.0,0.0,0.0,0.0,0.0,0.0,0.0,0.0,0.0,0.0,0.0,0.0,0.0,0.0,0.0,0.0,0.0,0.0,0.0,0.0,0.0,0.0,0.0,0.0,0.0,0.0,0.0,0.0,0.0,0.0,0.0,0.0,0.0,0.0,0.0,0.0,0.0,0.0,0.0,0.154,0.1596,0.1602,0.1593,0.1605,0.1599,0.1571,0.1503,0.0,0.0,0.0,0.0,0.0,0.0,0.0,0.0,0.0,0.0,0.0,0.0,0.0,0.0,0.0,0.0,0.0,0.0,0.0,0.0,0.0,0.0,0.0,0.0,0.0,0.0,0.0,0.0,0.0,0.0,0.0,0.0,0.0,0.0,0.0,0.0,0.0,0.0,0.0,0.0,0.0,0.0,0.0,0.0,0.0,0.0,0.0,0.0,0.0,0.0,0.0,0.0,0.0,0.0,0.0,0.0,0.0,0.0,0.0,0.0,0.0,0.0,0.0,0.0,0.0,0.0,0.0,0.0,0.0,0.0,0.0,0.0,0.0,0.0,0.0,0.0,0.0,0.0,0.0,0.0,0.0,0.0,0.0,0.0,0.0,0.0,0.0,0.0,0.0,0.0,0.0,0.0,0.0,0.0,0.0,0.0,0.0,0.0,0.0,0.0,0.0,0.0,0.0,0.0,0.1583,0.1593,0.1601,0.1603,0.1597,0.1599,0.1569,0.151,0.0,0.0,0.0,0.0,0.0,0.0,0.0,0.0,0.0,0.0,0.0,0.0,0.0,0.0,0.0,0.0,0.0,0.0,0.0,0.0,0.0,0.0,0.0,0.0,0.0,0.0,0.0,0.0,0.0,0.0,0.0,0.0,0.0,0.0,0.0,0.0,0.0,0.0,0.0,0.0,0.0,0.0,0.0,0.0,0.0,0.0,0.0,0.0,0.0,0.0,0.0,0.0,0.0,0.0,0.0,0.0,0.0,0.0,0.0,0.0,0.0,0.0,0.0,0.0,0.0,0.0,0.0,0.0,0.0,0.0,0.0,0.0,0.0,0.0,0.0,0.0,0.0,0.0,0.0,0.0,0.0,0.0,0.0,0.0,0.0,0.0,0.0,0.0,0.0,0.0,0.0,0.0,0.0,0.0,0.0,0.0,0.0,0.0,0.0,0.0,0.0,0.0,0.0,0.1607,0.1652,0.1653,0.1823,0.1917,0.1872,0.2009,0.2061,0.1989,0.1951,0.0,0.0,0.0,0.0,0.0,0.0,0.0,0.0,0.0,0.0,0.0,0.0,0.0,0.0,0.0,0.0,0.0,0.0,0.0,0.0,0.0,0.0,0.0,0.0,0.0,0.0,0.0,0.0,0.0,0.0,0.0,0.0,0.0,0.0,0.0,0.0,0.0,0.0,0.0,0.0,0.0,0.0,0.0,0.0,0.0,0.0,0.0,0.0,0.0,0.0,0.0,0.0,0.0,0.0,0.0,0.0,0.0,0.0,0.0,0.0,0.0,0.0,0.0,0.0,0.0,0.0,0.0,0.0,0.0,0.0,0.0,0.0,0.0,0.0,0.0,0.0,0.0,0.0,0.0,0.0,0.0,0.0,0.0,0.0,0.0,0.0,0.0,0.0,0.0,0.0,0.0,0.0,0.0,0.0,0.0,0.0,0.0,0.0,0.0,0.0,0.0,0.0,0.1722,0.1795,0.1815,0.2101,0.2278,0.2221,0.2392,0.2481,0.2423,0.2345,0.0,0.0,0.0,0.0,0.0,0.0,0.0,0.0,0.0,0.0,0.0,0.0,0.0,0.0,0.0,0.0,0.0,0.0,0.0,0.0,0.0,0.0,0.0,0.0,0.0,0.0,0.0,0.0,0.0,0.0,0.0,0.0,0.0,0.0,0.0,0.0,0.0,0.0,0.0,0.0,0.0,0.0,0.0,0.0,0.0,0.0,0.0,0.0,0.0,0.0,0.0,0.0,0.0,0.0,0.0,0.0,0.0,0.0,0.0,0.0,0.0,0.0,0.0,0.0,0.0,0.0,0.0,0.0,0.0,0.0,0.0,0.0,0.0,0.0,0.0,0.0,0.0,0.0,0.0,0.0,0.0,0.0,0.0,0.0,0.0,0.0,0.0,0.0,0.0,0.0,0.0,0.0,0.0,0.0,0.0,0.0,0.0,0.0,0.0,0.0,0.0,0.0,0.1917,0.21,0.2163,0.2409,0.2569,0.2567,0.2528,0.2493,0.2496,0.2373,0.0,0.0,0.0,0.0,0.0,0.0,0.0,0.0,0.0,0.0,0.0,0.0,0.0,0.0,0.0,0.0,0.0,0.0,0.0,0.0,0.0,0.0,0.0,0.0,0.0,0.0,0.0,0.0,0.0,0.0,0.0,0.0,0.0,0.0,0.0,0.0,0.0,0.0,0.0,0.0,0.0,0.0,0.0,0.0,0.0,0.0,0.0,0.0,0.0,0.0,0.0,0.0,0.0,0.0,0.0,0.0,0.0,0.0,0.0,0.0,0.0,0.0,0.0,0.0,0.0,0.0,0.0,0.0,0.0,0.0,0.0,0.0,0.0,0.0,0.0,0.0,0.0,0.0,0.0,0.0,0.0,0.0,0.0,0.0,0.0,0.0,0.0,0.0,0.0,0.0,0.0,0.0,0.0,0.0,0.0,0.0,0.0,0.0,0.0,0.0,0.0,0.0,0.2222,0.2419,0.0,0.2732,0.2916,0.2914,0.2999,0.3038,0.3007,0.0,0.0,0.0,0.0,0.0,0.0,0.0,0.0,0.0,0.0,0.0,0.0,0.0,0.0,0.0,0.0,0.0,0.0,0.0,0.0,0.0,0.0,0.0,0.0,0.0,0.0,0.0,0.0,0.0,0.0,0.0,0.0,0.0,0.0,0.0,0.0,0.0,0.0,0.0,0.0,0.0,0.0,0.0,0.0,0.0,0.0,0.0,0.0,0.0,0.0,0.0,0.0,0.0,0.0,0.0,0.0,0.0,0.0,0.0,0.0,0.0,0.0,0.0,0.0,0.0,0.0,0.0,0.0,0.0,0.0,0.0,0.0,0.0,0.0,0.0,0.0,0.0,0.0,0.0,0.0,0.0,0.0,0.0,0.0,0.0,0.0,0.0,0.0,0.0,0.0,0.0,0.0,0.0,0.0,0.0,0.0,0.0,0.0,0.0,0.0,0.0,0.0,0.2262,0.2546,0.2754,0.0,0.3061,0.3263,0.3256,0.3366,0.3401,0.3341,0.0,0.0,0.0,0.0,0.0,0.0,0.0,0.0,0.0,0.0,0.0,0.0,0.0,0.0,0.0,0.0,0.0,0.0,0.0,0.0,0.0,0.0,0.0,0.0,0.0,0.0,0.0,0.0,0.0,0.0,0.0,0.0,0.0,0.0,0.0,0.0,0.0,0.0,0.0,0.0,0.0,0.0,0.0,0.0,0.0,0.0,0.0,0.0,0.0,0.0,0.0,0.0,0.0,0.0,0.0,0.0,0.0,0.0,0.0,0.0,0.0,0.0,0.0,0.0,0.0,0.0,0.0,0.0,0.0,0.0,0.0,0.0,0.0,0.0,0.0,0.0,0.0,0.0,0.0,0.0,0.0,0.0,0.0,0.0,0.0,0.0,0.0,0.0,0.0,0.0,0.0,0.0,0.0,0.0,0.0,0.0,0.0,0.0,0.0,0.0,0.0,0.0,0.2601,0.29,0.3111,0.3106,0.3407,0.3603,0.3603,0.3545,0.3474,0.0,0.0,0.0,0.0,0.0,0.0,0.0,0.0,0.0,0.0,0.0,0.0,0.0,0.0,0.0,0.0,0.0,0.0,0.0,0.0,0.0,0.0,0.0,0.0,0.0,0.0,0.0,0.0,0.0,0.0,0.0,0.0,0.0,0.0,0.0,0.0,0.0,0.0,0.0,0.0,0.0,0.0,0.0,0.0,0.0,0.0,0.0,0.0,0.0,0.0,0.0,0.0,0.0,0.0,0.0,0.0,0.0,0.0,0.0,0.0,0.0,0.0,0.0,0.0,0.0,0.0,0.0,0.0,0.0,0.0,0.0,0.0,0.0,0.0,0.0,0.0,0.0,0.0,0.0,0.0,0.0,0.0,0.0,0.0,0.0,0.0,0.0,0.0,0.0,0.0,0.0,0.0,0.0,0.0,0.0,0.0,0.0,0.0,0.0,0.0,0.0,0.0,0.0,0.2946,0.3282,0.3519,0.3521,0.3661,0.3726,0.3668,0.3611,0.3518,0.3406,0.0,0.0,0.0,0.0,0.0,0.0,0.0,0.0,0.0,0.0,0.0,0.0,0.0,0.0,0.0,0.0,0.0,0.0,0.0,0.0,0.0,0.0,0.0,0.0,0.0,0.0,0.0,0.0,0.0,0.0,0.0,0.0,0.0,0.0,0.0,0.0,0.0,0.0,0.0,0.0,0.0,0.0,0.0,0.0,0.0,0.0,0.0,0.0,0.0,0.0,0.0,0.0,0.0,0.0,0.0,0.0,0.0,0.0,0.0,0.0,0.0,0.0,0.0,0.0,0.0,0.0,0.0,0.0,0.0,0.0,0.0,0.0,0.0,0.0,0.0,0.0,0.0,0.0,0.0,0.0,0.0,0.0,0.0,0.0,0.0,0.0,0.0,0.0,0.0,0.0,0.0,0.0,0.0,0.0,0.0,0.0,0.0,0.0,0.0,0.0,0.0,0.0,0.3328,0.3569,0.3743,0.3743,0.3776,0.3784,0.3746,0.3674,0.3597,0.3488,0.0,0.0,0.0,0.0,0.0,0.0,0.0,0.0,0.0,0.0,0.0,0.0,0.0,0.0,0.0,0.0,0.0,0.0,0.0,0.0,0.0,0.0,0.0,0.0,0.0,0.0,0.0,0.0,0.0,0.0,0.0,0.0,0.0,0.0,0.0,0.0,0.0,0.0,0.0,0.0,0.0,0.0,0.0,0.0,0.0,0.0,0.0,0.0,0.0,0.0,0.0,0.0,0.0,0.0,0.0,0.0,0.0,0.0,0.0,0.0,0.0,0.0,0.0,0.0,0.0,0.0,0.0,0.0,0.0,0.0,0.0,0.0,0.0,0.0,0.0,0.0,0.0,0.0,0.0,0.0,0.0,0.0,0.0,0.0,0.0,0.0,0.0,0.0,0.0,0.0,0.0,0.0,0.0,0.0,0.0,0.0,0.0,0.0,0.0,0.0,0.0,0.0,0.3707,0.3768,0.3806,0.3806,0.3812,0.3814,0.3809,0.3757,0.3679,0.3605,0.0,0.0,0.0,0.0,0.0,0.0,0.0,0.0,0.0,0.0,0.0,0.0,0.0,0.0,0.0,0.0,0.0,0.0,0.0,0.0,0.0,0.0,0.0,0.0,0.0,0.0,0.0,0.0,0.0,0.0,0.0,0.0,0.0,0.0,0.0,0.0,0.0,0.0,0.0,0.0,0.0,0.0,0.0,0.0,0.0,0.0,0.0,0.0,0.0,0.0,0.0,0.0,0.0,0.0,0.0,0.0,0.0,0.0,0.0,0.0,0.5862,0.0,0.0,0.0,0.0,0.0,0.0,0.0,0.0,0.0,0.0,0.0,0.0,0.0,0.0,0.0,0.0,0.0,0.0,0.0,0.0,0.0,0.0,0.0,0.0,0.0,0.0,0.0,0.0,0.0,0.0,0.0,0.0,0.0,0.0,0.0,0.0,0.0,0.0,0.0,0.0,0.0,0.3765,0.3834,0.3884,0.3884,0.3883,0.3879,0.3875,0.3873,0.3784,0.3611,0.3518,0.0,0.0,0.0,0.0,0.0,0.0,0.0,0.0,0.0,0.0,0.0,0.0,0.0,0.0,0.0,0.0,0.0,0.0,0.0,0.0,0.0,0.0,0.0,0.0,0.0,0.0,0.0,0.0,0.0,0.0,0.0,0.0,0.0,0.0,0.0,0.0,0.0,0.0,0.0,0.0,0.0,0.0,0.0,0.0,0.0,0.0,0.0,0.0,0.0,0.0,0.0,0.0,0.0,0.0,0.0,0.0,0.0,0.0,0.0,0.0,0.6037,0.0,0.0,0.0,0.0,0.0,0.0,0.0,0.0,0.0,0.0,0.0,0.0,0.0,0.0,0.0,0.0,0.0,0.0,0.0,0.0,0.0,0.0,0.0,0.0,0.0,0.0,0.0,0.0,0.0,0.0,0.0,0.0,0.0,0.0,0.0,0.0,0.0,0.0,0.0,0.0,0.3845,0.3907,0.3954,0.3999,0.4001,0.398,0.3948,0.3918,0.3839,0.3698,0.3605,0.0,0.0,0.0,0.0,0.0,0.0,0.0,0.0,0.0,0.0,0.0,0.0,0.0,0.0,0.0,0.0,0.0,0.0,0.0,0.0,0.0,0.0,0.0,0.0,0.0,0.0,0.0,0.0,0.0,0.0,0.0,0.0,0.0,0.0,0.0,0.0,0.0,0.0,0.0,0.0,0.0,0.0,0.0,0.0,0.0,0.0,0.0,0.0,0.0,0.0,0.0,0.0,0.0,0.7795,0.776,0.7799,0.7852,0.7949,0.8027,0.7143,0.6708,0.66,0.6527,0.0,0.0,0.0,0.0,0.0,0.0,0.0,0.0,0.0,0.0,0.0,0.0,0.0,0.0,0.0,0.0,0.0,0.0,0.0,0.0,0.0,0.0,0.0,0.0,0.362,0.3608,0.3568,0.0,0.0,0.0,0.0,0.0,0.0,0.0,0.0,0.0,0.0,0.0,0.3926,0.3991,0.4039,0.4088,0.4093,0.4074,0.4023,0.3951,0.3888,0.3821,0.369,0.357,0.0,0.0,0.0,0.0,0.0,0.0,0.0,0.0,0.0,0.0,0.0,0.0,0.0,0.0,0.0,0.0,0.0,0.0,0.0,0.0,0.0,0.0,0.0,0.0,0.0,0.0,0.0,0.0,0.0,0.0,0.0,0.0,0.6738,0.7014,0.0,0.0,0.0,0.0,0.0,0.0,0.0,0.0,0.0,0.0,0.0,0.0,0.0,0.8294,0.8404,0.852,0.8622,0.8736,0.8715,0.8803,0.8965,0.8691,0.8641,0.8746,0.8382,0.0,0.7412,0.7061,0.0,0.0,0.0,0.0,0.0,0.0,0.0,0.0,0.0,0.0,0.0,0.0,0.0,0.0,0.0,0.0,0.0,0.0,0.0,0.0,0.0,0.0,0.4443,0.4517,0.4534,0.4537,0.0,0.4002,0.3507,0.3635,0.3657,0.0,0.0,0.0,0.0,0.0,0.0,0.0,0.4055,0.4077,0.4085,0.4093,0.4093,0.4091,0.4082,0.4026,0.3966,0.3886,0.3763,0.3649,0.3581,0.3336,0.0,0.0,0.0,0.0,0.0,0.0,0.0,0.0,0.0,0.0,0.0,0.0,0.0,0.0,0.0,0.0,0.0,0.0,0.0,0.0,0.0,0.0,0.0,0.0,0.0,0.0,0.0,0.0,0.0,0.7091,0.7271,0.7613,0.7494,0.7479,0.0,0.0,0.0,0.0,0.0,0.0,0.0,0.0,0.0,0.8385,0.8655,0.8866,0.9002,0.9137,0.9272,0.9406,0.9406,0.9455,0.953,0.9383,0.9389,0.9498,0.9226,0.9004,0.877,0.7919,0.7567,0.7534,0.0,0.0,0.0,0.0,0.6882,0.6664,0.6554,0.6303,0.6018,0.5827,0.0,0.0,0.0,0.0,0.0,0.0,0.0,0.0,0.0,0.0,0.4783,0.4803,0.4845,0.4882,0.4955,0.4667,0.439,0.0,0.434,0.4391,0.446,0.0,0.0,0.0,0.0,0.4667,0.4767,0.4617,0.4501,0.4484,0.4325,0.4196,0.4164,0.4088,0.4015,0.391,0.3845,0.3751,0.3608,0.3488,0.3355,0.0,0.0,0.0,0.0,0.0,0.0,0.0,0.0,0.0,0.0,0.0,0.0,0.0,0.0,0.0,0.0,0.0,0.0,0.0,0.0,0.0,0.0,0.0,0.0,0.0,0.0,0.0,0.0,0.7654,0.7821,0.8124,0.8175,0.8241,0.0,0.0,0.0,0.0,0.0,0.0,0.8761,0.8902,0.9049,0.9182,0.939,0.9576,0.9698,0.9752,0.9856,0.9976,1.0017,1.0037,1.0037,1.0037,1.0082,1.0175,0.9969,0.9933,0.9938,0.876,0.8272,0.8242,0.7873,0.7729,0.7714,0.7641,0.7405,0.7156,0.7156,0.694,0.6612,0.637,0.617,0.5984,0.5731,0.0,0.0,0.0,0.0,0.541,0.541,0.532,0.5227,0.5227,0.5274,0.5317,0.5374,0.54,0.5309,0.0,0.4944,0.4984,0.5043,0.0,0.0,0.0,0.0,0.5279,0.5372,0.5155,0.5007,0.5004,0.4693,0.4462,0.4414,0.4226,0.4074,0.3956,0.3924,0.383,0.3676,0.3627,0.3504,0.3311,0.0,0.0,0.0,0.0,0.0,0.0,0.0,0.0,0.0,0.0,0.0,0.0,0.0,0.0,0.0,0.0,0.0,0.0,0.0,0.0,0.0,0.0,0.0,0.0,0.0,0.0,0.0,0.0,0.0,0.8539,0.8629,0.0,0.0,0.0,0.0,0.933,0.9476,0.9681,1.0002,1.0209,1.0374,1.0502,1.0396,1.0396,1.0545,1.0357,1.0333,1.0476,1.0592,1.066,1.066,1.066,1.066,1.065,1.065,1.0657,1.0564,0.9485,0.9044,0.9001,0.8533,0.8349,0.8318,0.7993,0.7865,0.7845,0.7845,0.7632,0.7352,0.7337,0.6895,0.6372,0.6361,0.6137,0.0,0.0,0.5915,0.5957,0.5957,0.6049,0.6129,0.6129,0.6134,0.6138,0.6142,0.6195,0.6028,0.0,0.5182,0.5185,0.5189,0.0,0.5247,0.5362,0.5386,0.5437,0.5563,0.5566,0.5566,0.5552,0.5198,0.4972,0.4969,0.4495,0.4169,0.4088,0.3961,0.39,0.388,0.3693,0.3594,0.3583,0.3333,0.0,0.0,0.0,0.0,0.0,0.0,0.0,0.0,0.0,0.0,0.0,0.0,0.0,0.0,0.0,0.0,0.0,0.0,0.0,0.0,0.0,0.0,0.0,0.0,0.0,0.0,0.0,0.0,0.9218,0.9381,0.0,0.9868,1.0042,1.0121,1.0116,1.0385,1.0515,1.0426,1.0696,1.0928,1.1109,1.1149,1.13,1.155,1.1485,1.1528,1.1663,1.144,1.1415,1.1531,1.1272,1.1206,1.1283,1.1283,1.1283,1.1245,1.0777,1.0272,0.9776,0.9392,0.9099,0.89,0.8787,0.8577,0.835,0.835,0.8269,0.8124,0.7826,0.7422,0.704,0.699,0.6776,0.6542,0.6546,0.6437,0.6329,0.6329,0.6394,0.646,0.646,0.6488,0.6516,0.6516,0.654,0.6485,0.6215,0.6131,0.6092,0.6092,0.6138,0.6179,0.6224,0.6231,0.6254,0.6295,0.6128,0.5988,0.5988,0.5629,0.5283,0.5015,0.479,0.4513,0.4188,0.4039,0.3947,0.3906,0.3832,0.3737,0.3603,0.3504,0.3382,0.0,0.0,0.0,0.0,0.0,0.0,0.0,0.0,0.0,0.0,0.0,0.0,0.0,0.0,0.0,0.0,0.0,0.0,0.0,0.0,0.0,0.0,0.0,0.0,0.0,0.91,0.9401,0.9762,1.0014,1.0298,1.0636,1.0845,1.0976,1.1,1.1323,1.1437,1.1279,1.1587,1.1835,1.1975,1.206,1.2205,1.2443,1.2436,1.2472,1.2567,1.2345,1.2301,1.2427,1.2158,1.2017,1.1969,1.1969,1.1896,1.1762,1.1678,1.1319,1.0789,1.0219,0.9874,0.9654,0.9553,0.925,0.8878,0.8743,0.8692,0.8648,0.8332,0.8006,0.7729,0.7689,0.7464,0.7238,0.7242,0.7006,0.6766,0.6766,0.671,0.6635,0.6635,0.6667,0.669,0.669,0.6732,0.677,0.677,0.6696,0.6635,0.6635,0.6671,0.672,0.6766,0.677,0.6782,0.6793,0.6599,0.6475,0.6475,0.6095,0.5726,0.5466,0.5133,0.4795,0.4466,0.4201,0.4028,0.3934,0.3906,0.3841,0.371,0.3633,0.3498,0.3294,0.0,0.0,0.0,0.0,0.0,0.0,0.0,0.0,0.0,0.0,0.0,0.0,0.0,0.0,0.0,0.0,0.0,0.0,0.0,0.0,0.0,0.0,0.0,0.9537,0.9555,0.9795,1.0178,1.0515,1.0858,1.1187,1.1419,1.1656,1.1989,1.2207,1.2402,1.2604,1.2938,1.3116,1.3116,1.3128,1.3134,1.3142,1.3146,1.3142,1.3149,1.3259,1.3323,1.3338,1.3338,1.3114,1.2741,1.2741,1.2517,1.2144,1.2137,1.213,1.202,1.1034,1.0638,1.0586,1.0256,0.9874,0.9475,0.9075,0.8941,0.8918,0.8918,0.8704,0.8437,0.8432,0.8194,0.7937,0.7937,0.7645,0.7336,0.7336,0.7056,0.6759,0.6759,0.6741,0.6745,0.6745,0.6824,0.6921,0.6921,0.6798,0.6724,0.672,0.6716,0.6744,0.6879,0.6909,0.0,0.6996,0.7008,0.7008,0.7008,0.659,0.6308,0.6304,0.5531,0.5004,0.4916,0.4466,0.415,0.4015,0.3937,0.3908,0.3906,0.3713,0.3442,0.3126,0.0,0.0,0.0,0.0,0.0,0.0,0.0,0.0,0.0,0.0,0.0,0.0,0.0,0.0,0.0,0.0,0.0,0.0,0.0,0.0,0.0,1.0929,1.0949,1.0357,1.0501,1.0741,1.0919,1.1135,1.1419,1.1761,1.1956,1.2174,1.2417,1.2702,1.2897,1.2962,1.3278,1.3529,1.3677,1.3815,1.3946,1.4049,1.4035,1.4109,1.4263,1.401,1.4006,1.4226,1.3994,1.3868,1.3862,1.3862,1.3608,1.3175,1.2975,1.2711,1.2345,1.1873,1.1505,1.1249,1.1158,1.0682,1.0058,0.9948,0.9727,0.9459,0.9367,0.9267,0.9173,0.9088,0.8855,0.8632,0.8632,0.8395,0.8159,0.8159,0.8086,0.8012,0.8012,0.7777,0.7574,0.7574,0.7374,0.7187,0.7187,0.717,0.709,0.6941,0.6917,0.6925,0.6968,0.6972,0.0,0.7004,0.7008,0.7008,0.7008,0.6875,0.6673,0.6329,0.6086,0.567,0.5007,0.4801,0.4543,0.4153,0.4034,0.3949,0.3906,0.3795,0.3697,0.0,0.0,0.0,0.0,0.0,0.0,0.0,0.0,0.0,0.0,0.0,0.0,0.0,0.0,0.0,0.0,0.0,0.0,0.0,0.0,0.0,0.0,1.183,1.2005,1.1737,1.1622,1.1583,1.1607,1.1865,1.2125,1.2313,1.2515,1.2743,1.2994,1.3271,1.3465,1.3564,1.3805,1.404,1.4237,1.4434,1.4594,1.4727,1.4827,1.4924,1.503,1.479,1.4785,1.4975,1.4778,1.4635,1.4556,1.4556,1.4289,1.3875,1.3508,1.3221,0.0,0.0,0.0,0.0,0.0,1.1201,1.0771,1.0603,1.0285,0.9936,0.9863,0.973,0.957,0.9494,0.9361,0.9229,0.9229,0.8996,0.876,0.876,0.8628,0.8497,0.8497,0.8328,0.8145,0.8145,0.7975,0.7806,0.7806,0.7806,0.0,0.7435,0.7234,0.7123,0.7123,0.7123,0.7123,0.7123,0.7123,0.7107,0.7052,0.7047,0.692,0.6616,0.6416,0.0,0.0,0.0,0.4725,0.4221,0.4093,0.0,0.0,0.0,0.388,0.388,0.0,0.0,0.0,0.2432,0.2201,0.0,0.0,0.0,0.0,0.0,0.0,0.0,0.0,0.0,0.0,0.0,0.0,0.0,0.0,0.0,0.0,1.2862,1.319,1.3303,1.2856,1.2484,1.2403,1.2719,1.2948,1.3021,1.3218,1.3464,1.3782,1.3988,1.4168,1.432,0.0,0.0,0.0,0.0,1.5106,1.5229,1.5411,1.5508,1.5525,1.5525,1.5533,1.5557,1.5557,1.5349,1.5009,1.5009,1.4809,1.4388,1.3958,1.3704,1.3512,1.2576,1.22,1.2162,1.1805,1.1635,1.1541,1.1183,0.0,0.0,1.0392,1.0128,0.982,0.9753,0.9728,0.9728,0.9728,0.9478,0.9209,0.9209,0.8926,0.8667,0.8667,0.863,0.8611,0.8611,0.8573,0.8535,0.8535,0.8535,0.8422,0.8063,0.7654,0.7358,0.7302,0.7302,0.7302,0.7302,0.7302,0.725,0.7131,0.0,0.0,0.7011,0.6619,0.6208,0.5787,0.5278,0.4767,0.4232,0.4153,0.4101,0.4093,0.4042,0.4015,0.4012,0.3948,0.38,0.3547,0.2846,0.2511,0.0,0.0,0.0,0.0,0.0,0.0,0.0,0.0,0.0,0.0,0.0,0.0,0.0,0.0,0.0,1.2895,1.3311,1.3697,1.4035,1.4254,1.4185,1.3646,1.3636,1.3881,1.4362,1.4597,1.4805,1.5022,1.5231,1.5275,1.5091,1.5276,1.5297,1.5111,1.5298,1.5431,1.5444,1.5476,1.5585,1.5743,0.0,0.0,1.5902,1.5902,1.5861,1.5799,1.5799,1.5554,1.5169,1.4969,1.4388,1.3555,1.3025,1.2826,1.2826,1.2747,1.247,1.2133,1.2054,1.1776,1.1362,1.0919,1.0728,1.0587,1.0097,0.9935,0.0,0.9935,0.9896,0.9833,0.9833,0.9775,0.9717,0.9717,0.9471,0.922,0.922,0.8968,0.8736,0.8736,0.8736,0.8716,0.8639,0.8159,0.7674,0.7358,0.7302,0.7302,0.7302,0.7302,0.7293,0.7258,0.717,0.7098,0.7082,0.6942,0.6663,0.6219,0.5434,0.4788,0.4292,0.4215,0.4161,0.4093,0.4082,0.4077,0.4077,0.4066,0.4029,0.3978,0.3502,0.3178,0.0,0.0,0.0,0.0,0.0,0.0,0.0,0.0,0.0,0.0,0.0,1.2278,1.2347,0.0,1.3136,1.3358,1.3901,1.4367,1.4575,1.5056,1.5134,1.4382,1.4566,1.4793,1.4938,1.5221,1.5503,1.5784,1.5889,1.598,1.6056,1.6149,1.6189,1.6151,1.6346,1.649,1.6603,1.6471,1.646,1.6543,1.6303,1.6248,1.6295,1.6295,1.6295,1.6295,1.6295,1.6191,1.5965,1.5596,1.4931,1.4102,1.3709,1.3314,1.3003,1.3003,1.2862,1.2662,1.2662,1.2354,1.196,1.1692,1.1315,1.0884,1.0597,1.0363,1.0204,1.0204,1.0204,1.0204,1.0204,1.0161,1.0092,1.0092,0.9887,0.9689,0.9689,0.9538,0.9402,0.9402,0.9402,0.9344,0.9129,0.8847,0.8449,0.784,0.7744,0.7667,0.7433,0.7395,0.7397,0.7348,0.7284,0.7204,0.7115,0.6861,0.6593,0.6311,0.5542,0.4979,0.4707,0.4467,0.4335,0.4305,0.4305,0.4305,0.4305,0.4305,0.4305,0.4303,0.4092,0.3785,0.0,0.0,0.0,0.0,0.0,0.0,0.0,1.2612,1.2706,1.2861,1.3024,1.3156,1.3244,1.3558,1.3846,1.4017,1.4528,1.4955,1.5132,1.5619,1.5742,1.5174,1.5498,1.5712,1.5552,1.5838,1.6168,1.6522,1.6549,1.667,1.6958,1.7011,1.7086,1.7211,1.7413,1.7589,1.776,1.7539,1.7447,1.7426,1.6959,1.6746,1.6725,1.664,1.6605,1.6605,1.6605,1.6605,1.6568,1.6092,1.5502,1.4893,1.4568,1.3982,1.3288,1.3152,1.3091,1.3091,1.3091,1.2822,1.2492,1.2386,1.1869,1.1285,1.1175,1.0847,1.0525,1.0525,1.0464,1.0404,1.0404,1.0313,1.0237,1.0237,1.0166,1.0065,1.0043,1.0038,1.0027,1.0005,1.0,0.9903,0.9572,0.9514,0.9246,0.8432,0.8256,0.8061,0.7681,0.7564,0.7477,0.7423,0.7399,0.7317,0.7123,0.6748,0.6475,0.6334,0.5744,0.5316,0.5119,0.4788,0.4587,0.45,0.45,0.45,0.45,0.45,0.45,0.45,0.4524,0.429,1.3294,1.298,1.2666,1.2682,1.268,1.274,0.0,1.3335,1.3627,1.3594,1.3784,1.4071,1.442,1.4297,1.4396,1.5167,1.507,1.5179,1.596,1.6121,1.6264,1.654,1.6464,1.6597,1.7096,1.717,1.7376,1.7769,1.7797,1.7742,1.7612,1.7765,1.7791,1.7637,1.7839,1.7945,1.7972,1.7926,1.7922,1.7922,1.7447,1.7226,1.7213,1.6789,1.6605,1.6605,1.6605,1.6605,1.6597,1.6539,1.6217,1.5769,1.5726,1.5173,1.433,1.3617,1.3349,1.3349,1.3349,1.3308,1.3205,1.2724,1.2495,1.2313,1.1789,1.1289,1.0927,1.0927,1.0686,1.0404,1.0404,1.0398,1.0387,1.0387,1.0377,1.0318,1.0204,1.0182,1.013,1.0022,1.0,0.998,0.9942,0.9942,0.965,0.8856,0.8432,0.8178,0.812,0.7764,0.7502,0.7489,0.7435,0.7317,0.7123,0.7043,0.6833,0.6424,0.6259,0.5873,0.5208,0.5096,0.487,0.45,0.45,0.45,0.45,0.45,0.45,0.4503,0.463,0.4575,1.3921,1.3825,1.3632,1.348,1.3552,1.3678,1.3737,1.3984,1.4231,1.438,1.4551,1.4728,1.49,1.511,1.5312,1.5469,1.5643,1.5862,1.6148,1.6396,1.6698,1.7095,1.7171,1.7246,1.7388,1.7605,1.7869,1.8201,1.8343,1.8422,1.8436,1.865,1.8715,1.8631,1.8833,1.8934,1.8934,1.8775,1.87,1.8678,1.8225,1.7988,1.7988,1.7521,1.7153,1.6885,1.6885,1.6806,1.6717,1.6717,1.6545,1.6278,1.6015,1.5682,1.5247,1.428,1.3762,1.3519,1.3431,1.3403,1.3369,1.3143,1.2869,1.2616,1.2353,1.1986,1.1576,1.1309,1.1104,1.0919,1.0652,1.0556,1.0528,1.0528,1.0453,1.0373,1.0324,1.0313,1.0275,1.013,1.0128,1.0087,1.0011,1.0,0.9883,0.9558,0.9149,0.872,0.8256,0.8018,0.7803,0.7525,0.7444,0.7358,0.7284,0.7235,0.7134,0.6931,0.6605,0.6192,0.5685,0.5345,0.4982,0.4624,0.466,0.4677,0.4677,0.4676,0.4677,0.4677,0.4728,0.4723,1.4467,1.4521,1.4475,1.4257,1.4348,1.4471,1.4413,1.4554,1.4777,1.5045,1.5232,1.5401,1.5513,1.5877,1.6096,1.5991,1.6349,1.666,1.6695,1.6945,1.7254,1.7607,1.7796,1.787,1.7776,1.7973,1.8239,1.8544,1.8714,1.8864,1.9072,1.9269,1.9382,1.9382,1.9581,1.9684,1.9684,1.9544,1.9484,1.9462,1.9065,1.8822,1.8769,1.8234,1.7726,1.7288,1.7288,1.7148,1.6882,1.6882,1.6822,1.6701,1.6357,1.6156,1.5947,1.5118,1.4422,1.3865,1.3748,1.3603,1.3464,1.3464,1.3209,1.2899,1.2899,1.2609,1.2193,1.1861,1.159,1.132,1.0987,1.0755,1.0627,1.0627,1.0541,1.0471,1.0458,1.0453,1.042,1.0275,1.0253,1.0215,1.007,1.0049,1.0038,1.0005,0.9747,0.9324,0.8622,0.8334,0.8018,0.7545,0.7468,0.7415,0.741,0.7352,0.7326,0.7302,0.6937,0.6563,0.6213,0.5717,0.5284,0.4935,0.4832,0.4798,0.4798,0.4804,0.4807,0.481,0.4826,0.4842,1.5063,1.5089,1.5065,1.4976,1.497,1.4969,1.4889,1.5024,1.5246,1.5511,1.5789,1.6106,1.658,1.6551,1.6634,1.7082,1.7213,1.7432,1.7877,1.7966,1.8037,1.8241,1.8344,1.8458,1.8637,1.8496,1.8553,1.8949,1.8987,1.9082,1.9278,1.9477,1.959,1.959,1.9798,1.9889,1.9889,2.0088,2.0169,2.0169,1.9898,1.9665,1.9461,1.8778,1.8208,1.7779,1.7779,1.7507,1.7082,1.7082,1.7096,1.7074,1.7074,1.6781,1.6362,1.6199,1.5476,1.4565,1.4565,1.4146,1.3578,1.3578,1.3498,1.3383,1.3383,1.3044,1.2671,1.265,1.2048,1.1403,1.1382,1.1044,1.0711,1.0711,1.0684,1.0673,1.0615,1.0593,1.056,1.0426,1.0378,1.034,1.0221,1.0199,1.0155,1.0022,0.998,0.9825,0.9421,0.8681,0.8018,0.7545,0.7502,0.7465,0.7414,0.7406,0.7369,0.7306,0.7279,0.7086,0.6687,0.6291,0.5877,0.5478,0.5028,0.4804,0.4804,0.4807,0.4807,0.481,0.4869,0.4923,1.585,1.6025,1.6114,1.5908,1.5796,1.5721,1.5703,1.571,1.58,1.6021,1.6274,1.6548,1.6845,1.7118,1.7315,1.7394,1.7676,1.7919,1.799,1.8275,1.8592,1.8924,1.9135,1.9382,1.9728,1.9176,1.8902,1.9186,1.9316,1.942,1.9495,1.9694,1.9852,1.9984,2.0059,2.0163,2.0305,2.038,2.0409,2.0386,2.0305,2.0071,1.9684,1.9464,1.9022,1.8456,1.8133,1.7822,1.7537,1.7222,1.7112,1.7112,1.7112,1.7002,1.6862,1.6798,1.6372,1.5677,1.4879,1.4458,1.4202,1.3855,1.3654,1.3532,1.3532,1.3353,1.3106,1.2795,1.2484,1.2131,1.1549,1.1278,1.1091,1.0779,1.0695,1.0684,1.0662,1.0677,1.0639,1.054,1.0538,1.048,1.0366,1.0324,1.0313,1.0269,0.9892,0.9553,0.9421,0.87,0.8139,0.7978,0.7681,0.7493,0.7461,0.7461,0.7449,0.7439,0.7401,0.7193,0.6774,0.6588,0.6182,0.5522,0.5397,0.5172,0.4866,0.4904,0.4943,0.4923,0.5005,0.5043,1.6394,1.6648,1.6768,1.6473,1.64,1.6348,1.6235,1.6156,1.6166,1.6403,1.6575,1.6796,1.7093,1.7453,1.7696,1.7719,1.8163,1.8484,1.8422,1.8811,1.9228,1.9485,1.9744,2.0048,2.0392,1.9992,1.9776,1.99,1.9865,1.9914,2.0067,2.0036,2.0097,2.0305,2.0314,2.038,2.049,2.0565,2.0664,2.0739,2.0641,2.0445,2.0165,2.0068,1.972,1.9147,1.8834,1.8396,1.7871,1.7585,1.7323,1.7112,1.7112,1.7112,1.7112,1.7112,1.6914,1.6524,1.5567,1.498,1.4614,1.427,1.3931,1.366,1.366,1.3579,1.3422,1.3103,1.2876,1.2567,1.2006,1.1632,1.132,1.1029,1.082,1.0695,1.0695,1.0695,1.0694,1.0634,1.0638,1.0605,1.0485,1.0431,1.0404,1.0404,1.0034,0.9686,0.9507,0.8894,0.841,0.8222,0.7783,0.7506,0.7506,0.7506,0.7506,0.7506,0.7468,0.7324,0.7053,0.6869,0.6533,0.6017,0.5736,0.5464,0.5195,0.5094,0.5043,0.5067,0.5125,0.5155,1.6718,1.6938,1.7057,1.6743,1.6811,1.685,1.6551,1.6392,1.6414,1.6667,1.671,1.6861,1.7319,1.7572,1.7792,1.8067,1.8674,1.91,1.91,1.9582,1.9938,1.9938,2.018,2.0454,2.0646,2.0912,2.1075,2.1095,2.0647,2.0533,2.0923,2.0533,2.0381,2.0599,2.0576,2.0563,2.0573,2.0739,2.0937,2.1191,2.0937,2.0811,2.0801,2.0613,2.0293,1.9847,1.9825,1.9191,1.8168,1.8146,1.7734,1.7158,1.7128,1.7128,1.7098,1.709,1.7112,1.7046,1.6599,1.5731,1.4851,1.4829,1.4369,1.3808,1.3808,1.3707,1.362,1.3613,1.3191,1.2746,1.2712,1.2089,1.1466,1.1403,1.107,1.0737,1.0716,1.0695,1.0695,1.0695,1.0695,1.0678,1.0626,1.0496,1.0426,1.0426,1.0426,1.0236,0.9715,0.9298,0.8838,0.8298,0.7835,0.7537,0.7518,0.7518,0.7518,0.7518,0.7518,0.7518,0.7518,0.715,0.6935,0.6915,0.6112,0.5691,0.5719,0.5317,0.5167,0.5202,0.5207,0.5237,1.701,1.7336,1.7672,1.7598,1.7579,1.7522,1.7335,1.7128,1.6967,1.6936,1.6915,1.7066,1.755,1.7663,1.7835,1.8265,1.8764,1.91,1.91,1.9848,2.0428,2.0428,2.0927,2.1366,2.1609,2.1853,2.2118,2.2467,2.1791,2.1395,2.1493,2.1521,2.1631,2.1817,2.1488,2.1394,2.1536,2.1248,2.1135,2.1191,2.1135,2.1106,2.1106,2.1036,2.0854,2.0535,2.0171,1.9757,1.9307,1.8619,1.8211,1.8018,1.7528,1.7315,1.7299,1.7161,1.7112,1.709,1.6958,1.629,1.5403,1.5074,1.4529,1.4014,1.4014,1.3884,1.372,1.364,1.3495,1.3273,1.2828,1.2546,1.2193,1.1549,1.132,1.1133,1.0779,1.0695,1.0695,1.0695,1.0695,1.0684,1.0678,1.0646,1.0624,1.0624,1.0624,1.0512,1.0226,0.9853,0.9417,0.8932,0.8487,0.8106,0.7749,0.7729,0.7729,0.7729,0.7729,0.7729,0.7729,0.7629,0.7428,0.7124,0.6903,0.6472,0.5849,0.5748,0.5532,0.5204,0.5248,0.5278,1.7421,1.7663,1.7931,1.8052,1.8021,1.7906,1.7665,1.7463,1.7267,1.7044,1.7001,1.712,1.7496,1.763,1.7824,1.8211,1.8742,1.91,1.91,1.9962,2.0604,2.0604,2.1296,2.1825,2.1986,2.2288,2.2622,2.2976,2.2361,2.2038,2.2265,2.2175,2.2212,2.2434,2.217,2.1988,2.1898,2.1654,2.14,2.1191,2.1191,2.1191,2.1191,2.1191,2.1125,2.0966,2.069,2.034,1.9898,1.9362,1.8856,1.8372,1.7992,1.7704,1.7478,1.7299,1.7234,1.7218,1.7136,1.6629,1.5925,1.5462,1.4942,1.4448,1.4258,1.4061,1.3926,1.3844,1.3708,1.3523,1.3184,1.291,1.2526,1.1861,1.1549,1.1278,1.0799,1.0695,1.0695,1.0695,1.0695,1.0695,1.0695,1.0695,1.0695,1.0695,1.0695,1.0667,1.0558,1.0126,0.9642,0.9153,0.8745,0.8304,0.7839,0.7799,0.7799,0.7799,0.7799,0.7799,0.7799,0.7799,0.7698,0.7471,0.7289,0.6983,0.6509,0.6305,0.5994,0.559,0.5627,0.554,1.7847,1.7955,1.8049,1.8287,1.8339,1.8218,1.7808,1.7645,1.7464,1.713,1.7034,1.7077,1.7351,1.7561,1.7781,1.8056,1.8656,1.91,1.91,1.9962,2.0604,2.0604,2.1435,2.1996,2.1986,2.2439,2.2837,2.303,2.271,2.2679,2.3088,2.2754,2.2594,2.2706,2.2706,2.2475,2.2001,2.1931,2.17,2.1284,2.1238,2.1191,2.1191,2.1191,2.1191,2.1191,2.1191,2.0834,2.0254,2.0185,1.9528,1.8562,1.8468,1.812,1.7611,1.7486,1.7427,1.7386,1.7201,1.6865,1.6423,1.5947,1.544,1.4926,1.452,1.427,1.4117,1.4119,1.3885,1.366,1.362,1.3212,1.2717,1.2283,1.1819,1.1362,1.0883,1.0737,1.0695,1.0695,1.0695,1.0695,1.0695,1.0695,1.0695,1.0695,1.0695,1.0695,1.0695,1.0293,0.9804,0.9282,0.8867,0.842,0.7958,0.7876,0.7831,0.7831,0.7831,0.7831,0.7831,0.7831,0.7831,0.7831,0.7506,0.7317,0.7306,0.6897,0.6517,0.6179,0.6179,0.5969,1.7895,1.8218,1.8569,1.8617,1.8803,1.884,1.85,1.8155,1.7819,1.7481,1.719,1.7077,1.7351,1.7561,1.7781,1.8056,1.8656,1.91,1.91,1.9962,2.0604,2.0604,2.1425,2.1986,2.1997,2.2579,2.3041,2.3321,2.3471,2.3588,2.3651,2.373,2.3629,2.3268,2.3258,2.3005,2.2475,2.2083,2.1862,2.177,2.14,2.1191,2.1191,2.1191,2.1191,2.1191,2.1191,0.0,2.0973,2.0524,1.9989,1.9421,1.8866,1.8326,1.7828,1.7642,1.751,1.7402,1.7348,1.7198,1.6906,1.6423,1.5697,1.497,1.4911,1.4588,1.4231,1.4131,1.4056,1.3961,1.3674,1.3523,1.3308,1.2724,1.2276,1.184,1.1382,1.0966,1.0695,1.0695,1.0695,1.0695,1.0695,1.0695,1.0695,1.0695,1.0695,1.0695,1.0695,1.0617,1.0408,0.9972,0.9516,0.9059,0.8585,0.8248,0.8057,0.8057,0.8057,0.8057,0.8057,0.8057,0.8057,0.8057,0.7974,0.7753,0.7372,0.7313,0.7028,0.6601,0.6601,0.656,1.8025,1.8303,1.8569,1.8834,1.8991,1.902,1.8683,1.8286,1.7889,1.7561,1.7238,1.7044,1.7163,1.7475,1.7738,1.7867,1.857,1.91,1.91,1.9962,2.0604,2.0604,2.1425,2.1996,2.1996,2.2611,2.3105,2.3386,2.3657,2.3851,2.3958,2.4054,2.4004,2.3774,2.3774,2.3521,2.3028,2.2785,2.2416,2.1908,2.1677,2.1446,2.1191,2.1191,2.1191,2.1191,2.1191,2.1191,2.1168,2.0927,2.0533,2.0005,1.9453,1.8887,1.8362,1.792,1.7707,1.7648,1.7528,1.7404,1.7206,1.6984,1.6214,1.533,1.5058,1.4668,1.4285,1.4211,1.4158,1.4063,1.3899,1.3776,1.3554,1.2986,1.2291,1.1611,1.1133,1.0862,1.0695,1.0695,1.0695,1.0695,1.0695,1.0695,1.0695,1.0695,1.0695,1.0695,1.0695,1.0695,1.0549,1.0132,0.9678,0.9219,0.8738,0.8336,0.8102,0.8102,0.8102,0.8102,0.8102,0.8102,0.8102,0.8102,0.8102,0.798,0.7771,0.7771,0.752,0.7063,0.7102,0.6997,1.8097,1.8267,1.8412,1.8822,1.8931,1.8856,1.8597,1.8172,1.7789,1.7502,1.7177,1.6942,1.6942,1.7324,1.7641,1.7695,1.8441,1.9054,1.9089,1.9962,2.0604,2.0604,2.1435,2.1996,2.1996,2.2654,2.3181,2.3386,2.3689,2.3936,2.4085,2.4095,2.4095,2.4095,2.4095,2.3935,2.3544,2.3452,2.2992,2.2222,2.2001,2.17,2.1353,2.1238,2.1191,2.1191,2.1191,2.1191,2.1191,2.1191,2.0881,2.0362,1.9875,1.9372,1.882,1.8215,1.7949,1.7877,1.7731,1.7561,1.7437,1.7396,1.6704,1.5771,1.5278,1.4822,1.4431,1.4321,1.4211,1.4137,1.4104,1.398,1.3723,1.3178,1.2318,1.1505,1.1044,1.0855,1.0792,1.0792,1.0792,1.0792,1.0792,1.0792,1.0792,1.0792,1.0792,1.0792,1.0792,1.0792,1.0666,1.0356,0.9766,0.9261,0.8884,0.8399,0.8102,0.8102,0.8102,0.8102,0.8102,0.8102,0.8102,0.8102,0.8102,0.8114,0.8114,0.8114,0.7933,0.7598,0.7642,0.7501,1.7916,1.811,1.8312,1.8363,1.836,1.836,1.8341,1.782,1.7355,1.7324,1.7005,1.6731,1.6731,1.7104,1.7492,1.7673,1.8336,1.8896,1.9068,1.9962,2.0604,2.0604,2.1425,2.1986,2.1986,2.2826,2.3375,2.3397,2.3828,2.4097,2.4095,2.4095,2.4095,2.4095,2.4095,2.4072,2.4049,2.3613,2.336,2.3245,2.2347,2.1885,2.1816,2.14,2.1191,2.1191,2.1191,2.1191,0.0,2.1191,2.0881,2.0362,1.9875,1.9372,1.8837,1.8346,1.8054,1.7893,1.7877,1.7747,1.7569,1.7437,1.6926,1.6247,1.5771,1.5308,1.4844,1.4409,1.4292,1.4245,1.4131,1.4083,1.3927,1.3322,1.2784,1.2258,1.1798,1.1369,1.1069,1.1069,1.1069,1.1069,1.1069,1.1069,1.1069,1.1069,1.1069,1.1069,1.1069,1.1069,1.1047,1.1004,1.0049,0.9386,0.9344,0.8566,0.8102,0.8102,0.8102,0.8102,0.8102,0.8102,0.8102,0.8102,0.8102,0.8122,0.8187,0.8187,0.8206,0.8223,0.8231,0.8213,1.7859,1.798,1.8097,1.8267,1.83,1.83,1.83,1.778,1.7302,1.7302,1.6981,1.6699,1.6699,1.7087,1.747,1.7663,1.8315,1.8864,1.9057,1.9962,2.0604,2.0604,2.1435,2.2007,2.1997,2.2848,2.3515,2.3806,2.3977,2.4172,2.4335,2.4194,2.4183,2.4346,2.4346,2.4387,2.4527,2.4341,2.4107,2.3827,2.3429,2.282,2.2071,2.1884,2.1584,2.1191,2.1191,2.1191,0.0,2.1191,2.1075,2.0835,2.0315,1.9828,1.9326,1.8814,1.8391,1.807,1.807,1.7957,1.7771,1.7729,1.7375,1.6829,1.5955,1.5374,1.4911,1.4431,1.4299,1.4285,1.4224,1.4165,1.3968,1.3431,1.2893,1.2359,1.1898,1.1424,1.1101,1.1101,1.1101,1.1101,1.1101,1.1101,1.1101,1.1101,1.1101,1.1101,1.1101,1.1101,1.1101,1.1101,1.0437,0.9886,0.9609,0.9012,0.8522,0.8249,0.8223,0.8223,0.8223,0.8223,0.8223,0.8223,0.8223,0.8244,0.8259,0.8259,0.8275,0.829,0.8391,0.8415,1.7714,1.7771,1.7835,1.8025,1.8058,1.8058,1.8058,1.753,1.7059,1.7059,1.681,1.6575,1.6575,1.6963,1.7367,1.7652,1.8244,1.8771,1.9064,1.9962,2.0626,2.0671,2.1458,2.205,2.218,2.2988,2.3677,2.4063,2.4095,2.4215,2.4498,2.4324,2.4323,2.4583,2.4583,2.4669,2.4797,2.4807,2.4642,2.4311,2.417,2.3638,2.2756,2.2358,2.1946,2.1486,2.1289,2.1191,0.0,2.1191,2.1191,2.1145,2.0617,2.0107,1.9651,1.9093,1.8596,1.8199,1.8199,1.8118,1.7989,1.7909,1.769,1.725,1.6134,1.5521,1.5087,1.4476,1.4299,1.4299,1.4299,1.4217,1.4077,1.3742,1.3141,1.2523,1.2204,1.1639,1.1226,1.1226,1.1226,1.1226,1.1226,1.1226,1.1226,1.1226,1.1226,1.1226,1.1226,1.1226,1.1226,1.1226,1.0916,1.0451,0.9759,0.9258,0.8809,0.8334,0.829,0.829,0.829,0.829,0.829,0.829,0.829,0.8328,0.8353,0.8353,0.8369,0.8394,0.8481,0.8535,1.7433,1.7505,1.7505,1.7505,1.7505,1.7505,1.7505,1.6991,1.6519,1.6519,1.6403,1.6297,1.6297,1.67,1.7163,1.762,1.8104,1.857,1.9025,1.9962,2.0671,2.0877,2.1555,2.218,2.2654,2.3366,2.3894,2.4074,2.4095,2.4215,2.4498,2.4509,2.4583,2.4797,2.4797,2.4797,2.4807,2.4807,2.4807,2.4784,2.4311,2.4099,2.4041,2.2779,2.2188,2.2155,2.1486,2.1191,0.0,2.1191,2.1191,2.1145,2.0617,2.0107,1.9651,1.9093,1.8596,1.8199,1.8199,1.8199,1.8167,1.795,1.7763,1.7396,1.6324,1.5853,1.5506,1.4564,1.4299,1.4299,1.4299,1.4299,1.4299,1.4299,1.3584,1.2897,1.2897,1.2137,1.1494,1.1494,1.1494,1.1494,1.1494,1.1494,1.1494,1.1494,1.1494,1.1494,1.1494,1.1494,1.1494,1.1494,1.1494,1.0999,0.9795,0.9258,0.8809,0.8334,0.829,0.829,0.829,0.829,0.829,0.829,0.829,0.8357,0.8494,0.8494,0.854,0.8603,0.8607,0.8607,1.7203,1.7361,1.7493,1.7493,1.7493,1.7435,1.7212,1.6817,1.6449,1.6253,1.6278,1.6297,1.6297,1.6829,1.7373,1.7652,1.8261,1.8771,1.9064,1.9962,2.0671,2.0877,2.1825,2.2665,2.3128,2.3571,2.3872,2.4074,2.4258,2.4475,2.4689,2.4885,2.5014,2.5079,2.5055,2.513,2.5292,2.5268,2.5268,2.5268,2.5123,2.4798,2.4291,2.3551,2.2851,2.2165,2.1638,2.1324,2.1191,2.1191,2.1191,2.1168,2.0997,2.044,1.9674,1.9512,1.8922,1.8199,1.8199,1.8199,1.8191,1.8134,1.7973,1.7657,1.6869,1.6189,1.5506,1.4564,1.4299,1.4299,1.4299,1.4299,1.4299,1.4299,1.3591,1.2897,1.2897,1.2165,1.1499,1.1499,1.1499,1.1499,1.1499,1.1499,1.1499,1.1499,1.1499,1.1499,1.1499,1.1499,1.1499,1.1499,1.1499,1.1067,1.0001,0.9776,0.9335,0.8566,0.8499,0.8499,0.8499,0.8499,0.8499,0.8499,0.8499,0.8534,0.8566,0.8566,0.8579,0.8607,0.8607,0.8607,1.6911,1.7129,1.7348,1.7348,1.7319,1.7256,1.705,1.6667,1.6298,1.6131,1.6217,1.6297,1.6297,1.6894,1.747,1.7663,1.8315,1.8914,1.9222,2.0016,2.0788,2.1264,2.2277,2.3074,2.3365,2.3721,2.3969,2.4085,2.4357,2.4583,2.4797,2.5044,2.524,2.5303,2.5303,2.5378,2.5494,2.5494,2.5494,2.5494,2.5494,2.5249,2.4797,2.4039,2.3292,2.2564,2.1828,2.1404,0.0,2.1191,2.1191,2.1191,2.1191,2.058,1.9698,1.9698,1.9061,1.8199,1.8199,1.8199,1.8199,1.8199,1.7938,1.7516,1.6841,1.6077,1.5286,1.452,1.4299,1.4299,1.4299,1.4299,1.4299,1.4299,1.3723,1.3119,1.2942,1.2299,1.1716,1.1559,1.1548,1.1559,1.1608,1.1613,1.1613,1.1613,1.1613,1.1613,1.1613,1.1613,1.1613,1.1613,1.1613,1.1208,1.019,1.0028,0.9607,0.8652,0.8607,0.8607,0.8607,0.8607,0.8607,0.8607,0.8607,0.8607,0.8607,0.8607,0.8607,0.8607,0.8607,0.8607,0.0,1.6823,1.7054,1.7052,1.6998,1.6938,1.6932,1.6501,0.0,1.6072,1.6187,1.6297,1.6297,1.6904,1.7492,1.7684,1.8347,1.9,1.9456,2.0186,2.1014,2.1878,2.2837,2.3397,2.3397,2.3816,2.4095,2.4095,2.4367,2.4605,2.4797,2.5079,2.5303,2.5494,2.5494,2.5494,2.5494,2.5494,2.5494,2.5494,2.5494,2.5494,2.5459,2.4256,2.3574,0.0,2.2046,2.139,2.1191,2.1191,2.1191,2.1191,2.1191,2.058,1.9698,1.9698,1.9061,1.8199,1.8199,1.8199,1.8199,1.8199,1.7776,1.7118,1.6438,1.5666,1.4925,1.4445,1.4306,1.4299,1.4299,1.4306,1.4319,1.4319,1.3965,1.3505,1.3039,1.255,1.2117,1.1696,1.1605,1.1638,1.1774,1.1796,1.1796,1.1796,1.1796,1.1796,1.1796,1.1796,1.1796,1.1796,1.1796,1.1378,1.0386,1.0141,0.9625,0.866,0.8615,0.8615,0.8607,0.8607,0.8607,0.8607,0.8607,0.8607,0.8607,0.8607,0.8607,0.8607,0.8607,0.8607,1.5822,0.0,1.6528,1.6689,1.6538,1.6378,0.0,1.6205,1.6028,1.5765,1.6024,1.6297,1.6297,1.7028,1.7712,1.7966,1.8577,1.9212,1.9741,2.0714,2.1523,2.1943,2.2837,2.3397,2.3397,2.3816,2.4095,2.4095,2.4495,2.4743,2.4797,2.5206,2.5464,2.5494,2.5494,2.5494,2.5494,2.5494,2.5494,2.5494,2.5494,2.5494,2.5469,2.4421,2.3692,2.3236,2.2177,2.1532,2.1191,2.1191,2.1191,2.1191,2.1191,2.058,1.9698,1.9698,1.9061,1.8199,1.8199,1.8199,1.8199,1.8199,1.7985,1.7563,1.6697,1.5864,1.511,1.4596,1.438,1.4299,1.4299,1.438,1.4439,1.4439,1.4167,1.3771,1.3317,1.284,1.2352,1.1861,1.1752,1.1763,1.179,1.1796,1.1796,1.1796,1.1796,1.1796,1.1796,1.1796,1.1796,1.1796,1.1796,1.1378,1.0386,1.0269,0.9776,0.8732,0.8683,0.8654,0.8611,0.8607,0.8607,0.8607,0.8607,0.8607,0.8607,0.8607,0.8607,0.8607,0.8607,0.8607,1.5326,1.5682,1.6142,1.6204,1.6098,1.5994,1.609,1.5983,1.5857,1.5801,1.6054,1.6361,1.6576,1.7211,1.7813,1.8175,1.871,1.9387,2.024,2.1179,2.1911,2.2277,2.2945,2.344,2.357,2.3892,2.4161,2.4269,2.4603,2.485,2.4969,2.5324,2.5494,2.5494,2.5494,2.5494,2.5494,2.5494,2.5494,2.5494,2.5494,2.5494,2.5469,2.4369,2.3665,2.3236,2.2129,2.1485,2.1191,2.1191,2.1191,2.1191,2.1191,2.0719,1.9991,1.9791,1.9209,1.8479,1.8269,1.8199,1.8199,1.8199,1.8134,1.7853,1.6902,1.6237,1.566,1.4842,1.4541,1.448,1.448,1.4534,1.4595,1.4595,1.4452,1.4124,1.3455,1.309,1.2718,1.2022,1.1895,1.1917,1.1971,1.1982,1.1982,1.1982,1.1982,1.1982,1.1982,1.1982,1.1982,1.1982,1.1982,1.1651,1.0878,1.0604,1.0004,0.8872,0.8799,0.8775,0.873,0.873,0.873,0.873,0.873,0.8709,0.8642,0.8642,0.8622,0.8607,0.8626,0.8642,1.4959,1.5309,1.5704,1.5729,1.5644,1.5663,1.5961,1.5842,1.5724,1.5948,1.622,1.6522,1.6937,1.7437,1.7953,1.8394,1.8946,1.9698,2.0813,2.1556,2.2159,2.2654,2.3106,2.3516,2.3765,2.3967,2.4215,2.4488,2.4702,2.4915,2.5187,2.5389,2.5494,2.5494,2.5494,2.5494,2.5494,2.5494,2.5494,2.5494,2.5494,2.5472,2.5416,2.4225,2.3544,2.3176,2.2017,0.0,2.1191,2.1191,2.1191,2.1191,2.1191,2.0858,2.0339,1.9875,1.9372,1.8837,1.8363,1.8199,1.8199,1.8199,1.8199,1.8013,1.7008,1.6607,1.6288,1.5117,1.4728,1.4694,1.4694,1.4714,1.4751,1.4751,1.4771,1.4533,1.3569,1.3357,1.3094,1.2208,1.2038,1.2071,1.2174,1.2196,1.2196,1.2196,1.2196,1.2196,1.2196,1.2196,1.2196,1.2196,1.2196,1.1983,1.1463,1.0966,1.023,0.913,0.8971,0.8908,0.8896,0.8896,0.8896,0.8896,0.8896,0.8832,0.8732,0.8732,0.8695,0.8648,0.8699,0.8732,1.4679,1.4728,1.4889,1.5277,1.5196,1.5138,1.5578,1.5812,1.5948,1.5981,1.6483,1.6899,1.699,1.7706,1.8394,1.8681,1.9658,2.0574,2.1156,2.1673,2.2169,2.2643,2.3106,2.3516,2.3765,2.3967,2.4215,2.4488,2.4702,2.4915,2.5187,2.5389,2.5494,2.5494,2.5494,2.5494,2.5494,2.5494,2.5494,2.5494,2.5494,2.5421,2.5203,2.4177,2.3453,2.2987,0.0,2.1404,2.1191,2.1191,2.1191,2.1191,2.1191,2.0858,2.0339,1.9875,1.9372,1.8837,1.8363,1.8199,1.8199,1.8199,1.8199,1.8013,1.7008,1.6682,1.6449,1.54,1.4907,1.4694,1.4694,1.4835,1.496,1.496,1.5048,1.4856,1.3855,1.3644,1.3345,1.2352,1.2169,1.2174,1.219,1.2196,1.2196,1.2196,1.2196,1.2196,1.2196,1.2196,1.2196,1.2196,1.2196,1.1983,1.1463,1.0966,1.0432,0.9786,0.9262,0.895,0.8896,0.8896,0.8896,0.8896,0.8896,0.8887,0.8871,0.8871,0.8867,0.8855,0.8867,0.8871,1.4364,1.4467,1.4628,1.4991,1.4979,0.0,0.0,0.0,1.6067,1.6326,1.6705,1.7087,1.7329,1.7942,1.862,1.9299,2.0154,2.093,2.1394,2.1868,2.2395,2.302,2.3268,2.3548,2.3936,2.4043,2.4258,2.4624,2.4743,2.4969,2.5346,2.5464,2.5494,2.5494,2.5494,2.5494,2.5494,2.5399,2.5399,2.5494,2.5389,2.5281,2.5173,2.3908,2.3209,2.2937,0.0,2.13,2.1191,2.1191,2.1191,2.1191,2.1191,2.1052,2.0742,1.9976,1.9209,1.8479,1.8269,1.8199,1.8199,1.8199,1.8199,1.8013,1.7008,1.6704,1.6494,1.5486,1.5086,1.4977,1.4977,1.5031,1.5109,1.5109,1.5157,1.4929,1.3917,1.3705,1.3399,1.2408,1.2196,1.2196,1.2196,1.2196,1.2218,1.2307,1.2318,1.2318,1.2318,1.2318,1.2267,1.2201,1.2196,1.2101,1.1841,1.1132,1.0351,0.9522,0.92,0.9037,0.902,0.902,0.902,0.902,0.902,0.8995,0.8946,0.8946,0.8941,0.8896,0.8945,0.8946,1.4129,1.435,1.4562,1.4826,0.0,0.0,0.0,0.0,0.0,0.0,1.6985,1.7297,1.7781,1.8351,1.9036,1.9914,2.0585,2.1157,2.1631,2.2095,2.2643,2.3321,2.3473,2.3644,2.4052,2.4095,2.428,2.4689,2.4775,2.499,2.5421,2.5461,2.5494,2.5494,2.544,2.5443,2.5443,2.5206,2.5206,2.5432,2.5206,2.509,2.5001,2.3616,2.2963,2.2833,2.1698,2.1191,2.1191,2.1191,2.1191,2.1191,2.1191,2.1052,2.0751,1.9976,1.9061,1.8199,1.8199,1.8199,1.8199,1.8199,1.8199,1.8013,1.7008,1.6704,1.6494,1.5486,1.5204,1.5204,1.5204,1.5204,1.5204,1.5204,1.5204,1.4929,1.3917,1.3706,1.3447,1.2453,1.2261,1.2283,1.2283,1.2283,1.2316,1.2408,1.2419,1.2419,1.2419,1.2419,1.2386,1.2288,1.2283,1.2159,1.1945,1.1182,1.0269,0.9222,0.9107,0.9095,0.9095,0.9095,0.9095,0.9095,0.9095,0.9086,0.9017,0.9017,0.9003,0.8961,0.9007,0.9017,1.4075,1.435,1.4562,1.4826,1.5038,0.0,1.5868,1.6144,0.0,1.6883,0.0,0.0,1.8258,1.9151,1.9965,2.0464,2.0971,2.1436,2.192,2.2374,2.2848,2.3343,2.3613,2.3873,2.4086,2.4095,2.4215,2.4486,2.4689,2.4926,2.5208,2.5399,2.5494,2.5494,2.5313,2.523,2.523,2.4958,2.4958,2.523,2.4947,2.4721,2.4517,2.3471,2.2849,2.2575,2.1617,2.1191,2.1191,2.1191,2.1191,2.1191,2.1191,2.0626,1.9814,1.9744,1.9061,1.8199,1.8199,1.8199,1.8199,1.8199,1.8199,1.8013,1.7008,1.6704,1.6494,1.5486,1.5204,1.5204,1.5204,1.5204,1.5204,1.5204,1.5204,1.4929,1.3917,1.3803,1.3603,1.258,1.2433,1.2485,1.2485,1.2485,1.2485,1.2496,1.2501,1.2501,1.2501,1.2501,1.2496,1.2485,1.2485,1.2091,1.1163,1.0907,1.035,0.9345,0.9167,0.9095,0.9095,0.9095,0.9095,0.9095,0.9095,0.9095,0.9087,0.9087,0.9083,0.9074,0.9083,0.9087,1.4075,1.4471,1.4772,1.4873,1.5304,0.0,0.0,1.6474,1.684,1.719,1.7716,0.0,0.0,1.9644,2.0159,2.0897,2.1276,2.1653,2.2126,2.2589,2.3009,2.3365,2.3646,2.3884,2.4097,2.4095,2.4215,2.4488,2.4561,2.4723,2.4937,2.5023,2.5053,2.5053,2.499,2.4947,2.4947,2.4734,2.4658,2.4755,2.4658,2.4409,2.3963,2.313,2.2532,2.2129,2.1492,2.1191,2.1191,2.1191,2.1191,2.1191,2.1191,2.058,1.9698,1.9698,1.9061,1.8199,1.8199,1.8199,1.8199,1.8199,1.8199,1.8013,1.7008,1.6704,1.6494,1.5486,1.5204,1.5204,1.5204,1.5204,1.5204,1.5204,1.5255,1.5039,1.4042,1.3932,1.3716,1.2659,1.248,1.2512,1.2512,1.2512,1.2534,1.2604,1.2615,1.2615,1.2615,1.2615,1.2588,1.2518,1.2512,1.2093,1.1085,1.0954,1.0475,0.9431,0.92,0.9095,0.9095,0.9095,0.9095,0.9095,0.9095,0.9095,0.9095,0.9095,0.9095,0.9095,0.9095,0.9095,1.4148,1.4589,1.4937,1.5088,0.0,0.0,1.6463,1.6775,1.7141,1.7615,1.8272,1.8975,1.9752,2.003,2.0378,2.1167,2.1534,2.1858,2.2256,2.2794,2.3192,2.3375,2.3699,2.3947,2.4097,2.4095,2.4183,2.4367,2.4443,2.4551,2.4712,2.4764,2.4807,2.4807,2.4732,2.4723,2.4723,2.4486,2.4378,2.4378,2.4216,2.3961,2.3579,2.2915,2.2337,2.1862,2.14,2.1191,2.1191,2.1191,2.1191,2.1191,2.1191,2.058,1.9698,1.9698,1.9061,1.8199,1.8199,1.8199,1.8199,1.8199,1.8199,1.8013,1.7008,1.6704,1.6494,1.5486,1.5238,1.5255,1.5255,1.5255,1.5255,1.5255,1.5371,1.5192,1.4178,1.4073,1.3854,1.2756,1.2593,1.2621,1.2621,1.2621,1.2648,1.2754,1.2765,1.2765,1.2765,1.2765,1.2732,1.2631,1.2621,1.2203,1.1191,1.1059,1.0575,0.9497,0.9285,0.9192,0.9163,0.9163,0.9151,0.9099,0.9095,0.9095,0.9095,0.9095,0.9095,0.9095,0.9095,0.9095,1.4314,1.4708,1.5013,1.5483,0.0,0.0,1.6904,1.7012,1.7265,1.8205,1.8986,1.9593,1.9868,2.0281,2.0766,2.1231,2.1705,2.2083,2.2288,2.2934,2.3397,2.3397,2.3828,2.4095,2.4095,2.4095,2.4095,2.4095,2.4357,2.4509,2.4509,2.4702,2.4797,2.4797,2.4605,2.4509,2.4509,2.4226,2.4095,2.4095,2.3613,2.3406,2.3383,2.2844,2.2347,2.1862,2.14,2.1191,2.1191,2.1191,2.1191,2.1191,2.1191,2.058,1.9698,1.9698,1.9061,1.8199,1.8199,1.8199,1.8199,1.8199,1.8199,1.8013,1.7008,1.6704,1.6494,1.5486,1.5296,1.5387,1.5387,1.5387,1.5387,1.5387,1.5503,1.5327,1.4328,1.4213,1.3992,1.2902,1.2803,1.289,1.289,1.289,1.289,1.289,1.289,1.289,1.289,1.289,1.289,1.289,1.289,1.2459,1.1383,1.1187,1.0631,0.9567,0.9436,0.9371,0.9309,0.9305,0.924,0.9099,0.9099,0.9099,0.9099,0.9099,0.9099,0.9095,0.9095,0.9095,1.4314,1.4708,1.5013,1.5483,1.5942,1.6469,1.712,1.7389,0.0,0.0,1.937,1.9903,2.0313,2.0788,2.1242,2.1727,2.204,2.2353,2.274,2.3138,2.3461,2.3668,2.3924,2.4095,2.4095,2.4095,2.4095,2.4095,2.4183,2.4215,2.4215,2.428,2.4323,2.4323,2.4247,2.4215,2.4215,2.4151,2.4095,2.4095,2.3613,2.3199,2.2821,2.2337,2.1862,2.14,2.1261,2.1191,2.1191,2.1191,2.1191,2.1168,2.0788,2.0246,1.9651,1.9279,1.8744,1.8199,1.8199,1.8199,1.8199,1.8199,1.8199,1.8013,1.7008,1.6763,1.6616,1.5628,1.5428,1.5543,1.5543,1.5649,1.572,1.557,1.5683,1.5522,1.4471,1.4354,1.4123,1.306,1.2863,1.289,1.289,1.289,1.289,1.289,1.289,1.289,1.289,1.289,1.289,1.289,1.289,1.2459,1.1383,1.1254,1.0786,0.9715,0.9616,0.953,0.9375,0.9371,0.9354,0.9306,0.9306,0.9301,0.924,0.924,0.9184,0.9095,0.9095,0.9095,1.4446,1.4772,1.5056,1.572,1.6172,1.6689,1.7593,1.8039,1.8491,1.9255,1.9744,2.0154,2.0628,2.1037,2.1458,2.1932,2.2159,2.246,2.2933,2.3224,2.3505,2.3765,2.399,2.4095,2.4095,2.4095,2.4095,2.4095,2.4095,2.4095,2.4095,2.4095,2.4095,2.4095,2.4095,2.4095,2.4095,2.4095,2.4004,2.382,2.3314,2.2821,2.2314,2.2014,2.1654,2.1191,2.1191,2.1191,2.1191,2.1191,2.1191,2.1145,2.0617,2.0107,1.9651,1.9093,1.8596,1.8199,1.8199,1.8199,1.8199,1.8199,1.8199,1.8021,1.7061,1.6845,1.6704,1.5749,1.5608,1.5723,1.5723,1.5856,1.5931,1.5757,1.5863,1.5694,1.4607,1.4446,1.4177,1.3109,1.289,1.289,1.289,1.289,1.289,1.289,1.289,1.289,1.289,1.289,1.289,1.289,1.289,1.2459,1.1383,1.1307,1.0831,0.9782,0.9706,0.9657,0.9522,0.9481,0.942,0.9408,0.9408,0.9383,0.933,0.933,0.9301,0.9224,0.9192,0.9175,1.466,1.4894,1.5117,1.6029,1.6507,1.7023,1.8138,1.8749,1.9247,1.9784,2.0078,2.0363,2.0823,2.1147,2.1501,2.1921,2.2191,2.2493,2.2965,2.3245,2.3516,2.3797,2.4001,2.4095,2.4095,2.4095,2.4095,2.4095,2.4095,2.4095,2.4095,2.4095,2.4095,2.4095,2.4095,2.4095,2.4095,2.4095,2.3866,2.3383,2.2844,2.2337,2.1908,2.1862,2.1608,2.1191,2.1191,2.1191,2.1191,2.1191,2.1191,2.1145,2.0556,2.0083,1.9628,1.9046,1.8581,1.8199,1.8199,1.8199,1.8199,1.8216,1.8224,1.8069,1.7181,1.694,1.6763,1.5887,1.5764,1.5922,1.5922,1.6006,1.6074,1.5956,1.6006,1.5809,1.4725,1.4501,1.4177,1.3109,1.289,1.289,1.289,1.289,1.289,1.289,1.289,1.289,1.289,1.289,1.289,1.289,1.2865,1.2409,1.1383,1.1257,1.0781,0.9756,0.9706,0.9706,0.9706,0.9575,0.9493,0.9432,0.9432,0.9428,0.942,0.942,0.9416,0.9403,0.933,0.9317,1.466,1.4894,1.5059,1.5743,1.6512,1.7301,1.8071,1.8687,1.9247,1.9784,2.0227,2.0595,2.0856,2.1416,2.1879,2.1976,2.2363,2.2772,2.3257,2.3365,2.3558,2.3978,2.4063,2.4095,2.4095,2.4095,2.4095,2.4095,2.4095,2.4095,2.4095,2.4095,2.4095,2.4095,2.4095,2.4095,2.4095,2.4095,2.3866,2.3383,2.2844,2.2337,2.1885,2.1515,2.1307,2.1191,2.1191,2.1191,2.1191,2.1191,2.1191,2.1099,2.0209,1.9782,1.9605,1.8689,1.8293,1.8199,1.8199,1.8199,1.8224,1.837,1.8442,1.8262,1.7387,1.7217,1.7103,1.6115,1.5938,1.606,1.606,1.608,1.6101,1.6067,1.608,1.5809,1.4725,1.4501,1.4177,1.3109,1.289,1.289,1.289,1.289,1.289,1.289,1.289,1.289,1.289,1.289,1.289,1.289,1.2515,1.2009,1.1358,1.0906,1.038,0.9731,0.9706,0.9706,0.9706,0.9661,0.964,0.9645,0.9645,0.9587,0.9489,0.9489,0.9452,0.9408,0.9387,0.9379,1.4483,1.4664,1.4853,1.569,1.6398,1.7128,1.7919,1.8495,1.9072,1.98,2.0296,2.0712,2.1037,2.1598,2.2007,2.1986,2.2385,2.2815,2.3159,2.3332,2.3537,2.3915,2.4043,2.4095,2.4095,2.4095,2.4095,2.4095,2.4095,2.4095,2.4095,2.4095,2.4095,2.4095,2.4095,2.4095,2.4095,2.3889,2.3511,2.3005,2.2498,2.2024,2.1561,2.1307,2.1191,2.1191,2.1191,2.1191,2.1191,2.1191,2.1191,2.1099,2.0092,1.9698,1.9573,1.8572,1.8199,1.8199,1.8199,1.8256,1.8369,1.8467,1.8366,1.8105,1.7489,1.7157,1.6871,1.6187,1.6046,1.6108,1.6108,1.6108,1.6108,1.6108,1.6108,1.5884,1.5056,1.4676,1.4252,1.344,1.309,1.289,1.289,1.2964,1.3018,1.3047,1.3033,1.3033,1.3033,1.3033,1.3033,1.3033,1.2551,1.1999,1.1439,1.0879,1.0306,0.9731,0.9706,0.9706,0.9706,0.9706,0.9706,0.9706,0.9706,0.9657,0.9583,0.9583,0.9583,0.9534,0.9469,0.9448,1.4291,1.4433,1.4679,1.5614,1.6178,1.6743,1.7633,1.8183,1.8784,1.9789,2.0311,2.0744,2.121,2.1673,2.1996,2.2007,2.2395,2.2772,2.2976,2.3192,2.344,2.3765,2.3947,2.4064,2.4107,2.4095,2.4095,2.4095,2.4095,2.4095,2.4095,2.4095,2.4095,2.4095,2.4095,2.4072,2.3981,2.359,2.3084,2.2475,2.2001,2.1585,2.1191,2.1191,2.1191,2.1191,2.1191,2.1191,2.1191,2.1191,2.1191,2.1099,2.0092,1.9698,1.9573,1.8572,1.8199,1.8199,1.8232,1.8369,1.8508,1.8573,1.8304,1.79,1.7558,1.7071,1.656,1.6191,1.6108,1.6108,1.6108,1.6108,1.6108,1.6108,1.6108,1.5958,1.5429,1.4875,1.4364,1.3838,1.331,1.295,1.295,1.3031,1.3129,1.3201,1.3212,1.3212,1.3212,1.3212,1.3212,1.3212,1.2652,1.2051,1.1554,1.0882,1.0266,0.9755,0.9714,0.9727,0.9727,0.9714,0.9706,0.9706,0.9706,0.9706,0.9706,0.9706,0.9706,0.9702,0.9579,0.9542,1.4291,1.4563,1.4823,1.5145,1.5695,1.6351,1.7067,1.7681,1.8451,1.9731,2.0311,2.0744,2.121,2.1673,2.2007,2.1986,2.2395,2.2772,2.2976,2.303,2.3235,2.3743,2.3819,2.3904,2.4074,2.4095,2.4095,2.4095,2.4095,2.4095,2.4095,2.4095,2.4095,2.4095,2.4095,2.3912,2.3498,2.3429,2.2923,2.1991,2.1515,2.1261,2.1191,2.1191,2.1191,2.1191,2.1191,2.1191,2.1191,2.1191,2.1191,2.1099,2.0092,1.9698,1.9573,1.8572,1.8199,1.8224,1.8402,1.8475,1.8548,1.8834,1.8591,1.811,1.7755,1.7288,1.6743,1.625,1.6108,1.6108,1.6108,1.6108,1.6108,1.6108,1.6108,1.5958,1.5429,1.4875,1.4388,1.3949,1.35,1.3169,1.3169,1.3179,1.3196,1.3212,1.3212,1.3212,1.3212,1.3212,1.3212,1.3212,1.2312,1.1664,1.1599,1.06,0.9956,0.9866,0.9815,0.98,0.98,0.9722,0.9706,0.9706,0.9706,0.9706,0.9706,0.9706,0.9706,0.9706,0.9694,0.9661,1.4108,1.4326,1.4568,1.4763,1.5323,1.5961,1.6481,1.7145,1.7917,1.8766,1.9644,2.0479,2.1169,2.1673,2.2007,2.2007,2.2395,2.2718,2.2826,2.2944,2.3084,2.331,2.3472,2.3613,2.3698,2.3828,2.3926,2.3926,2.4032,2.4095,2.4095,2.3989,2.3926,2.3926,2.3536,2.3213,2.3009,2.2499,2.1924,2.1277,2.1071,2.1055,2.1191,2.1191,2.1191,2.1191,2.1191,2.1191,2.1191,2.1191,2.1191,2.1099,2.0092,1.9698,1.9573,1.8572,1.8199,1.8224,1.8434,1.8541,1.8647,1.8923,1.8515,1.7896,1.7749,1.7119,1.6399,1.6182,1.6108,1.6108,1.6108,1.6108,1.6128,1.6191,1.6212,1.6182,1.6004,1.5252,1.4377,1.3644,1.3328,1.3208,1.3304,1.3315,1.3337,1.3407,1.3418,1.3418,1.3418,1.3418,1.3418,1.3418,1.2426,1.1744,1.1713,1.067,0.9978,0.9903,0.9862,0.9843,0.9794,0.9779,0.9734,0.9706,0.9706,0.9706,0.9706,0.9706,0.9706,0.9706,0.9706,0.9706,1.3934,1.4093,1.4339,1.4499,1.508,1.5693,1.6035,1.6714,1.7415,1.7975,1.8899,1.9892,2.0872,2.1505,2.1921,2.1986,2.2341,2.2611,2.2697,2.2815,2.2933,2.2998,2.3181,2.3332,2.3397,2.3581,2.37,2.37,2.3828,2.3935,2.3935,2.3672,2.352,2.352,2.2867,2.2461,2.2349,2.1499,2.0981,2.0716,2.0716,2.0852,2.1106,2.1106,2.1144,2.1191,2.1191,2.1191,2.1191,2.1191,2.1191,2.1099,2.0092,1.9698,1.9573,1.8572,1.8232,1.8297,1.8484,1.8639,1.8818,1.9021,1.8454,1.7697,1.7697,1.6953,1.6108,1.6108,1.6108,1.6114,1.613,1.6137,1.6178,1.6327,1.6336,1.6293,1.6139,1.5418,1.4481,1.3451,1.3283,1.3337,1.3424,1.344,1.3472,1.3591,1.3602,1.3602,1.3602,1.3602,1.3602,1.3602,1.2572,1.1877,1.1823,1.077,1.0085,0.9972,0.9974,0.9929,0.9885,0.9815,0.9783,0.9718,0.9719,0.9706,0.9706,0.9706,0.9706,0.9706,0.9706,0.9706,1.3901,1.4093,1.4301,1.4311,1.4966,1.5663,1.5863,1.6394,1.7073,1.7918,1.8298,1.8866,2.011,2.1055,2.1697,2.1954,2.217,2.2406,2.2654,2.2719,2.2783,2.2976,2.3019,2.3116,2.3375,2.3408,2.3418,2.3418,2.3429,2.344,2.344,2.3005,2.2772,2.2772,2.2292,2.1813,2.1375,2.0814,2.0522,2.0509,2.0509,2.0622,2.0811,2.0811,2.0947,2.1191,2.1191,2.1191,2.1191,2.1191,2.1191,2.1099,2.0092,1.9698,1.9573,1.8572,1.8305,1.8508,1.8647,1.8826,1.9021,1.9208,1.8581,1.7697,1.7697,1.6953,1.6108,1.6108,1.6108,1.6142,1.6259,1.63,1.6308,1.6451,1.6485,1.6204,1.5193,1.5035,1.4738,1.362,1.3478,1.3586,1.3591,1.3597,1.3597,1.3602,1.3602,1.3602,1.3602,1.3602,1.3602,1.3602,1.2572,1.1906,1.1901,1.0843,1.0181,1.0177,1.0122,1.0099,1.0091,0.9906,0.979,0.9782,0.9726,0.9706,0.9706,0.9706,0.9706,0.9706,0.9706,0.9706,1.3897,1.4093,1.4292,1.4292,1.4837,1.5404,1.5655,1.6064,1.6582,1.7148,1.7766,1.8394,1.8964,2.0155,2.1184,2.1655,2.1943,2.218,2.2406,2.2439,2.2525,2.2783,2.2815,2.2848,2.2934,2.3063,2.3127,2.3127,2.3289,2.3263,2.2974,2.2626,2.2322,2.2057,2.1439,2.0886,2.0402,2.0204,2.0182,2.0314,2.0314,2.0396,2.0613,2.0735,2.0862,2.0947,2.1135,2.1191,2.1191,2.1191,2.1191,2.1099,2.0092,1.9698,1.959,1.8705,1.8442,1.854,1.8785,1.8931,1.9037,1.9224,1.8564,1.7697,1.7697,1.6953,1.6108,1.6108,1.6151,1.6239,1.6293,1.6349,1.6457,1.6606,1.6715,1.6607,1.5852,1.5447,1.4901,1.3747,1.3575,1.3602,1.3602,1.3602,1.3602,1.3602,1.3602,1.3602,1.3602,1.3602,1.3602,1.3602,1.2572,1.1911,1.1911,1.0852,1.0189,1.0189,1.0187,1.0138,1.0107,0.9937,0.9847,0.979,0.9726,0.9706,0.9706,0.9706,0.9706,0.9706,0.9706,0.9706,1.4016,1.4122,1.4222,1.4273,1.4707,1.5189,1.5515,1.592,1.63,1.6623,1.7271,1.7872,1.823,1.9192,2.0237,2.1152,2.1489,2.1797,2.2159,2.2212,2.2299,2.2535,2.2568,2.26,2.2697,2.2674,2.2661,2.2661,2.2679,2.2565,2.2255,2.1903,2.1536,2.1108,2.062,2.0226,1.9899,1.9899,1.9965,2.0097,2.0097,2.021,2.0418,2.0603,2.0735,2.0811,2.1074,2.1191,2.1191,2.1191,2.1191,2.1099,2.0092,1.9698,1.9599,1.8812,1.854,1.8606,1.8907,1.9045,1.9118,1.9265,1.8564,1.7697,1.7697,1.6953,1.6114,1.6144,1.6232,1.6308,1.6403,1.6539,1.67,1.6776,1.6904,1.6821,1.6236,1.5684,1.502,1.4051,1.3708,1.3602,1.3602,1.3602,1.3602,1.3602,1.3602,1.3602,1.3602,1.3602,1.3602,1.3602,1.2572,1.1911,1.1911,1.0852,1.0189,1.0189,1.0189,1.0187,1.0126,1.0036,0.9925,0.9839,0.9771,0.971,0.9706,0.9706,0.9706,0.9706,0.9706,0.9706,0.0,0.0,0.0,1.4245,1.4603,1.5019,1.5468,1.5901,1.6243,1.6452,1.6821,1.7283,1.7939,1.8221,1.8876,2.039,2.0825,2.1189,2.1848,2.1954,2.203,2.2235,2.2256,2.2353,2.2622,2.2233,2.1952,2.1952,2.1542,2.1292,2.127,2.0825,2.0378,1.9921,1.9899,1.9899,1.9899,1.9899,1.9899,1.9899,1.9899,2.0003,2.0192,2.0386,2.0594,2.0824,2.1064,2.1191,2.1191,2.1191,2.1191,2.1075,2.0092,1.9698,1.9576,1.8788,1.8598,1.8729,1.8931,1.9134,1.9306,1.9306,1.8564,1.7697,1.7697,1.6953,1.6117,1.6266,1.632,1.6363,1.6628,1.6844,1.7004,1.7004,1.7004,1.6847,1.6236,1.5684,1.5131,1.4531,1.3971,1.3602,1.3602,1.3602,1.3602,1.3602,1.3602,1.3602,1.3602,1.3602,1.3602,1.3602,1.2572,1.1911,1.1911,1.0852,1.0189,1.0189,1.0189,1.0189,1.0189,1.0126,1.004,0.9903,0.9835,0.9771,0.9706,0.9706,0.9706,0.9706,0.9706,0.9706,1.4281,0.0,0.0,0.0,0.0,0.0,1.5217,1.5553,1.5873,1.6206,1.6489,1.6819,1.7292,1.754,1.799,1.8886,1.9613,2.019,2.0508,2.0683,2.0858,2.1106,2.1147,2.1178,2.1261,2.1134,2.105,2.105,2.1075,2.0921,2.0587,2.0269,2.003,1.9899,1.9899,1.9899,1.9899,1.9899,1.9899,1.9899,1.9899,1.9927,1.9984,2.0192,2.0377,2.0594,2.0824,2.1026,2.1191,2.1191,2.0983,2.0556,1.9953,1.9465,1.9089,1.8747,1.868,1.8745,1.9102,1.924,1.9306,1.9306,1.8564,1.7697,1.7697,1.7031,1.6252,1.63,1.6437,1.6647,1.687,1.6951,1.7004,1.7004,1.7004,1.6952,1.6794,1.5999,1.5131,1.4531,1.3971,1.3602,1.3602,1.3602,1.3602,1.3602,1.3602,1.3602,1.3602,1.3602,1.3602,1.3602,1.2572,1.1911,1.1911,1.0852,1.0189,1.0189,1.0189,1.0189,1.0189,1.0126,1.004,0.9903,0.9835,0.9771,0.9706,0.9706,0.9706,0.9706,0.9706,0.9706,0.0,0.0,0.0,1.4257,0.0,0.0,1.5087,1.5311,1.5562,1.5996,1.6234,1.6471,1.6783,1.7001,1.7284,1.7672,1.8299,1.8976,1.9624,1.9907,2.014,2.0373,2.0484,2.0575,2.0688,2.0509,2.0404,2.0404,2.0333,2.0169,1.9893,1.9804,1.9767,1.9767,1.9852,1.9899,1.9899,1.9899,1.9899,1.9899,1.9899,1.9899,1.9908,2.0107,2.0314,2.0509,2.0707,2.0947,2.1168,2.095,2.0686,2.0362,1.9875,1.9372,1.8887,1.8757,1.8704,1.8753,1.9159,1.9306,1.9306,1.9306,1.8564,1.7697,1.7697,1.7035,1.632,1.6381,1.6586,1.6844,1.6958,1.7004,1.7004,1.7004,1.7004,1.7004,1.7004,1.6104,1.5204,1.4841,1.413,1.3602,1.3602,1.3602,1.3602,1.3602,1.3602,1.3602,1.3602,1.3602,1.3602,1.3602,1.2572,1.1911,1.1911,1.0852,1.0189,1.0189,1.0189,1.0189,1.0189,1.0163,1.0094,0.9982,0.9892,0.9782,0.9706,0.9706,0.9706,0.9706,0.9706,0.9706,0.0,0.0,0.0,0.0,1.4292,0.0,1.503,1.5181,1.5321,1.5733,1.5996,1.6196,1.6423,1.6604,1.6745,1.6793,1.7095,1.775,1.8925,1.9323,1.9574,1.9765,1.9926,2.0147,2.039,2.0054,1.9812,1.9812,1.9483,1.9278,1.9297,1.9467,1.9562,1.9562,1.9748,1.9861,1.9861,1.9889,1.9899,1.9899,1.9899,1.9899,1.9899,2.0078,2.0295,2.0509,2.0688,2.0918,2.1168,2.0617,2.0362,2.0269,1.9805,1.9302,1.8809,1.8733,1.8704,1.8753,1.9159,1.9306,1.9306,1.9306,1.8564,1.7697,1.7719,1.7063,1.6342,1.6498,1.6768,1.7004,1.7004,1.7004,1.7004,1.7004,1.7004,1.7004,1.7004,1.6104,1.5309,1.5309,1.4393,1.3602,1.3602,1.3602,1.3602,1.3602,1.3602,1.3602,1.3602,1.3602,1.3602,1.3602,1.2572,1.1911,1.1911,1.0852,1.0189,1.0189,1.0189,1.0189,1.0189,1.0189,1.0171,1.0107,0.9961,0.9827,0.9706,0.9706,0.9706,0.9706,0.9706,0.9706,0.0,0.0,0.0,0.0,0.0,0.0,1.4851,1.5087,1.5236,1.5321,1.5543,1.5835,1.6187,1.6291,1.6415,1.6745,1.6868,1.7123,1.7693,1.8085,1.8343,1.8381,1.842,1.8468,1.8526,1.8639,1.8714,1.8714,1.8935,1.9138,1.9288,1.9335,1.9354,1.9354,1.9552,1.9656,1.9656,1.9814,1.9899,1.9899,1.9899,1.9899,1.9899,1.9937,2.0163,2.0499,2.0537,2.0796,2.1168,2.0617,2.0176,1.9782,1.9256,1.8767,1.8365,1.8614,1.8704,1.8753,1.9159,1.9306,1.9306,1.9306,1.8564,1.7719,1.7829,1.7202,1.6512,1.6815,1.6964,1.7004,1.7004,1.7004,1.7004,1.7004,1.7004,1.7004,1.7004,1.6104,1.5309,1.5309,1.4393,1.3602,1.3602,1.3602,1.3602,1.3602,1.3602,1.3602,1.3602,1.3602,1.3602,1.3602,1.2572,1.1911,1.1911,1.0852,1.0189,1.0189,1.0189,1.0189,1.0189,1.0189,1.0171,1.0107,0.9922,0.9787,0.9706,0.9706,0.9706,0.9706,0.9706,0.9706,0.0,0.0,0.0,1.4713,0.0,0.0,0.0,1.4974,1.5078,1.5181,1.5302,1.5498,1.5845,1.5911,1.6006,1.63,1.6442,1.6604,1.6916,1.7294,1.7596,1.769,1.7784,1.7888,1.8001,1.8124,1.8201,1.8201,1.8505,1.8732,1.8845,1.9044,1.9157,1.9157,1.9356,1.9495,1.9599,1.9703,1.9795,1.9899,1.9899,1.9899,1.9899,1.9899,2.0069,2.0361,2.0452,2.0556,2.0626,2.021,1.9735,1.9279,1.9,1.8604,1.824,1.859,1.8704,1.8753,1.9159,1.9306,1.9256,1.8984,1.8366,1.7677,1.754,1.7066,1.6661,1.6917,1.7004,1.7004,1.7004,1.7004,1.7004,1.7004,1.7004,1.7004,1.7004,1.6104,1.5309,1.5309,1.4393,1.3602,1.3602,1.3602,1.3602,1.3602,1.3602,1.3602,1.3602,1.3602,1.3602,1.3602,1.2572,1.1911,1.1911,1.0852,1.0189,1.0189,1.0189,1.0189,1.0189,1.0189,1.0171,1.0107,0.9925,0.9815,0.9746,0.9727,0.9706,0.9706,0.9706,0.9706,0.0,0.0,0.0,0.0,0.0,1.4653,0.0,0.0,0.0,1.5106,1.5144,1.5226,1.5477,1.5515,1.5581,1.5807,1.5987,1.6139,1.63,1.6612,1.6934,1.7246,1.7426,1.7596,1.7756,1.784,1.7925,1.7981,1.8201,1.8354,1.8392,1.8714,1.8892,1.894,1.9148,1.9316,1.9477,1.9562,1.9684,1.9833,1.988,1.9899,1.9899,1.9899,2.0012,2.021,2.0316,2.0273,2.0066,1.9711,1.9302,1.8883,1.879,1.8526,1.824,1.859,1.8704,1.8753,1.9159,1.9306,1.9207,1.868,1.8107,1.7542,1.7113,1.6883,1.6796,1.6944,1.7004,1.7004,1.7004,1.7004,1.7004,1.7004,1.7004,1.7004,1.7004,1.6104,1.5309,1.5309,1.4393,1.3602,1.3602,1.3602,1.3602,1.3602,1.3602,1.3602,1.3602,1.3602,1.3602,1.3602,1.2678,1.2043,1.1911,1.0958,1.0322,1.0216,1.0189,1.0189,1.0189,1.0189,1.0171,1.0107,0.9986,0.99,0.979,0.9742,0.9723,0.9706,0.9706,0.9706,0.0,0.0,0.0,0.0,1.4853,0.0,0.0,0.0,1.4908,1.4927,0.0,1.4993,1.5217,0.0,0.0,1.5598,1.5646,1.5674,1.5693,1.574,1.6035,1.6783,1.6897,1.6916,1.6925,1.7265,1.7614,1.7962,1.8029,1.8143,1.8383,1.8439,1.8553,1.8722,1.893,1.9044,1.9063,1.941,1.9609,1.9637,1.9805,1.9899,1.9899,1.9899,2.0012,2.0188,1.9971,1.9948,2.0043,1.9294,1.8953,1.886,1.8432,1.8246,1.824,1.859,1.8704,1.8753,1.9159,1.9306,1.9207,1.868,1.7991,1.724,1.6719,1.6758,1.6958,1.7004,1.7004,1.7004,1.7004,1.7004,1.7004,1.7004,1.7004,1.7004,1.7004,1.6104,1.5309,1.5309,1.4393,1.3602,1.3602,1.3602,1.3602,1.3602,1.3602,1.3602,1.3602,1.3602,1.3602,1.3602,1.3047,1.2466,1.1964,1.1355,1.0772,1.0243,1.0189,1.0189,1.0189,1.0189,1.0171,1.0107,1.0095,0.9983,0.979,0.9782,0.9759,0.9706,0.9706,0.9706,0.0,0.0,0.0,0.0,0.0,0.0,1.4928,0.0,1.4898,0.0,0.0,0.0,0.0,0.0,0.0,0.0,1.5375,1.5413,1.5579,1.5598,1.5816,1.6377,1.6443,1.6538,1.6783,1.6944,1.7171,1.7463,1.7596,1.7756,1.7983,1.824,1.8439,1.8525,1.8713,1.8883,1.8996,1.9278,1.9486,1.9599,1.9795,1.9899,1.9899,1.9899,1.9815,1.9636,1.9759,1.9522,1.9062,1.895,1.8744,1.8479,1.8269,1.8199,1.824,1.859,1.8704,1.8753,1.9159,1.9306,1.9157,1.8316,1.7453,1.6694,1.6548,1.6647,1.6837,1.6984,1.7004,1.7004,1.7004,1.7004,1.7004,1.7004,1.7004,1.7004,1.7004,1.6341,1.5677,1.5362,1.4631,1.3971,1.3655,1.3602,1.3602,1.3602,1.3602,1.3602,1.3602,1.3602,1.3602,1.3602,1.3127,1.2572,1.1964,1.1408,1.0852,1.0243,1.0189,1.0189,1.0189,1.0189,1.02,1.0159,1.0106,1.0071,0.9971,0.9865,0.9795,0.9759,0.9706,0.9706,1.7232,0.0,0.0,0.0,0.0,0.0,0.0,0.0,0.0,0.0,0.0,0.0,0.0,0.0,0.0,0.0,0.0,1.5189,1.5383,1.5402,1.5562,1.5996,1.6043,1.6196,1.6594,1.6632,1.6745,1.7001,1.7199,1.7407,1.7615,1.7983,1.8278,1.8392,1.8544,1.8703,1.8911,1.9129,1.9316,1.9514,1.971,1.9842,1.9899,1.9768,1.9519,1.921,1.9321,1.8982,1.8315,1.8593,1.8511,1.8199,1.8199,1.8199,1.824,1.859,1.8704,1.8753,1.9159,1.9108,1.8737,1.7945,1.706,1.6334,1.6451,1.66,1.673,1.6937,1.7004,1.7004,1.7004,1.7004,1.7004,1.7004,1.7004,1.7004,1.7004,1.6532,1.5947,1.5388,1.4815,1.4241,1.3681,1.3602,1.3602,1.3602,1.3602,1.3602,1.3602,1.3602,1.3602,1.3602,1.3259,1.273,1.1964,1.154,1.1011,1.0243,1.0189,1.0189,1.0189,1.0189,1.0189,1.0189,1.0151,1.0132,1.0107,0.9951,0.9851,0.9827,0.9734,0.9706,0.0,0.0,0.0,1.6877,0.0,0.0,0.0,0.0,1.4898,0.0,0.0,0.0,0.0,0.0,0.0,0.0,0.0,0.0,0.0,1.4917,1.5094,1.556,1.5617,1.5778,1.6177,1.6225,1.6367,1.6783,1.7001,1.7209,1.7407,1.7615,1.7936,1.8383,1.8402,1.8506,1.8703,1.8902,1.9119,1.9306,1.9514,1.9713,1.9877,1.9432,1.9204,1.9166,1.8592,1.8327,1.8293,1.8238,1.8199,1.8199,1.8199,1.8199,1.824,1.859,1.8704,1.8753,1.9159,1.8613,1.7747,1.7722,1.706,1.6334,1.6451,1.66,1.673,1.6937,1.7004,1.7004,1.7004,1.7004,1.7004,1.7004,1.7004,1.7004,1.7004,1.6532,1.5947,1.5388,1.4815,1.4241,1.3681,1.3602,1.3602,1.3602,1.3602,1.3602,1.3602,1.3602,1.3602,1.3602,1.3576,1.3127,1.199,1.1884,1.1408,1.0269,1.0189,1.0189,1.0189,1.0189,1.0189,1.0189,1.0212,1.0167,1.0107,1.0099,1.0028,0.9891,0.9763,0.9706,0.0,0.0,1.7386,1.7152,0.0,0.0,0.0,0.0,0.0,0.0,0.0,0.0,0.0,0.0,0.0,0.0,0.0,0.0,0.0,1.4594,1.4613,1.4896,1.5326,1.5646,1.5788,1.593,1.6102,1.6367,1.6594,1.6849,1.7171,1.7388,1.7633,1.7927,1.825,1.843,1.8506,1.8826,1.911,1.9297,1.9185,1.9238,1.9432,1.8952,1.858,1.8278,1.8279,1.8123,1.7854,1.8099,1.8199,1.8199,1.8199,1.8199,1.824,1.859,1.8704,1.8753,1.9159,1.8589,1.7697,1.7697,1.6988,1.6205,1.6424,1.6532,1.6627,1.691,1.7004,1.7004,1.7004,1.7004,1.7004,1.7004,1.7004,1.7004,1.7004,1.6847,1.6426,1.5467,1.5131,1.471,1.376,1.3602,1.3602,1.3602,1.3602,1.3602,1.3602,1.3602,1.3602,1.3602,1.3602,1.3285,1.2572,1.1805,1.1037,1.0243,1.0189,1.0189,1.0189,1.0189,1.0189,1.0189,1.0189,1.02,1.0171,1.011,1.0091,1.0032,0.9888,0.9803,1.8142,1.7981,0.0,1.7574,1.7357,0.0,1.6442,0.0,0.0,0.0,0.0,0.0,0.0,0.0,0.0,0.0,0.0,0.0,0.0,1.4433,1.4348,1.449,1.4941,1.5307,1.5449,1.5581,1.577,1.6064,1.6147,1.632,1.6665,1.6804,1.6969,1.7171,1.7597,1.7856,1.795,1.8263,1.8556,1.8811,1.8621,1.8691,1.8952,1.8471,1.8085,1.7817,1.7987,1.7874,1.7619,1.803,1.8199,1.8199,1.8199,1.8199,1.824,1.859,1.8785,1.8948,1.9208,1.8589,1.7697,1.7697,1.6977,1.6162,1.6429,1.6498,1.6559,1.6923,1.7004,1.7004,1.7004,1.7004,1.7004,1.7004,1.7004,1.7004,1.7004,1.7004,1.6663,1.552,1.5309,1.4941,1.3787,1.3602,1.3602,1.3602,1.3602,1.3602,1.3602,1.3602,1.3602,1.3602,1.3602,1.3391,1.2863,1.1752,1.0931,1.0534,1.0322,1.0189,1.0189,1.0189,1.0189,1.0189,1.0189,1.0189,1.0189,1.0159,1.0126,1.0126,1.001,0.9941]}]]